GFSCGP_sfc_thetae_000.txt.gz
Theta_e
320 313 310 313 316 318 318 316 315 318 323 322 320 320 325 327 329 331 333 334 334 335 343 346 349 353 353 355 362 360 366 370 370 366 365 367 364 368 362 364 365 365 368 363
315 310 315 317 318 316 315 314 314 318 322 321 321 320 325 326 327 330 332 333 334 336 338 342 345 345 349 357 361 364 367 370 370 370 371 366 365 364 363 361 365 364 361 361
311 313 317 316 314 313 314 311 312 314 319 319 318 318 318 325 328 329 331 334 335 335 336 341 344 346 349 353 359 363 368 367 370 370 369 367 364 363 359 360 352 357 354 354
313 317 315 314 312 313 309 314 314 313 313 308 318 306 318 321 323 327 328 330 332 334 337 339 342 346 348 353 359 363 368 370 369 369 366 361 353 345 356 356 352 352 354 354
310 312 313 312 313 315 311 315 313 313 311 310 311 309 315 323 319 322 326 329 331 333 335 336 339 344 347 353 354 362 368 368 365 362 358 353 352 346 349 349 352 355 352 353
313 317 315 314 315 315 316 316 314 313 310 304 309 311 312 317 324 322 324 328 331 333 335 337 340 344 345 350 353 360 363 363 362 358 356 353 352 350 347 348 347 344 348 348
311 312 316 317 313 316 315 312 305 303 303 302 312 309 315 321 324 327 327 328 331 334 336 337 337 340 345 348 352 358 358 358 358 356 354 350 350 352 351 349 348 348 343 347
305 304 313 316 314 312 312 312 305 300 301 304 312 307 314 320 326 331 332 333 332 332 337 339 341 342 346 349 354 354 355 355 355 355 355 353 355 350 351 352 347 344 344 346
306 307 316 316 317 317 312 309 314 308 309 304 308 312 317 320 319 320 323 324 330 332 334 338 342 345 347 349 352 354 355 356 355 352 358 356 355 353 352 353 352 345 353 343
313 308 314 315 317 317 315 316 307 308 302 300 305 307 308 318 317 319 319 321 326 334 335 336 340 345 350 350 353 353 356 356 352 353 352 352 352 352 353 352 350 350 351 350
315 313 311 314 312 310 312 311 311 311 308 302 301 305 319 321 321 319 320 323 324 327 336 338 341 347 352 350 350 349 351 353 350 351 353 351 347 348 350 348 348 349 352 351
316 313 308 310 316 317 315 313 313 307 307 309 308 306 320 320 319 320 322 323 327 330 335 342 342 348 350 349 347 345 344 346 347 349 352 350 349 349 349 348 348 350 349 350
316 311 306 308 312 315 311 314 313 312 312 310 305 307 323 320 320 323 322 325 334 337 344 344 343 344 348 349 347 343 341 341 343 347 343 347 348 347 348 349 349 349 348 346
319 312 311 303 309 313 310 311 312 311 308 309 309 312 317 319 321 327 326 329 331 338 339 345 344 344 347 348 346 344 340 340 341 341 342 346 347 348 347 349 350 348 348 347
316 313 311 310 311 311 311 311 311 309 311 308 311 313 318 321 322 323 324 327 329 334 338 345 343 345 347 347 345 344 341 345 342 343 345 347 349 349 349 348 348 347 347 346
316 312 312 308 311 311 309 311 312 312 311 311 312 314 320 324 325 323 322 323 327 330 331 340 345 344 348 347 345 342 341 344 348 341 343 347 348 347 346 348 348 347 347 348
317 311 312 306 310 310 306 310 311 312 314 313 311 319 323 321 320 321 324 325 328 330 332 334 343 343 351 347 345 341 344 345 345 346 346 346 347 346 347 347 347 347 348 346
319 319 314 307 312 301 311 317 315 313 315 316 316 320 323 321 321 323 326 328 327 330 332 335 338 346 350 347 344 346 344 344 346 345 345 345 346 345 347 347 346 347 347 345
313 319 311 307 305 309 312 315 315 312 314 319 318 320 323 322 321 325 330 328 328 334 340 341 337 342 349 346 347 347 342 343 344 343 344 345 345 345 346 345 345 347 346 343
316 319 314 311 304 301 313 317 321 319 308 321 320 321 320 321 313 323 333 330 330 332 339 343 345 347 349 348 348 344 341 343 341 342 344 346 347 347 346 346 344 342 347 341
311 313 308 307 305 307 317 319 320 306 307 321 323 322 323 322 325 332 333 332 333 337 339 344 348 348 350 350 347 341 341 342 344 345 346 347 348 350 350 350 344 343 338 336
311 309 307 310 306 304 321 318 312 325 327 324 325 326 325 325 326 327 328 336 335 337 339 343 348 348 351 352 349 342 343 348 355 351 349 351 352 343 341 349 347 341 342 338
308 312 313 314 310 320 324 324 326 326 328 325 325 324 325 323 323 325 328 329 337 338 340 342 346 351 351 351 355 352 353 354 356 354 353 353 351 347 348 345 340 340 338 334
317 319 315 313 314 315 321 321 323 323 323 322 323 323 324 323 324 328 330 332 340 340 341 343 347 346 347 355 354 355 354 354 350 351 352 351 347 347 341 341 338 332 335 331
315 315 312 316 314 320 320 320 321 322 323 323 324 323 323 325 327 332 333 341 341 343 339 340 340 335 332 333 330 336 343 343 347 348 347 347 342 340 337 320 318 326 311 312
315 315 312 309 317 319 318 319 320 319 318 321 323 323 324 326 329 334 338 341 342 340 341 335 335 332 327 334 337 340 340 346 345 342 338 337 336 326 331 324 317 301 300 297

GFSCGP_sfc_thetae_003.txt.gz
Theta_e
309 306 303 307 308 309 312 310 311 316 318 314 315 320 324 327 328 326 328 331 333 335 341 343 345 346 347 349 349 350 347 353 354 352 351 350 348 350 352 354 355 351 352 352
305 304 312 314 313 311 309 312 311 316 319 315 314 317 322 323 325 328 329 330 332 333 340 343 344 344 346 347 351 353 353 355 355 355 354 353 352 353 352 355 352 350 348 350
303 310 316 313 310 309 307 305 311 312 318 318 316 311 316 322 323 328 331 332 332 333 335 340 343 343 346 349 352 354 356 356 356 353 355 352 349 348 344 347 347 341 339 340
307 313 312 310 308 309 300 310 311 313 312 304 315 302 310 315 316 323 328 329 329 333 334 336 336 337 345 351 354 356 356 354 356 354 351 343 336 326 338 339 339 338 340 339
306 309 309 308 309 311 305 311 308 307 306 303 307 301 309 314 312 318 323 328 330 332 334 335 337 340 345 351 352 352 355 356 348 337 339 331 326 331 335 336 334 330 334 339
308 314 311 310 313 313 313 307 305 304 299 293 300 302 306 310 314 319 323 326 329 331 334 336 338 341 345 348 352 356 353 344 342 336 333 329 328 329 329 332 330 332 332 333
306 308 311 312 306 309 307 302 295 293 293 293 301 300 307 317 320 319 320 321 325 330 332 334 335 339 344 345 350 355 347 342 340 337 337 333 332 331 330 330 333 329 329 334
299 298 307 311 306 303 303 301 297 292 293 297 304 298 305 321 323 323 324 322 324 328 331 332 334 336 342 344 349 350 345 343 340 339 335 333 332 331 334 338 333 328 329 332
299 300 311 312 312 309 304 300 305 298 300 296 300 305 314 320 320 322 324 323 321 324 330 330 333 336 341 342 349 348 346 345 342 340 337 335 335 334 335 334 332 331 335 333
304 298 307 311 311 311 307 309 299 297 292 291 298 303 302 308 312 319 321 321 322 324 329 331 332 335 341 343 347 348 348 345 345 342 341 340 339 336 335 334 332 333 331 335
307 301 304 308 304 303 304 301 302 301 298 292 292 298 312 313 313 312 312 315 319 326 326 332 333 337 341 344 348 348 348 346 344 343 340 339 337 336 336 334 333 334 336 336
308 302 301 304 309 312 307 304 304 297 297 299 298 301 315 315 315 315 317 319 318 323 327 331 336 339 341 343 346 346 348 345 342 342 341 333 331 334 334 333 333 333 332 333
308 303 298 300 305 309 306 306 304 304 301 297 297 300 315 314 313 316 315 319 321 321 324 329 336 339 342 343 342 344 345 343 340 339 338 334 334 333 332 333 333 333 332 331
315 302 301 296 302 306 303 307 306 301 296 297 300 304 308 313 317 317 318 319 324 325 333 330 336 341 343 343 340 339 340 340 339 339 337 334 336 335 334 334 334 334 333 332
309 301 302 303 306 307 308 307 306 302 301 299 302 308 309 312 314 316 318 318 319 326 330 334 332 342 344 342 339 337 337 338 337 335 334 335 336 336 336 335 336 334 333 334
307 303 303 301 307 306 305 309 309 309 307 304 304 304 314 316 318 318 317 317 317 319 322 336 336 336 342 342 337 336 333 334 335 333 335 339 339 337 336 335 335 333 333 333
307 305 300 295 304 304 300 305 306 307 310 308 302 308 315 315 317 315 315 316 317 320 321 320 333 336 340 341 338 334 333 336 334 335 335 337 337 336 336 336 336 336 334 331
309 307 302 297 303 293 304 312 312 311 313 313 313 316 317 314 314 315 315 316 318 319 320 320 323 338 341 340 338 336 337 334 334 333 335 336 336 336 336 336 335 335 332 330
313 308 303 297 296 300 307 310 311 308 309 315 313 316 316 317 320 318 322 320 320 323 325 326 326 341 341 338 336 336 335 333 335 333 334 336 336 335 335 336 335 334 333 331
310 312 306 300 295 295 304 315 318 315 303 316 317 316 318 314 313 315 321 324 324 325 327 328 332 341 340 339 337 337 335 336 335 335 337 338 337 336 336 337 335 334 332 331
305 305 300 299 298 302 313 318 317 303 305 317 317 315 317 312 314 318 322 320 323 323 328 330 333 339 340 340 341 336 334 334 337 337 337 339 339 338 339 338 335 331 330 322
305 303 298 302 298 296 317 318 311 314 318 320 320 319 318 318 317 318 318 318 323 323 329 332 337 342 343 342 340 335 334 337 338 337 337 339 339 341 341 332 332 330 330 325
304 309 309 308 307 316 318 313 318 319 316 317 317 318 318 318 318 319 318 316 320 326 329 335 340 340 341 342 336 332 329 324 323 336 338 340 340 335 332 329 330 328 325 325
313 314 309 308 312 313 318 316 316 318 319 320 321 320 319 317 320 320 322 322 323 328 329 337 336 327 324 329 326 324 325 326 325 323 327 335 332 331 330 327 324 322 317 318
310 313 308 311 316 316 317 318 318 318 320 321 322 321 319 320 320 322 325 331 329 331 331 332 327 325 326 330 329 326 325 325 321 321 335 333 334 326 315 309 311 317 305 308
312 309 308 306 314 314 314 318 317 315 315 315 315 317 320 320 321 330 331 331 330 327 327 326 326 328 328 325 324 327 326 329 331 333 330 326 326 320 317 310 305 300 300 297

GFSCGP_sfc_thetae_009.txt.gz
Theta_e
301 298 296 299 304 304 306 305 310 314 315 317 316 317 321 326 326 325 327 328 329 331 334 337 341 342 341 342 344 343 344 347 348 347 345 345 346 346 347 348 350 350 348 349
297 296 302 305 307 305 304 303 306 310 317 316 315 316 321 323 324 325 326 326 328 330 331 334 338 339 339 340 342 341 343 345 349 347 345 346 344 345 345 347 349 349 348 347
294 299 306 307 306 305 301 301 303 307 312 318 317 312 317 323 325 326 328 329 330 330 330 332 335 336 340 339 340 342 342 346 348 348 346 346 344 342 340 342 343 342 344 344
298 303 304 305 305 306 297 306 308 310 308 304 315 302 310 318 321 324 327 328 330 332 332 333 335 337 339 340 342 343 344 346 348 348 346 343 340 334 331 336 338 336 333 335
297 301 301 302 305 308 304 307 305 308 306 305 306 302 307 315 314 320 325 327 331 333 333 333 335 338 340 342 344 345 346 347 348 347 347 343 333 329 332 332 332 329 330 333
300 305 304 303 307 309 309 303 299 299 299 296 305 302 300 310 316 320 323 325 331 332 335 335 337 338 339 343 346 347 346 347 348 346 344 338 328 328 330 328 327 324 326 328
298 300 302 307 301 304 302 295 289 291 293 294 300 301 303 312 320 322 322 323 329 332 335 336 336 337 338 341 345 347 347 346 346 342 336 331 326 327 329 327 325 326 328 329
291 292 300 304 302 299 298 296 290 285 287 293 296 298 306 314 320 323 324 324 328 329 335 336 338 338 338 342 344 347 347 345 341 336 329 324 325 324 324 325 326 325 327 329
290 292 302 304 305 304 297 293 298 291 291 290 293 298 306 312 313 319 319 319 325 328 332 336 338 338 339 342 344 346 347 346 339 332 328 324 325 325 325 328 329 324 325 330
296 290 298 302 304 303 302 301 293 291 287 286 291 294 297 305 309 315 316 317 323 327 330 334 337 337 340 343 345 346 348 346 340 332 329 328 327 328 330 330 327 326 328 328
295 293 294 300 298 297 298 295 293 294 291 288 288 293 302 306 311 313 316 319 323 326 329 331 334 336 337 342 344 345 346 345 340 334 331 328 328 330 330 329 328 328 328 327
297 293 293 295 300 302 300 298 297 294 290 290 291 294 306 309 314 316 317 318 319 324 328 331 332 334 334 337 341 344 345 343 340 335 332 330 330 330 329 328 328 327 327 329
297 290 288 291 293 297 297 299 295 294 293 292 292 295 307 308 311 315 316 317 318 320 323 329 331 332 333 336 339 342 345 343 341 336 333 331 331 331 330 330 329 328 328 328
307 290 294 293 293 297 296 300 299 297 292 292 294 298 303 307 309 310 313 316 318 319 321 325 327 330 332 334 338 341 345 345 342 337 335 332 332 333 332 332 330 329 328 327
300 294 292 298 300 299 300 300 300 298 299 298 298 299 304 307 309 311 313 313 315 317 318 322 325 326 329 331 336 340 344 345 342 339 336 333 333 332 332 332 331 330 330 330
297 293 295 295 299 300 299 301 302 302 299 299 298 300 306 310 310 310 312 313 314 315 318 321 324 325 325 330 334 339 342 343 342 340 337 335 332 330 330 331 330 330 330 330
295 296 291 294 297 299 295 300 301 303 305 303 298 302 307 308 310 311 311 314 315 316 322 322 322 326 329 331 335 338 341 343 340 340 337 333 333 331 331 332 331 330 330 330
299 293 292 295 294 291 298 306 307 307 309 309 308 304 309 310 314 312 311 312 313 315 318 323 326 326 331 333 336 337 341 340 338 336 334 334 333 333 332 331 331 330 330 329
301 295 293 291 291 298 304 308 306 303 304 311 310 310 311 312 312 310 313 313 314 314 314 315 320 326 329 334 337 336 336 337 336 334 333 334 334 332 331 329 330 332 329 329
302 301 298 292 291 292 303 311 314 311 300 312 312 311 311 311 307 307 314 314 315 315 319 319 321 323 329 330 336 333 331 333 333 334 332 333 333 331 329 330 331 330 330 329
300 299 295 295 296 299 308 312 314 299 300 312 311 309 310 307 309 310 313 315 317 318 320 322 321 328 331 332 331 329 329 330 331 331 331 331 331 331 330 330 329 330 328 325
302 300 300 298 295 294 311 311 304 307 309 311 311 312 312 313 315 316 318 317 317 317 317 320 322 327 333 331 329 326 325 328 329 327 325 323 326 326 325 325 324 326 327 324
300 306 302 302 299 307 311 308 312 312 310 311 312 313 314 317 315 318 319 320 322 324 326 327 324 325 328 329 328 324 324 325 326 325 322 322 323 324 325 323 320 320 324 322
309 311 304 306 307 310 312 313 314 314 313 314 315 314 315 318 324 320 322 325 326 326 327 328 327 326 323 324 325 323 324 323 323 322 321 322 322 321 322 322 322 323 323 320
307 311 307 306 312 313 312 313 315 316 316 315 314 316 316 315 314 318 323 325 326 326 324 325 322 321 320 321 322 323 324 325 324 323 324 322 320 320 319 312 313 317 310 311
307 307 305 303 312 310 310 314 316 311 311 311 310 309 310 311 310 316 323 326 323 323 322 322 319 318 320 322 322 323 324 324 322 320 321 321 320 320 315 310 304 300 299 297

GFSCGP_sfc_thetae_012.txt.gz
Theta_e
299 297 294 300 303 308 306 309 309 312 316 314 314 315 322 325 325 325 326 328 330 331 336 338 340 343 342 344 346 346 346 348 349 348 347 348 348 350 350 351 352 352 349 351
296 294 300 304 305 305 307 306 307 310 316 315 315 315 321 325 325 325 326 327 328 330 330 334 338 340 340 341 345 345 346 347 348 348 348 348 348 348 349 350 351 352 351 351
293 297 303 305 303 302 300 301 304 309 314 316 315 311 314 322 324 326 327 328 329 329 329 331 335 338 339 339 341 343 344 346 348 349 347 347 347 345 344 346 348 348 349 349
296 301 303 302 303 304 297 304 305 309 310 302 312 298 310 316 319 322 324 325 327 329 331 331 334 336 339 339 342 343 343 343 347 348 347 345 343 341 340 341 345 343 343 342
297 298 299 300 303 306 302 306 305 308 305 304 307 300 304 316 314 318 322 325 327 329 330 331 333 336 338 341 340 342 342 343 346 347 348 346 341 339 334 337 340 337 335 337
300 302 302 302 305 308 306 301 299 298 299 294 303 303 300 309 316 320 323 326 328 330 331 333 334 337 337 340 341 342 342 343 346 347 347 346 342 333 332 333 333 331 330 332
296 298 301 305 300 302 299 295 289 289 292 293 299 301 305 311 320 321 322 325 329 331 332 332 332 334 336 338 340 342 342 342 346 347 346 345 341 333 333 333 332 328 329 333
291 290 298 302 300 298 297 296 290 286 287 294 299 299 306 316 317 322 323 325 327 330 333 333 334 335 336 339 340 342 342 343 346 347 346 343 338 332 332 332 329 329 331 334
289 290 299 302 303 302 295 293 296 290 287 289 293 298 306 309 310 316 319 322 323 328 331 334 335 336 337 338 340 342 343 344 345 346 344 336 332 328 329 329 330 330 332 333
294 288 296 300 302 301 299 299 293 289 285 285 290 293 297 303 308 310 314 318 322 326 330 334 336 337 338 339 341 343 345 344 345 345 341 335 330 328 328 328 330 328 329 332
294 291 292 297 296 296 295 293 292 292 290 287 286 291 300 304 308 310 313 319 320 323 328 332 336 339 339 340 341 342 344 345 345 343 338 334 328 328 329 330 332 330 330 331
296 294 291 293 297 300 299 296 295 292 288 289 289 292 304 307 308 313 314 318 318 323 327 331 335 338 338 339 340 342 344 345 347 344 337 333 330 330 330 331 332 331 331 330
296 289 288 289 291 295 295 296 292 292 291 289 290 293 305 306 309 313 314 315 317 322 325 329 331 334 337 337 340 342 344 345 347 343 335 332 330 330 331 332 331 330 331 330
306 289 292 292 292 295 294 297 296 294 290 290 293 297 301 307 308 311 315 316 316 320 324 326 328 331 334 335 337 341 343 345 346 341 336 333 331 331 332 332 331 331 330 330
297 292 291 298 297 297 297 298 297 295 295 294 298 298 303 307 309 311 316 317 317 317 318 324 327 329 331 332 334 338 341 345 345 339 336 335 334 333 333 332 332 331 330 331
296 292 292 296 298 298 297 299 299 299 299 297 298 298 304 308 311 311 313 315 317 318 319 320 323 326 327 329 331 336 340 343 345 340 338 338 335 334 334 334 333 332 331 331
295 292 289 291 295 293 291 298 298 299 301 301 297 304 305 307 309 311 312 314 317 318 319 318 321 324 325 327 331 334 338 343 344 341 340 337 332 333 333 333 332 332 331 332
299 291 290 290 291 285 297 301 303 302 305 306 306 305 308 309 312 313 314 313 314 316 319 320 321 325 327 328 330 334 338 341 342 341 339 334 333 332 332 333 333 332 331 331
302 294 290 289 288 293 303 307 306 305 304 312 308 311 310 311 312 311 314 315 315 319 320 324 325 324 326 330 333 335 338 340 340 338 336 335 334 333 334 333 331 332 332 331
305 301 295 289 288 290 299 308 313 311 299 311 312 310 309 311 304 307 314 316 315 317 318 319 320 322 326 329 335 335 335 336 337 336 336 336 336 337 334 333 332 332 332 332
299 300 296 293 294 297 307 310 313 300 300 309 311 311 311 308 309 313 316 316 318 318 320 323 323 325 330 333 335 332 332 333 334 334 335 335 335 333 332 331 333 332 330 328
301 297 298 298 293 293 309 310 303 307 311 311 312 312 311 312 315 318 319 321 324 324 326 327 325 324 333 334 333 331 330 331 332 331 331 331 332 333 331 328 329 329 328 325
300 306 302 302 298 307 310 308 311 311 313 313 315 317 317 315 315 318 320 323 325 326 327 329 329 328 327 330 330 326 327 329 327 325 324 325 326 327 327 325 325 324 325 324
308 310 305 305 308 310 311 312 314 314 312 313 313 313 313 312 315 317 320 321 324 325 325 327 325 323 322 324 325 325 327 328 325 322 323 323 323 323 325 324 322 323 324 324
306 309 307 307 309 311 313 314 315 313 313 311 311 311 311 311 311 315 317 324 324 324 325 324 322 322 323 323 324 325 326 326 324 323 323 323 324 323 320 308 313 322 316 318
303 305 304 303 311 308 310 313 314 311 311 311 311 310 310 309 310 313 311 317 324 323 324 321 320 321 321 323 324 325 328 328 326 324 324 322 322 320 315 312 309 300 298 298

GFSCGP_sfc_thetae_015.txt.gz
Theta_e
308 304 302 307 314 316 316 315 315 319 323 321 320 321 326 331 332 331 334 337 338 339 344 348 349 351 352 354 356 357 358 361 361 358 357 357 355 361 361 367 361 363 363 362
304 301 307 310 311 314 316 315 315 319 322 322 320 320 325 329 330 332 333 335 337 339 342 345 348 349 350 352 354 357 358 361 361 359 359 359 359 360 360 362 363 363 362 362
302 304 307 307 308 308 314 314 315 315 319 322 321 317 321 328 331 332 333 335 336 337 339 341 344 346 349 350 352 355 359 361 361 362 360 359 360 360 357 357 358 360 361 361
303 306 305 306 307 310 307 315 318 316 315 309 320 307 318 324 326 329 331 332 333 335 338 340 341 344 346 348 352 357 359 360 360 361 358 358 353 352 354 354 356 359 360 358
303 302 304 304 307 311 310 313 315 317 315 313 314 310 314 322 321 326 330 332 334 335 337 338 340 343 346 349 349 352 357 360 360 360 361 357 356 356 355 352 356 359 356 355
307 307 307 307 310 312 311 310 310 313 313 304 311 311 309 317 321 325 329 332 333 335 336 339 341 343 345 348 349 350 355 358 358 358 359 359 358 357 352 350 347 351 350 347
305 305 307 308 306 312 310 308 301 300 301 300 309 310 312 319 324 326 327 330 333 335 336 337 339 340 345 346 348 350 355 355 356 356 357 358 359 359 355 353 348 349 346 343
300 297 304 308 307 306 307 307 302 296 297 300 306 304 311 322 324 327 330 331 333 334 337 338 342 343 344 345 350 352 354 355 355 355 358 361 361 356 354 353 348 347 346 343
300 300 304 306 309 310 306 303 311 303 300 301 305 310 314 319 320 322 325 329 331 334 336 337 340 341 344 347 350 351 354 355 356 355 359 359 360 358 354 352 349 347 348 343
304 298 304 306 309 308 307 310 301 302 298 295 300 303 305 315 318 323 323 326 330 334 336 338 341 344 346 347 350 352 354 354 356 354 357 357 356 352 355 351 344 346 346 345
307 304 301 304 303 303 304 303 304 306 304 299 297 301 315 317 321 322 324 326 329 333 335 339 343 344 347 347 348 349 352 354 355 356 358 358 353 351 347 347 344 340 345 344
306 304 300 302 306 307 307 305 306 302 301 302 302 303 314 317 320 322 324 326 328 332 334 339 341 343 344 346 346 347 351 350 354 355 357 355 351 343 347 334 341 343 341 342
305 301 297 299 303 305 303 305 306 306 306 305 299 302 317 316 317 320 321 326 328 331 334 338 340 343 346 346 349 349 350 349 352 355 353 351 348 342 340 341 338 340 341 339
311 305 303 298 302 305 301 302 304 304 301 302 302 306 312 315 318 322 323 326 328 329 333 336 339 342 346 349 350 350 350 350 351 352 352 352 349 346 342 336 336 333 334 336
311 304 304 305 307 305 304 302 303 302 305 302 305 306 313 317 320 323 328 329 327 328 331 336 337 342 346 348 351 351 350 354 354 354 353 350 349 347 343 339 336 334 332 333
307 303 303 301 304 305 302 304 304 304 304 305 306 308 317 321 321 321 324 326 327 328 330 334 338 340 342 345 345 346 349 351 354 354 351 351 348 343 342 341 340 337 333 335
311 304 302 300 304 302 299 303 304 305 307 307 304 311 319 316 318 322 327 327 328 331 331 332 336 341 342 342 344 344 347 350 352 352 352 350 347 342 342 341 339 337 331 331
309 306 303 301 300 292 303 309 308 306 308 310 310 313 318 318 322 324 327 328 329 332 333 334 333 336 340 341 342 346 347 349 351 352 351 349 345 343 342 342 339 338 338 330
313 307 303 299 300 303 305 310 305 304 306 312 311 315 317 317 319 321 323 324 328 329 331 333 334 336 339 339 342 344 345 348 350 350 350 347 345 343 341 340 336 335 337 336
310 311 305 302 295 295 307 313 317 315 303 317 318 319 319 318 312 319 322 324 326 329 333 335 335 338 340 342 344 345 346 347 348 349 349 348 346 344 341 337 336 339 340 338
306 309 303 304 300 304 311 314 317 304 308 317 319 320 319 318 319 322 325 328 331 331 332 336 338 339 343 345 347 346 346 346 350 349 349 346 344 342 337 337 338 340 338 336
306 304 304 305 301 300 315 314 310 315 317 318 320 320 321 324 326 328 330 331 333 334 335 337 339 339 342 345 347 345 344 344 345 345 344 342 342 342 339 337 338 338 339 337
304 310 305 308 306 315 317 315 318 320 320 321 322 322 324 322 324 327 328 330 331 334 334 337 337 338 340 343 346 341 337 342 343 341 339 340 342 342 342 339 339 337 337 331
312 315 309 310 313 314 315 317 318 318 317 318 320 321 322 322 327 330 332 333 333 333 333 335 333 331 331 337 340 337 338 341 341 340 339 340 340 339 339 337 336 332 330 329
310 313 310 310 312 315 316 315 315 315 316 316 317 318 318 317 319 325 330 332 333 334 334 335 334 333 330 334 335 339 339 340 338 338 337 339 339 337 326 319 324 330 331 324
305 308 309 307 315 315 315 315 315 313 313 315 315 316 319 320 320 322 324 328 331 332 332 331 333 332 331 334 335 337 338 336 336 333 333 332 331 327 324 323 315 298 299 298

GFSCGP_sfc_thetae_018.txt.gz
Theta_e
312 308 306 310 315 317 317 316 315 319 326 324 323 322 328 333 334 333 335 337 337 337 342 347 350 352 353 356 359 360 361 364 363 361 358 357 354 358 360 363 363 364 364 364
308 305 311 314 315 315 316 315 315 320 326 325 323 322 326 330 333 334 335 337 338 338 341 346 349 351 352 355 358 362 363 365 365 363 365 359 358 357 359 362 363 365 363 364
306 308 311 311 312 312 315 314 315 317 323 325 322 321 324 328 332 335 336 337 340 339 340 343 346 349 352 354 357 360 364 365 367 367 363 363 363 361 358 357 357 360 363 363
308 311 308 308 308 313 311 317 317 318 318 313 323 309 319 324 326 331 335 335 336 340 342 343 345 347 350 353 357 362 364 366 367 368 366 365 355 351 350 353 353 355 361 359
306 307 306 306 308 313 312 318 317 318 318 317 317 313 317 323 323 327 333 335 335 337 339 341 343 346 349 352 354 358 364 367 368 368 369 361 360 354 354 353 356 359 360 359
310 312 310 309 311 313 316 315 316 317 317 309 315 314 314 318 323 326 331 335 336 335 337 339 342 345 347 351 353 355 362 368 368 366 366 366 363 360 353 355 351 350 352 356
308 308 310 311 308 312 314 312 306 304 305 305 316 313 315 320 323 326 325 333 337 336 336 337 339 341 345 348 351 353 364 367 367 365 364 364 364 363 361 360 351 350 347 346
303 300 308 310 309 308 310 312 306 300 301 305 314 308 313 323 325 326 328 330 336 338 337 338 340 342 345 348 352 356 362 366 364 363 364 368 367 361 359 361 351 347 344 346
304 303 311 310 311 312 309 308 315 309 310 306 309 314 319 322 322 324 326 330 333 337 338 337 340 343 345 349 355 360 364 366 365 361 367 366 367 365 361 364 361 351 353 346
310 304 310 310 311 312 311 315 307 309 303 300 306 309 310 317 319 322 323 327 331 336 338 339 339 343 346 349 353 356 362 366 363 361 362 361 362 364 364 364 360 357 354 352
312 308 307 309 306 306 307 307 310 312 309 303 302 306 317 317 320 320 322 327 330 333 337 340 341 343 348 350 352 354 357 359 360 362 364 364 361 361 363 361 358 357 355 354
313 310 304 304 310 311 311 309 311 305 306 308 307 307 319 321 321 321 322 324 326 331 335 340 343 344 345 348 350 353 355 356 358 362 364 363 363 364 359 361 359 355 353 352
314 308 302 304 307 308 306 309 310 311 311 310 304 307 320 320 321 323 324 325 329 335 336 340 342 344 346 348 354 352 354 354 356 360 358 360 362 360 361 360 355 353 349 349
313 309 306 301 305 308 304 305 307 308 306 306 307 311 316 318 319 321 324 328 329 334 337 340 342 345 348 351 357 357 353 354 355 356 358 362 362 361 356 359 353 349 344 345
311 306 309 309 309 309 308 306 306 305 306 305 309 310 315 318 319 321 324 325 327 334 337 339 341 345 350 352 356 355 355 357 357 357 357 360 362 361 358 356 352 348 344 342
313 309 311 307 310 309 307 309 308 307 306 307 308 309 318 320 321 321 322 324 326 333 337 339 343 346 349 352 354 355 356 356 358 358 358 361 361 359 357 354 351 347 347 344
311 309 309 304 309 308 304 309 309 309 309 308 305 311 316 316 319 322 326 327 328 332 338 340 342 348 350 352 355 354 356 357 358 358 359 360 361 358 355 352 349 347 345 342
313 313 311 306 309 299 309 314 313 310 311 311 311 313 315 317 321 324 329 329 330 333 336 340 342 345 349 350 352 354 355 356 357 358 359 360 359 354 351 348 346 347 342 340
314 314 307 304 303 308 309 314 313 310 309 314 313 314 316 318 320 324 329 332 334 335 339 343 343 345 349 348 351 353 352 354 355 356 357 358 357 353 349 347 343 344 342 339
313 315 309 307 301 299 312 316 320 319 308 316 316 315 316 318 313 318 332 331 331 335 340 340 342 343 345 347 349 350 350 352 353 355 357 358 356 353 349 348 346 345 342 338
308 310 305 307 305 308 316 317 321 307 309 323 324 318 317 317 321 330 332 333 336 338 341 343 344 344 347 347 349 349 351 351 354 356 357 358 355 353 350 349 347 341 337 338
308 306 305 308 305 302 318 317 312 320 327 325 325 326 325 329 329 332 335 335 337 338 340 342 343 346 349 352 353 352 352 357 358 357 357 354 350 348 347 346 342 340 340 340
306 311 309 311 310 320 320 318 321 325 325 328 327 327 329 329 331 333 334 336 337 337 338 341 343 346 349 353 355 353 356 357 356 355 353 347 345 345 345 341 341 341 341 339
316 320 314 314 316 318 320 319 320 322 323 326 329 330 331 329 331 332 334 335 336 338 339 342 343 343 346 350 352 352 353 352 352 345 344 343 342 340 341 343 343 341 340 340
314 318 316 314 317 319 319 319 318 319 322 322 324 325 328 332 333 336 336 337 338 339 339 341 341 342 344 347 347 349 349 350 348 346 345 344 343 339 327 320 311 329 321 318
308 310 312 311 318 319 312 315 316 315 316 320 322 322 324 325 325 327 329 333 336 339 341 341 343 344 345 347 347 347 349 350 347 344 343 341 338 334 334 334 329 299 300 299

GFSCGP_sfc_thetae_021.txt.gz
Theta_e
314 309 306 311 315 317 318 317 315 319 322 322 322 323 327 332 332 330 329 332 334 335 342 345 347 348 349 352 355 357 361 370 363 358 358 358 355 357 356 359 362 367 365 363
310 306 312 315 316 315 316 316 316 319 322 322 321 321 327 331 332 333 332 331 333 335 338 342 346 347 349 352 356 363 365 371 367 362 363 361 359 353 355 361 369 364 362 364
308 309 313 313 313 313 314 315 316 316 322 324 321 319 322 328 333 334 334 334 335 334 335 339 344 347 349 351 355 364 370 372 371 371 366 363 362 358 355 352 355 361 361 362
310 313 310 310 311 314 311 318 318 317 316 313 321 311 320 324 326 331 334 335 334 336 337 338 342 346 348 351 356 365 370 373 371 375 366 368 357 351 349 351 353 353 356 356
309 309 309 308 310 315 312 319 318 317 316 316 315 312 316 323 321 325 331 334 336 336 337 337 340 345 348 351 354 359 371 374 374 374 371 362 362 352 352 351 363 362 364 357
312 315 313 311 313 314 316 317 317 317 315 307 315 312 315 316 322 325 329 333 337 337 338 340 342 344 346 350 352 355 368 374 376 374 373 373 372 362 354 355 352 349 351 352
310 310 313 313 309 314 313 312 306 305 306 305 317 313 317 322 325 327 327 329 335 339 337 338 340 341 345 349 353 355 367 372 375 372 371 370 372 371 366 362 352 355 347 349
305 303 310 312 310 309 310 311 306 301 303 306 315 310 316 326 327 329 329 329 332 338 339 337 339 341 344 348 356 358 364 370 373 372 373 374 374 361 359 363 355 348 346 349
306 306 314 313 313 311 310 308 315 309 311 307 311 315 320 324 325 326 326 326 327 335 339 338 339 339 341 348 355 359 363 369 372 370 375 373 372 371 361 367 367 355 360 348
311 306 312 312 313 312 310 315 308 311 304 303 308 310 312 319 321 323 324 325 327 331 337 339 339 340 344 345 352 359 363 369 371 371 372 370 371 372 372 371 370 365 363 357
312 310 309 313 309 307 307 308 311 312 310 304 303 309 320 321 323 322 324 326 327 329 335 339 340 341 345 345 347 353 360 366 368 369 370 370 369 368 371 367 368 367 366 363
313 310 306 309 314 314 311 309 310 310 308 310 308 309 321 322 323 324 325 326 328 329 331 336 340 341 343 347 346 349 354 356 364 367 371 370 371 368 367 367 368 368 364 363
313 308 304 306 310 312 309 310 310 311 313 311 306 308 322 323 323 324 324 325 327 329 330 332 338 341 346 349 352 351 354 352 357 364 365 368 369 368 366 368 369 367 364 356
317 310 307 304 307 310 306 307 309 309 307 308 309 312 318 320 321 323 324 326 327 328 334 337 336 340 347 351 355 357 355 354 356 358 360 366 369 369 367 369 369 368 363 358
314 308 310 310 311 311 309 307 307 306 309 306 310 311 316 320 322 324 325 326 326 327 330 338 338 339 352 354 358 359 360 361 359 362 363 366 371 371 371 368 368 368 361 359
314 308 311 308 310 310 308 310 309 308 308 308 310 310 319 322 324 324 324 325 325 326 327 335 341 343 351 355 359 361 361 362 363 366 365 369 372 370 370 368 367 365 361 355
310 309 307 304 309 309 305 309 310 311 312 310 306 311 317 318 321 324 329 326 326 327 331 329 341 346 354 354 360 360 364 364 365 367 367 370 372 370 369 367 365 362 357 353
310 311 309 305 308 299 310 316 314 312 313 315 314 315 316 317 320 325 328 329 329 329 331 332 339 344 350 352 354 361 359 365 367 367 368 370 372 370 367 362 361 358 354 353
314 310 306 303 304 308 311 315 314 313 313 316 315 317 318 318 318 321 325 328 330 333 335 334 339 344 351 354 360 364 362 361 363 363 367 368 368 368 365 359 357 354 352 350
313 316 310 307 302 300 310 319 322 321 308 318 320 320 318 318 311 318 327 325 327 332 334 336 339 344 348 356 355 360 361 362 362 364 364 368 369 366 360 358 357 355 351 348
304 306 305 306 305 308 319 319 322 308 311 327 327 326 326 322 320 324 326 329 330 334 336 344 347 345 358 359 359 360 359 357 360 359 360 363 363 364 361 355 356 351 345 345
302 303 303 307 304 301 322 321 314 323 328 328 329 329 327 329 327 324 334 335 336 337 339 343 344 348 353 360 361 360 359 364 365 364 363 363 363 358 356 355 353 346 346 342
304 309 307 309 309 324 324 324 326 327 327 329 331 330 330 330 330 333 335 337 339 341 343 345 348 353 352 359 362 359 367 368 365 362 360 359 358 355 355 351 344 339 343 340
313 316 313 316 320 320 322 323 325 327 326 331 332 333 332 333 336 337 338 339 340 342 344 346 347 349 351 361 362 362 363 362 362 357 352 350 347 348 348 343 342 340 340 340
307 313 312 318 320 320 321 322 323 324 326 328 332 334 334 335 333 335 336 337 338 340 341 343 344 346 348 352 353 356 357 358 353 349 345 344 342 344 338 328 334 343 329 326
307 307 306 315 321 321 318 320 322 322 323 325 325 327 328 329 331 332 334 339 338 337 339 340 344 347 349 351 351 354 355 354 350 347 345 344 341 341 341 336 328 301 302 299

GFSCGP_sfc_thetae_024.txt.gz
Theta_e
315 309 305 309 311 313 313 313 313 317 321 319 320 321 321 327 327 325 328 329 331 334 339 343 344 347 348 352 357 359 362 367 367 364 359 359 358 361 360 363 358 363 369 369
310 305 310 313 313 312 313 312 314 318 322 322 319 322 324 329 328 327 327 329 330 333 337 342 345 346 347 351 355 360 361 369 366 363 364 361 358 359 357 360 368 365 366 367
306 309 312 310 310 311 311 311 313 315 319 321 318 316 319 327 330 331 331 330 331 332 333 340 343 345 347 350 356 359 362 366 364 368 363 364 366 369 360 361 359 363 366 367
309 312 310 308 308 312 308 315 315 314 315 309 319 308 319 323 326 327 329 330 330 332 335 336 341 345 346 350 357 361 364 364 368 364 364 362 355 355 358 361 359 363 364 364
308 309 308 307 308 313 311 316 315 314 313 315 316 310 316 322 322 326 328 330 331 334 334 334 339 344 347 351 354 361 365 366 366 367 366 364 363 354 360 360 363 364 364 365
311 315 312 311 312 313 316 314 314 314 313 306 314 311 314 318 319 323 329 330 334 334 336 337 339 344 346 350 353 357 364 365 367 367 366 366 362 359 360 363 356 356 356 360
309 309 313 313 309 312 311 309 304 303 305 304 315 313 316 323 325 325 325 327 334 337 336 337 338 340 346 348 351 356 363 364 367 367 367 365 366 364 364 370 356 353 350 350
304 302 309 313 310 307 308 308 304 299 301 304 313 308 316 326 327 326 326 328 333 335 338 339 341 341 346 348 351 355 362 364 367 366 368 368 366 366 363 364 361 355 353 354
305 305 313 313 313 311 308 305 311 306 309 306 309 314 319 325 323 327 326 328 328 335 338 339 341 343 345 348 351 354 362 364 367 368 367 369 367 365 362 364 363 361 357 363
310 305 312 313 314 312 309 312 304 305 300 301 307 310 312 320 320 325 325 326 328 332 336 339 339 342 345 349 352 355 359 364 367 368 368 367 368 366 364 365 364 358 365 362
310 309 308 313 309 308 307 305 307 308 307 303 302 308 321 323 326 325 326 327 328 328 334 338 339 341 344 347 350 353 356 363 366 367 368 368 367 368 365 363 363 361 362 361
312 308 305 307 314 314 311 307 307 302 305 307 308 309 321 323 325 328 327 328 329 330 331 336 340 341 342 343 347 350 354 356 363 366 367 367 368 368 366 362 365 365 361 364
314 307 303 304 309 313 309 309 309 307 307 307 304 307 321 326 322 324 327 328 330 331 336 337 337 340 342 343 345 348 351 354 361 364 364 366 366 365 364 365 362 364 363 359
316 309 306 302 306 310 308 308 309 307 303 305 308 312 317 321 323 325 327 328 331 339 341 339 343 339 342 344 346 347 349 353 356 362 362 363 365 365 364 364 364 363 364 359
312 308 310 308 309 311 310 308 308 307 308 305 308 312 317 320 323 326 329 332 332 336 337 344 339 347 346 346 347 348 350 352 355 358 360 362 366 366 366 364 364 363 365 361
314 307 309 307 309 309 308 309 309 309 308 309 309 309 319 323 325 326 323 325 329 332 335 342 345 347 354 351 350 349 351 352 355 355 358 362 364 367 365 364 364 364 364 362
310 308 308 303 308 308 303 309 310 309 310 309 306 312 319 319 320 324 332 331 330 330 332 334 344 347 350 356 355 351 352 357 356 359 359 361 363 365 365 365 363 363 362 360
311 309 308 305 308 297 309 315 313 311 312 312 313 315 317 318 320 322 326 327 329 333 333 338 333 344 351 351 354 360 356 358 360 359 362 364 365 365 365 364 363 361 363 360
313 311 304 302 302 306 308 312 312 310 312 317 314 318 318 320 320 320 324 325 328 331 337 337 334 332 348 349 356 359 360 358 359 359 366 364 367 367 365 364 362 362 360 357
309 315 308 304 300 298 311 314 320 320 308 320 322 320 320 322 315 321 326 325 326 328 331 337 334 333 339 352 354 359 358 360 358 361 362 368 370 367 366 365 363 363 358 353
303 306 303 303 302 305 318 320 322 308 312 326 326 326 325 322 327 334 333 333 327 331 329 335 350 349 353 355 356 358 359 359 362 365 366 369 368 368 368 364 361 358 354 351
302 301 302 306 303 300 321 319 312 322 328 327 328 328 328 330 332 332 332 334 338 342 337 342 352 363 361 360 364 360 360 365 368 366 366 367 368 364 362 359 354 354 350 346
300 305 304 309 308 322 325 324 328 329 328 328 327 328 329 328 329 330 336 339 337 340 346 345 354 362 365 371 365 361 366 366 365 363 363 364 364 362 359 354 349 346 346 340
309 313 304 310 319 322 324 326 327 328 328 334 334 333 334 330 335 337 338 339 341 348 349 353 353 354 357 364 364 365 363 365 363 363 361 358 351 349 348 344 342 341 340 339
311 312 312 311 322 321 322 324 325 328 331 331 331 334 333 335 336 338 339 342 344 347 349 353 353 354 359 363 362 364 363 362 358 353 351 350 347 345 333 320 325 340 324 326
309 310 309 312 316 319 322 325 326 323 324 327 327 328 330 328 327 328 334 340 341 341 345 344 343 346 351 353 354 358 360 355 350 345 344 342 343 339 332 326 319 301 302 300

GFSCGP_sfc_thetae_027.txt.gz
Theta_e
307 301 300 302 304 305 306 305 305 309 318 316 315 315 318 320 321 322 326 327 329 330 333 337 339 343 344 347 349 346 348 353 354 353 352 351 348 352 352 354 356 355 356 356
303 300 306 309 308 306 305 304 305 310 317 315 318 316 318 319 319 322 324 327 328 330 331 336 337 340 343 345 348 348 349 356 354 354 352 351 348 351 351 351 352 353 357 355
301 304 311 308 306 305 304 303 305 307 315 318 317 315 314 319 322 324 325 327 329 329 330 334 336 338 341 343 348 349 351 356 355 355 355 353 352 353 353 351 352 358 357 357
304 309 308 305 304 305 300 309 309 309 310 305 317 305 313 317 320 323 323 324 326 329 331 333 336 337 340 344 349 350 352 357 354 356 351 348 345 344 348 352 350 353 356 355
303 306 305 303 304 306 304 310 309 309 306 309 310 305 309 319 317 320 322 324 325 327 330 333 336 338 341 345 348 352 352 356 354 352 354 351 348 348 346 344 350 353 352 353
305 311 309 306 308 308 309 307 307 307 305 298 307 306 306 310 318 320 323 325 326 327 329 332 336 339 340 345 350 353 352 352 357 352 353 353 351 347 341 347 349 351 347 348
305 305 308 311 303 306 305 299 296 294 296 295 308 307 308 316 320 324 325 325 326 328 328 329 334 337 339 342 347 352 352 352 355 356 356 355 354 351 347 347 345 344 343 343
298 296 305 309 305 300 301 300 296 289 292 296 303 302 309 320 323 327 326 326 325 329 329 329 331 336 339 341 346 353 353 352 356 356 355 356 355 358 351 351 347 342 346 344
299 299 309 309 310 306 300 298 301 294 297 295 300 304 311 320 320 322 322 324 325 326 330 330 331 335 339 340 345 348 355 354 356 358 357 357 355 355 357 352 352 347 344 347
302 297 307 309 310 308 304 302 296 298 290 291 298 300 303 311 317 319 320 321 323 327 327 331 332 334 339 342 345 349 356 355 358 356 360 360 358 356 356 354 351 351 345 348
304 301 302 307 304 302 299 300 297 297 298 292 292 298 307 315 319 319 321 324 325 326 330 331 334 335 340 342 344 347 354 356 358 359 357 359 360 359 356 356 353 351 350 349
306 301 297 301 308 309 307 301 297 294 290 295 295 298 312 313 321 322 322 323 324 326 329 333 335 336 338 341 343 346 355 355 358 360 360 358 359 361 357 354 354 355 349 351
307 301 294 297 302 306 304 305 302 301 296 295 293 298 311 312 320 321 319 322 325 324 323 333 333 335 337 341 342 345 351 356 359 360 361 360 359 359 359 356 356 356 353 351
316 304 299 295 298 301 301 304 304 301 295 294 297 298 306 310 315 318 321 323 322 324 322 326 333 334 337 340 343 344 347 355 358 360 359 359 359 360 360 360 356 356 356 352
301 299 303 303 304 305 305 305 305 301 301 295 298 299 304 308 315 317 319 320 321 325 325 325 332 333 335 336 340 344 347 348 356 358 358 357 359 361 360 360 359 355 355 354
299 297 303 301 304 304 302 305 306 305 304 303 302 301 306 310 319 320 320 321 320 321 329 328 329 334 335 335 338 341 344 347 350 354 355 357 357 359 359 359 358 358 354 356
296 295 298 296 302 302 297 302 304 306 307 305 300 304 308 308 313 317 321 319 319 319 328 329 329 335 336 337 338 339 342 345 347 349 354 355 356 357 358 358 357 356 355 356
297 296 298 295 299 293 302 308 309 307 309 308 306 307 309 310 312 314 315 316 316 321 324 326 334 334 338 341 340 341 342 344 345 347 350 354 355 356 358 358 356 356 357 356
303 298 296 294 295 299 305 307 307 304 304 311 307 308 310 312 311 308 317 316 315 318 317 323 328 335 339 342 345 342 342 345 345 347 348 352 355 356 358 357 357 356 356 353
302 302 298 296 293 292 301 310 313 316 302 319 319 318 318 316 307 312 323 325 324 322 319 322 326 326 338 337 349 345 343 345 345 346 351 353 355 356 358 358 357 356 355 354
297 300 297 297 294 298 308 314 314 303 305 321 322 321 320 315 319 323 325 323 324 326 322 320 324 324 327 339 350 348 346 344 350 352 354 357 358 359 360 358 358 356 352 349
297 294 295 298 294 293 318 316 309 316 320 322 322 321 321 320 321 321 323 324 323 327 335 329 324 331 338 341 349 348 349 351 351 357 358 361 361 361 360 358 354 350 347 347
296 300 299 302 304 316 319 319 322 325 322 322 320 327 321 322 324 333 331 332 332 334 343 350 350 352 355 352 350 349 354 358 358 358 358 359 358 358 355 350 347 345 341 341
306 310 305 307 313 314 316 321 323 329 328 329 331 332 330 328 331 331 332 337 340 342 342 345 348 349 351 355 357 357 357 357 357 356 353 349 348 346 345 345 344 340 338 337
306 307 306 307 313 317 321 320 322 327 329 326 325 325 324 325 325 329 331 334 339 341 344 348 350 350 351 354 355 356 356 356 352 347 344 343 339 330 321 311 319 333 318 329
306 302 305 306 310 311 309 314 323 324 325 324 322 322 324 323 322 324 325 332 336 339 341 340 342 345 346 349 348 348 349 348 344 340 341 336 332 327 323 319 313 302 301 300

GFSCGP_sfc_thetae_030.txt.gz
Theta_e
304 298 298 300 300 301 300 299 299 304 309 315 313 313 316 325 327 327 328 329 330 331 335 335 342 344 342 345 347 347 347 347 347 348 347 346 345 348 350 348 352 354 353 356
298 297 302 305 304 302 301 299 300 303 308 313 313 314 316 321 324 326 327 328 329 331 332 334 338 341 342 342 345 345 347 348 348 349 349 348 347 349 349 349 353 352 353 353
297 300 306 305 303 302 301 299 300 301 306 315 314 311 313 318 321 325 327 329 329 329 329 332 334 339 341 340 344 344 347 349 350 351 350 348 347 348 347 347 348 349 354 353
299 305 304 303 302 303 295 305 304 304 301 302 312 300 311 315 314 317 323 326 327 329 330 332 334 337 339 341 345 344 346 351 351 352 350 348 345 342 344 348 351 350 354 353
300 303 303 302 303 306 300 305 304 304 300 300 306 301 305 314 313 314 319 324 327 329 330 330 334 336 340 342 344 346 346 351 352 352 350 349 345 346 345 344 346 348 351 352
304 308 306 305 307 307 307 301 300 299 298 295 301 305 301 310 314 317 321 322 327 328 330 331 335 336 338 342 344 346 346 350 352 352 350 348 346 344 342 341 344 347 350 349
302 303 304 308 301 303 302 293 289 289 290 291 300 301 306 313 319 321 321 322 325 328 329 330 332 334 336 339 342 346 346 348 350 352 350 349 347 347 343 341 345 345 345 343
296 294 302 305 303 300 296 297 291 285 286 290 297 297 306 315 320 324 325 326 325 325 328 330 332 335 336 338 343 346 345 346 349 348 350 351 350 349 349 344 346 348 347 345
293 296 305 307 306 305 297 293 298 290 291 290 294 300 307 315 316 323 324 325 324 325 326 329 332 335 336 338 342 346 346 345 350 350 349 349 351 351 351 348 344 344 344 343
297 292 302 307 307 306 302 299 292 287 287 287 291 295 299 305 313 316 322 324 325 325 326 328 329 333 337 338 342 347 348 346 348 352 352 351 350 351 353 350 347 343 343 344
302 295 297 301 301 300 299 296 294 293 292 290 286 294 302 304 309 314 321 324 324 325 326 328 329 332 336 339 342 347 348 347 349 351 352 351 352 350 350 353 350 348 343 344
300 297 294 297 303 306 305 300 295 293 288 290 294 295 305 306 311 318 320 323 325 326 325 329 330 330 333 338 340 344 350 349 351 353 353 352 353 353 351 350 353 350 348 345
300 294 291 292 298 302 298 301 301 291 291 293 290 293 304 303 312 317 318 320 323 322 322 325 327 329 332 336 339 343 349 351 352 353 353 354 354 354 353 352 351 352 349 347
300 295 293 293 294 298 295 301 300 298 295 293 295 293 298 302 310 316 319 321 321 322 322 323 326 330 332 336 338 342 346 352 353 354 353 352 353 356 356 354 352 351 352 346
294 287 292 296 300 302 301 301 302 297 299 295 297 296 298 300 308 314 319 321 321 321 322 323 325 330 332 336 338 341 345 351 353 354 354 353 354 355 357 356 354 352 351 352
293 288 291 294 301 302 300 302 303 302 301 300 296 296 301 304 306 311 316 318 318 316 320 320 326 330 333 336 338 341 343 350 353 353 354 356 356 355 355 356 356 353 352 351
290 289 289 287 297 299 296 301 302 302 304 302 297 299 303 304 309 311 315 316 318 317 318 322 326 330 334 336 339 340 343 348 352 352 354 355 355 355 356 356 356 355 352 351
292 291 289 288 291 289 300 306 306 302 303 305 303 303 305 306 306 313 313 316 318 317 319 324 327 329 334 336 339 342 343 345 350 351 353 354 355 354 356 356 355 355 355 351
298 295 290 287 289 295 302 302 303 299 300 307 304 306 307 308 308 314 316 312 309 314 316 320 327 331 331 334 336 339 340 343 344 348 350 353 354 353 355 354 354 354 355 353
298 298 294 292 288 289 298 306 311 308 297 316 308 308 310 307 300 306 319 320 319 319 317 315 324 331 336 337 335 336 337 340 342 344 346 352 353 354 353 355 355 355 355 353
297 296 292 292 291 295 305 310 310 298 299 317 316 314 313 311 309 317 321 319 319 326 324 318 314 320 333 338 338 335 336 337 341 345 346 347 352 353 354 356 357 355 354 353
295 294 294 295 293 290 313 314 301 306 316 318 317 316 317 317 323 323 324 321 320 322 331 327 319 316 318 334 342 337 336 340 342 342 343 346 350 353 354 357 356 354 353 349
293 298 297 299 300 308 310 317 323 325 323 324 324 324 328 327 328 332 335 337 338 340 342 343 337 343 343 330 343 341 341 341 344 344 346 349 351 353 357 356 354 350 348 345
303 306 302 303 306 310 310 315 323 323 322 323 325 327 329 327 330 332 335 336 338 341 343 345 345 344 344 345 343 342 345 345 348 347 354 356 356 355 356 354 352 348 343 340
303 306 303 304 309 312 313 312 317 322 323 322 322 322 323 327 326 331 332 334 337 337 339 342 344 346 346 347 347 352 353 354 353 354 353 351 347 339 322 320 333 339 327 337
304 301 302 304 309 310 309 313 316 314 315 318 319 319 321 322 321 326 326 330 334 336 338 338 338 338 341 343 342 345 349 350 348 340 338 335 330 326 324 322 316 306 305 310

GFSCGP_sfc_thetae_036.txt.gz
Theta_e
302 297 295 297 297 298 298 296 297 300 305 308 306 308 319 325 326 326 328 329 331 332 336 339 341 343 343 345 343 344 344 345 346 346 345 345 344 345 347 348 350 352 352 354
295 296 301 302 300 300 297 296 296 299 303 301 301 308 321 324 325 327 329 329 331 332 334 337 339 340 341 342 342 343 344 345 345 346 347 347 347 346 348 350 350 352 352 354
298 296 303 302 299 298 295 296 296 297 300 302 306 304 314 323 325 327 328 331 332 332 333 335 337 339 341 340 341 342 344 345 346 347 346 346 346 347 346 347 349 350 352 354
295 302 302 298 298 299 291 299 300 299 295 292 304 294 306 318 320 323 325 325 328 331 333 334 336 337 340 341 342 343 344 345 347 347 346 345 344 343 345 346 348 350 353 352
296 298 298 298 300 300 297 302 299 298 294 291 296 296 301 314 316 320 324 326 328 329 331 331 332 338 340 343 342 342 343 345 346 347 347 345 345 344 344 346 348 347 350 353
298 301 302 300 301 302 302 298 295 293 291 287 293 295 293 304 316 320 324 327 329 330 331 332 332 336 338 342 342 342 343 344 345 346 346 345 344 342 342 343 345 346 348 349
296 298 299 301 297 298 298 292 285 284 285 289 292 293 298 306 314 320 323 325 328 331 331 332 332 332 336 338 340 341 342 342 345 345 345 345 345 344 344 343 344 344 345 347
291 289 298 300 297 295 295 292 285 281 282 287 291 290 295 306 315 318 322 325 326 328 331 332 333 333 333 338 340 340 341 341 344 345 345 346 347 346 346 345 345 345 346 348
290 291 300 301 301 301 292 292 294 286 286 284 288 294 302 306 307 315 317 319 320 324 329 330 332 333 333 335 339 339 341 342 343 345 346 347 348 347 346 346 346 346 348 349
293 290 298 301 302 301 296 297 290 284 282 281 285 289 293 301 305 308 311 317 320 322 325 329 331 332 333 335 338 340 341 341 343 346 347 347 347 348 348 347 345 346 347 349
292 291 292 298 297 297 293 291 288 291 286 284 282 288 297 302 305 307 310 315 319 321 323 326 329 332 333 334 336 339 340 341 342 346 347 347 347 348 348 347 347 346 347 348
295 286 289 292 297 302 302 295 290 287 285 287 285 289 300 302 306 308 309 313 318 322 324 325 328 331 332 332 334 337 339 341 342 345 347 347 348 348 347 347 348 348 346 346
295 287 283 287 294 295 295 297 296 294 287 289 287 290 301 301 303 305 309 312 318 321 322 324 326 328 330 332 334 335 338 340 342 344 345 346 347 347 347 348 349 348 346 345
296 287 285 285 287 292 290 295 296 296 292 292 292 293 297 299 301 304 306 310 312 316 321 323 324 327 329 331 333 335 338 341 342 343 344 344 346 347 347 349 350 350 348 345
291 285 287 290 293 294 294 294 295 294 296 293 295 295 297 299 301 304 305 310 315 317 319 321 323 325 327 330 333 335 338 341 343 343 343 344 346 347 347 347 348 350 350 348
288 285 287 288 294 294 292 295 296 296 296 296 297 295 300 303 302 303 306 308 312 316 319 321 324 326 325 328 332 335 337 341 343 343 342 345 346 347 347 348 347 347 349 350
286 285 285 283 290 291 289 294 296 296 298 297 294 298 301 300 301 303 305 305 307 312 318 319 321 324 326 327 332 334 337 342 343 343 343 344 346 346 347 348 348 347 346 348
285 284 285 283 286 281 292 298 300 298 300 300 299 302 303 304 305 305 306 308 307 308 315 319 321 324 327 329 330 334 337 340 343 343 344 345 346 346 348 348 348 348 348 347
291 286 283 282 283 289 293 300 303 300 298 303 301 302 303 305 305 304 306 306 308 310 313 318 322 324 325 327 330 334 336 339 343 344 344 346 348 347 347 348 349 350 350 349
290 291 286 283 282 282 294 305 311 310 296 304 305 304 304 302 298 304 309 313 312 313 316 317 319 322 322 325 329 333 334 337 340 345 346 348 349 348 348 348 349 351 352 351
283 285 283 284 285 289 297 309 315 296 297 313 315 315 304 302 307 309 311 316 314 313 313 316 321 325 326 328 332 332 334 336 340 344 348 349 350 350 350 350 351 351 351 352
283 283 283 284 284 282 307 308 304 306 312 316 316 318 317 304 306 312 317 317 317 323 325 320 315 317 324 330 334 334 334 339 342 344 347 348 350 351 352 351 351 351 351 351
284 289 288 288 287 298 308 308 312 314 314 316 318 320 320 310 312 318 322 330 335 337 339 337 337 340 343 335 331 330 333 337 339 341 342 348 350 352 353 352 352 351 352 351
292 294 293 294 297 301 308 313 314 315 315 317 320 322 323 324 328 331 334 335 335 336 337 339 341 341 342 344 343 342 346 341 335 336 338 341 344 347 352 353 352 352 351 351
290 291 289 294 298 305 311 311 313 316 318 318 323 325 331 333 332 334 334 335 334 335 337 339 339 338 341 343 344 345 346 341 335 336 337 340 340 327 324 322 320 329 320 331
292 290 289 291 299 303 307 311 316 316 316 320 322 325 327 330 328 330 328 330 331 330 333 333 333 333 334 337 339 340 340 343 337 332 330 329 328 329 330 330 325 309 311 310

GFSCGP_sfc_thetae_039.txt.gz
Theta_e
309 304 301 304 305 306 304 304 305 309 311 311 313 317 320 327 331 332 332 332 333 334 339 343 345 347 349 351 352 353 353 357 354 352 349 349 346 350 353 357 361 362 363 364
303 300 305 307 305 303 303 302 304 308 308 308 310 311 316 325 328 331 333 333 333 335 338 341 344 346 348 350 352 354 355 357 355 353 354 352 353 352 356 359 361 362 362 364
301 303 307 305 304 303 302 301 304 304 306 308 309 308 314 325 329 332 334 336 336 336 336 339 342 344 347 348 351 354 357 358 357 358 355 355 355 356 354 355 357 360 361 363
302 307 304 303 302 304 300 305 304 303 303 301 310 302 311 319 325 328 331 334 335 337 339 340 341 344 346 349 351 354 356 358 357 359 355 356 349 348 351 354 357 358 362 362
301 302 302 302 302 306 302 306 305 305 304 303 304 302 308 318 320 325 329 332 335 337 339 339 341 344 347 349 349 352 356 358 359 359 359 354 353 352 354 355 360 363 364 363
304 306 306 305 307 307 308 305 304 303 303 296 303 302 305 310 319 324 329 332 333 336 338 341 343 345 346 348 349 350 354 356 358 358 358 358 357 356 352 354 353 354 356 357
302 302 306 308 304 306 306 302 295 293 294 294 305 301 304 312 319 321 327 331 333 335 336 339 340 341 346 347 349 351 354 354 357 357 358 358 358 359 358 358 353 355 352 354
297 294 302 306 305 302 303 302 296 290 292 295 302 298 304 313 316 322 326 331 334 335 337 337 341 341 342 347 350 352 352 353 355 356 357 359 360 356 356 357 354 353 353 354
298 298 304 305 307 307 302 299 305 298 296 295 299 304 309 312 313 319 323 327 331 334 336 337 339 342 342 345 349 351 352 353 355 355 357 357 359 358 357 360 361 355 361 356
302 297 304 304 307 307 304 306 297 299 291 290 296 299 302 309 312 315 320 323 327 332 335 337 340 343 344 344 348 351 352 353 354 355 356 356 357 358 359 360 359 360 361 360
302 301 300 304 302 301 300 301 302 301 299 293 292 297 309 312 316 315 317 321 325 327 331 334 339 343 345 345 345 348 350 352 353 354 356 356 356 358 359 358 359 361 362 362
301 299 299 300 306 308 305 303 302 297 296 298 298 298 309 313 316 318 319 322 324 328 330 332 335 339 340 344 344 345 348 349 352 353 355 356 357 358 358 358 359 361 360 363
301 297 296 298 302 304 302 304 304 304 303 299 294 298 312 312 312 315 316 319 322 327 330 332 333 336 340 342 344 344 346 347 350 353 353 355 356 357 357 358 359 361 360 361
301 297 297 296 298 299 298 301 304 303 299 299 299 302 307 310 311 315 316 319 321 327 330 332 334 336 340 342 343 344 346 347 349 351 352 354 356 356 357 358 359 360 360 360
298 293 294 295 296 296 297 298 299 299 302 300 302 304 306 310 312 316 319 321 320 322 325 330 334 337 341 343 345 345 346 349 350 351 350 352 356 357 358 358 359 359 360 359
297 292 295 292 295 296 295 298 299 299 300 301 302 302 310 313 315 315 318 319 318 320 323 330 334 337 340 342 343 344 346 347 350 351 350 353 355 357 357 357 358 359 359 360
292 292 291 288 294 294 292 298 299 300 302 302 299 305 311 310 312 314 319 321 321 323 326 329 334 337 341 341 344 343 346 349 350 351 352 354 355 355 356 357 358 358 358 360
291 292 294 289 292 285 298 304 303 302 304 305 305 307 310 312 315 318 321 320 322 323 325 326 327 332 339 339 339 345 346 348 350 351 352 354 355 354 356 357 356 357 357 357
294 292 289 286 288 293 295 300 303 304 304 312 308 308 310 312 314 317 320 321 322 325 328 328 326 328 338 341 342 345 347 348 350 350 352 353 354 355 356 355 355 356 356 356
293 293 289 288 284 284 297 303 307 310 299 313 317 316 312 312 306 311 323 321 321 321 324 326 327 329 332 341 339 344 345 348 348 351 352 355 356 354 355 355 356 358 358 357
288 288 285 286 286 290 300 304 317 299 303 317 320 321 321 318 315 323 324 324 324 327 327 328 331 331 336 337 344 343 345 346 349 352 353 357 358 358 358 357 358 354 356 359
288 287 286 286 284 282 301 304 299 311 318 319 321 323 323 325 327 328 327 322 326 327 328 327 330 334 338 341 346 347 347 350 351 352 354 358 359 356 354 358 354 352 352 355
287 291 291 291 290 299 303 304 309 314 315 317 322 324 326 325 326 329 327 325 333 339 339 330 340 344 345 342 346 345 349 351 351 351 354 356 358 357 360 357 349 353 351 351
294 299 294 294 296 299 302 307 310 312 318 322 324 325 326 325 329 332 327 335 343 344 341 346 348 345 345 348 349 349 350 351 353 353 354 356 356 356 358 357 357 354 354 353
293 296 294 293 296 299 301 305 310 310 318 321 325 327 326 331 335 332 334 339 341 342 343 345 348 347 349 351 348 354 355 353 348 349 350 352 348 342 337 335 345 345 334 347
294 293 291 290 298 299 303 309 313 313 317 321 325 323 330 335 334 337 335 335 337 337 338 339 340 340 340 343 344 345 347 347 343 338 339 337 337 338 341 337 328 307 307 306

GFSCGP_sfc_thetae_042.txt.gz
Theta_e
313 307 305 307 311 312 311 310 310 315 319 317 318 320 323 327 332 332 336 337 338 338 341 344 346 347 348 351 352 354 355 361 357 354 352 350 347 349 349 352 359 365 367 368
307 304 309 311 310 309 309 308 309 315 316 315 316 316 321 324 328 332 335 337 338 339 340 342 345 346 347 350 353 356 357 360 360 356 356 352 350 349 350 355 363 367 367 369
305 307 310 309 308 307 307 307 309 310 314 315 314 313 316 320 325 330 334 338 339 339 339 341 342 344 346 349 352 356 360 361 362 363 357 356 353 353 351 356 359 364 366 367
307 310 308 307 306 308 304 309 309 309 309 306 314 306 316 319 322 327 330 335 338 340 341 341 342 343 345 348 354 357 361 363 362 364 360 362 350 346 350 356 357 360 366 365
305 306 306 305 306 308 305 310 308 308 307 308 309 307 312 319 318 324 329 333 337 340 341 341 342 343 345 349 351 356 360 364 366 364 365 357 357 349 353 355 366 369 369 367
307 311 310 308 310 309 310 308 308 307 306 300 307 308 309 313 318 322 328 332 336 339 341 343 345 344 346 348 351 355 361 367 367 365 362 367 363 358 354 358 356 356 358 359
305 306 310 311 307 310 308 305 298 297 298 298 309 306 310 316 319 323 325 330 335 339 341 342 344 345 345 347 350 354 363 366 366 363 364 364 366 365 366 364 357 361 354 355
300 298 306 310 308 306 306 305 300 294 296 299 307 302 308 318 320 322 326 328 335 338 341 342 344 346 347 347 353 356 362 363 362 363 367 369 370 359 359 364 358 356 355 355
303 303 309 310 310 310 306 303 308 302 304 300 304 307 313 316 318 320 321 324 328 335 339 341 344 346 348 350 355 359 362 365 366 363 368 369 368 367 360 368 369 360 367 357
309 303 308 308 311 311 309 310 301 303 296 295 301 303 305 311 314 318 319 323 327 332 338 340 342 345 347 350 354 358 363 365 365 362 365 364 367 369 369 369 369 369 368 366
308 307 306 308 305 305 306 305 306 306 303 298 297 302 313 313 317 317 320 324 328 332 336 340 342 344 347 349 350 354 358 362 362 363 365 366 366 365 367 365 369 370 370 372
309 307 304 304 309 311 310 307 307 301 301 303 303 304 313 314 316 320 321 324 328 331 334 337 339 343 345 347 349 350 353 355 358 362 366 366 368 367 365 367 368 370 371 371
308 303 300 303 306 309 306 308 308 307 307 304 300 303 315 316 315 319 321 323 326 329 332 334 336 338 343 346 352 349 350 352 355 360 359 362 365 365 366 368 368 369 370 371
304 305 304 301 304 307 304 306 307 306 303 304 304 306 311 312 314 318 319 321 323 326 330 332 334 337 340 346 353 356 351 351 352 354 356 361 365 366 366 368 369 370 371 371
303 301 303 306 302 302 306 305 306 305 307 303 307 308 312 314 315 317 319 320 321 324 328 332 335 336 339 343 353 356 353 356 354 359 358 360 365 367 368 368 369 370 370 370
302 299 300 300 302 301 300 304 305 307 308 308 308 309 316 317 318 318 319 319 320 321 324 328 334 338 341 345 348 351 354 355 357 359 358 362 365 367 368 368 369 370 369 370
297 297 297 296 302 301 297 302 304 306 308 308 305 311 315 315 315 317 319 321 321 323 324 326 332 337 341 342 347 349 355 355 357 359 361 363 365 366 367 367 368 369 369 369
296 296 297 296 299 290 303 311 309 306 308 310 310 312 314 316 318 320 322 322 322 323 325 327 328 331 339 342 340 349 350 357 358 359 361 363 364 365 367 368 367 368 368 368
299 296 294 292 293 299 302 303 304 305 306 311 311 313 314 316 316 317 320 322 324 326 327 329 329 329 332 334 339 345 350 351 354 359 360 362 364 364 366 365 366 365 365 363
297 297 294 294 290 290 301 307 309 309 301 313 314 317 318 318 309 314 322 323 325 326 327 327 329 330 331 334 337 341 348 353 356 358 360 362 364 366 365 365 365 364 363 361
291 292 289 290 290 296 304 307 314 299 309 320 319 321 322 322 324 330 332 331 332 332 331 332 332 332 338 339 343 346 348 350 357 356 357 361 364 368 365 367 367 366 364 364
292 290 289 291 289 287 303 303 300 310 314 316 318 319 320 323 326 327 330 333 335 335 333 329 333 334 338 346 347 355 355 358 360 359 356 360 364 360 358 367 366 366 366 364
290 294 293 294 293 302 304 304 309 311 310 312 314 319 321 322 324 327 329 333 337 338 334 336 338 338 346 349 351 351 362 363 358 358 360 361 364 362 365 363 363 359 361 356
296 299 295 296 299 301 304 307 309 309 309 311 314 315 318 319 323 327 330 335 340 337 342 346 344 346 349 353 354 355 358 360 359 357 359 361 361 360 361 359 360 357 356 355
297 299 296 296 300 302 303 306 307 308 308 308 311 314 318 319 321 328 329 339 341 340 347 349 350 350 354 354 356 356 357 358 356 357 358 359 359 359 360 360 349 357 362 342
298 296 293 293 301 301 303 306 308 309 312 313 314 316 319 322 323 327 334 343 344 345 347 351 352 349 350 348 348 359 361 358 357 356 354 353 355 357 357 354 341 306 305 301

GFSCGP_sfc_thetae_045.txt.gz
Theta_e
320 314 311 312 317 317 314 312 312 317 322 320 320 320 324 330 332 331 335 338 338 338 341 343 345 345 346 349 351 357 359 366 360 354 352 351 347 350 349 350 359 361 363 366
313 310 314 315 314 315 314 312 312 316 320 320 319 320 325 326 330 332 333 337 338 339 340 341 343 344 345 348 354 360 362 368 365 357 358 353 354 348 348 350 362 362 364 369
308 312 315 311 310 310 313 311 312 312 317 321 318 317 319 325 327 332 332 339 339 340 340 340 341 343 344 347 354 358 364 367 366 365 360 360 357 354 348 350 353 361 365 366
310 313 310 309 308 310 306 313 313 312 312 309 317 307 317 321 322 326 329 334 337 340 342 342 341 342 343 346 351 360 366 368 367 369 360 361 349 345 346 350 352 359 367 366
308 309 309 308 308 311 308 313 312 312 311 312 312 310 315 320 318 322 327 329 336 339 342 342 342 342 344 345 347 355 366 369 368 368 366 358 357 349 349 350 364 366 372 369
312 315 313 311 312 312 313 310 310 310 309 303 310 311 312 315 320 322 327 330 332 338 341 343 344 343 343 344 346 351 365 370 371 371 368 369 362 358 348 354 353 354 355 361
308 310 313 314 309 312 310 307 300 299 300 300 310 308 312 319 321 324 325 329 332 338 340 342 343 342 344 345 349 352 364 369 371 370 368 366 369 367 365 366 355 359 352 353
303 300 310 312 310 308 308 307 301 296 297 301 309 305 311 320 323 325 328 329 332 335 340 342 344 344 344 347 352 355 363 367 371 370 370 371 371 360 358 362 357 355 354 354
304 304 312 312 312 312 308 305 310 305 306 303 305 310 315 319 320 322 323 327 330 333 338 341 344 345 345 348 354 356 362 368 370 370 371 372 372 369 362 364 368 360 367 356
310 305 311 311 313 312 311 312 303 305 299 299 304 306 307 313 316 320 321 324 328 333 337 340 343 346 348 348 353 358 362 367 369 369 371 371 372 373 370 369 370 367 368 372
311 310 310 312 308 307 307 308 308 308 306 301 300 305 315 316 318 318 321 324 326 329 335 338 342 345 349 350 350 355 360 363 368 369 370 371 371 372 374 370 370 371 374 377
312 309 306 308 312 313 312 309 309 304 304 305 306 307 317 318 318 320 321 324 326 330 333 337 341 344 346 350 350 352 356 358 366 368 369 370 372 373 371 371 371 374 373 376
312 307 303 306 309 311 309 310 311 310 309 306 302 306 318 317 318 321 321 324 328 331 333 335 339 342 344 347 354 354 356 355 358 365 365 368 370 371 370 371 373 373 374 374
308 307 306 304 307 309 306 308 310 310 306 306 307 309 313 315 316 320 322 325 327 331 333 335 337 340 344 348 355 357 354 354 357 360 362 366 370 370 370 372 374 374 375 374
307 304 307 309 311 310 309 308 309 307 309 306 309 310 314 316 318 320 323 324 324 326 328 331 333 336 340 348 356 359 356 359 357 361 363 365 370 373 373 372 372 374 374 374
307 301 307 306 310 307 306 309 309 309 309 310 310 311 319 320 320 320 321 321 321 322 327 329 332 336 338 343 354 357 360 358 361 362 362 366 369 372 372 373 372 374 373 374
301 302 304 301 307 306 302 307 309 310 312 311 308 314 319 318 318 319 321 322 321 324 325 326 328 333 339 341 348 352 359 362 362 361 366 366 368 368 372 373 373 372 372 374
298 300 301 299 304 296 307 314 312 310 312 314 314 316 318 319 320 322 324 323 324 325 326 327 328 330 335 338 341 350 349 362 363 364 361 368 368 369 371 372 372 373 373 373
301 299 297 296 299 304 307 310 310 308 308 314 314 315 316 318 319 320 323 324 325 326 327 328 329 329 332 332 340 344 349 354 361 362 364 363 369 369 370 370 372 373 372 372
300 301 296 298 295 296 306 310 312 313 304 315 315 315 316 318 312 316 324 327 330 332 334 335 333 330 331 334 333 337 341 357 360 362 365 368 370 370 369 371 372 373 372 371
294 295 293 294 294 300 308 312 313 301 310 320 318 318 320 320 325 331 332 332 334 336 337 338 338 335 339 339 342 346 346 350 359 361 364 369 370 371 372 373 374 373 371 367
294 292 292 294 293 292 309 307 304 311 318 318 319 320 321 324 325 328 330 331 333 335 338 340 339 338 338 344 352 356 357 359 368 366 365 368 371 367 366 374 373 373 371 369
292 297 295 297 297 307 308 308 311 312 311 313 314 315 318 318 319 323 326 330 333 336 341 343 340 345 347 350 355 357 363 372 369 369 368 370 372 370 370 370 371 365 369 360
299 302 297 298 302 304 306 308 309 310 310 312 313 314 314 313 316 319 324 326 331 334 341 344 342 346 348 353 355 363 365 371 371 369 370 370 370 369 369 364 363 360 358 358
298 299 298 298 301 303 305 307 308 309 310 310 312 312 313 317 317 319 322 326 331 334 343 345 349 348 350 355 358 359 362 366 363 363 361 365 362 363 364 359 347 359 354 338
299 298 295 294 302 303 304 307 309 308 308 310 310 312 315 316 315 318 320 326 332 337 347 348 352 356 356 356 359 364 362 362 361 358 357 356 357 359 360 354 343 305 306 301

GFSCGP_sfc_thetae_048.txt.gz
Theta_e
318 311 308 311 314 315 315 314 311 315 321 318 317 320 323 326 327 328 332 336 334 336 341 344 345 346 348 350 353 353 357 362 358 357 355 356 352 357 359 361 364 368 369 369
314 309 314 315 315 314 314 312 311 314 319 319 318 318 325 325 324 328 333 332 337 336 338 342 344 345 346 349 352 355 357 361 360 358 357 356 358 355 355 358 364 367 366 370
311 313 317 314 313 310 312 311 311 311 315 320 318 314 320 327 330 326 327 337 338 338 337 340 342 344 345 348 352 355 357 363 361 360 360 362 360 362 354 353 357 361 366 369
313 316 313 312 310 311 306 315 314 313 311 306 318 306 318 321 323 327 331 335 335 338 340 339 341 342 343 347 352 356 359 361 362 363 358 358 349 347 349 353 355 359 364 367
312 313 311 310 310 312 308 314 313 313 310 310 310 310 314 322 319 322 328 330 336 337 340 339 340 342 344 347 351 355 359 360 363 360 362 355 354 350 353 352 359 359 366 368
313 318 313 311 313 312 313 310 310 311 309 303 308 310 310 315 320 321 326 328 335 337 340 342 342 343 344 347 350 353 358 359 362 363 359 364 354 356 349 352 353 358 363 364
311 313 313 313 309 311 310 306 299 298 299 300 309 308 313 319 323 323 325 327 331 338 340 342 342 342 343 344 347 351 358 359 362 363 362 359 365 357 358 364 351 356 355 359
302 302 311 312 310 308 307 306 300 294 296 299 308 304 310 321 324 326 327 328 331 334 340 342 344 343 343 344 347 349 356 359 362 361 363 362 362 364 355 358 358 354 356 357
304 304 313 314 313 312 307 303 309 303 304 300 304 308 314 319 320 323 323 328 330 331 339 342 344 344 343 344 346 348 355 360 363 362 364 365 361 362 361 357 362 364 361 360
308 303 310 312 314 312 310 311 302 304 297 297 302 306 307 313 317 320 321 323 328 333 336 341 343 345 345 345 346 350 355 360 363 365 365 365 365 362 361 364 358 360 366 368
308 306 307 311 308 306 307 307 306 306 304 299 299 303 316 317 318 320 322 324 326 331 335 339 342 346 347 346 346 349 352 360 363 365 366 365 366 365 363 359 362 361 364 366
311 306 302 306 313 313 310 308 309 303 302 305 305 305 317 319 321 321 322 325 326 330 336 339 342 345 347 347 346 348 351 354 362 365 366 365 367 368 366 362 362 364 366 368
306 305 300 303 310 311 308 309 309 310 307 305 301 304 319 318 320 322 322 324 328 333 336 338 340 344 346 348 348 348 351 352 357 365 365 366 366 367 367 366 364 365 364 367
308 305 304 301 306 311 307 308 309 308 305 305 306 308 313 315 316 321 324 325 328 332 332 337 339 341 347 349 350 352 351 353 356 360 364 364 366 366 367 368 368 366 367 364
307 302 306 308 310 311 308 307 308 307 309 305 309 310 314 316 318 322 326 328 328 331 334 340 338 339 346 350 352 354 354 355 356 357 360 362 365 368 368 368 368 369 367 367
305 302 306 305 308 309 308 308 308 309 309 310 310 311 319 320 323 324 326 325 328 330 332 336 340 344 347 349 354 354 355 357 358 358 358 363 364 365 367 367 367 368 368 367
300 301 301 299 307 307 304 308 309 310 311 311 308 315 320 319 320 323 326 325 326 325 329 335 338 346 357 350 355 356 355 358 360 358 362 363 364 364 366 367 367 366 367 368
296 298 300 298 304 296 308 315 313 311 312 314 314 317 319 321 324 325 327 325 323 325 327 333 330 334 343 339 341 357 359 360 359 361 361 365 365 364 366 367 367 367 366 367
300 298 296 296 298 304 308 311 311 309 310 315 315 317 319 320 321 323 325 327 328 332 334 334 331 331 342 339 342 352 353 358 361 359 360 362 366 365 365 366 366 367 367 367
300 301 296 298 295 295 306 313 316 315 305 316 316 316 317 318 311 319 332 332 333 336 339 340 340 339 341 343 339 355 350 358 357 359 360 365 363 365 365 365 366 369 369 366
293 294 293 295 294 301 308 311 314 303 308 320 321 320 318 318 325 330 331 332 334 336 337 342 343 342 347 351 350 362 364 356 360 361 364 364 365 363 367 368 368 368 368 367
293 291 292 295 294 293 309 309 305 314 317 316 316 317 319 322 323 324 326 328 331 335 336 340 344 346 350 352 353 354 360 366 376 365 365 365 367 363 365 367 368 369 368 365
292 297 295 297 297 311 308 308 311 311 311 313 313 314 315 315 316 317 319 326 328 332 337 338 345 350 353 352 369 363 364 375 376 375 369 367 367 367 366 367 366 366 367 364
298 302 296 298 302 304 306 309 310 310 310 311 312 312 313 312 313 317 319 323 327 330 334 336 341 347 352 366 366 368 371 371 372 372 370 369 368 366 367 367 367 365 364 363
296 298 297 297 301 304 305 306 308 309 310 310 311 311 311 312 312 317 319 321 324 328 335 337 344 350 355 366 369 367 370 369 366 369 367 367 366 364 366 354 347 362 345 337
299 297 294 295 302 303 305 307 309 308 307 309 309 310 312 313 314 316 318 320 321 324 334 335 347 348 353 360 360 364 368 371 369 365 364 360 360 364 363 344 337 304 304 301

GFSCGP_sfc_thetae_051.txt.gz
Theta_e
309 304 301 304 306 308 310 309 308 312 317 316 315 318 322 326 324 325 330 328 332 333 340 342 343 345 341 344 343 344 347 349 349 351 348 348 345 348 343 345 354 356 358 357
308 303 309 310 309 308 309 307 308 312 316 314 315 316 322 325 325 327 330 327 328 333 334 338 340 341 341 344 342 345 345 350 349 351 348 347 347 347 345 345 346 358 357 357
305 308 314 310 307 306 307 305 307 307 312 312 311 314 316 321 325 325 329 328 328 331 333 335 336 339 340 342 343 343 347 351 350 351 350 348 348 345 343 343 342 353 354 355
309 313 311 309 306 307 302 311 311 310 307 300 311 300 313 317 320 322 325 326 330 331 334 336 336 337 340 343 347 344 350 353 351 351 350 347 344 340 342 341 344 350 353 356
304 310 309 307 308 310 306 311 309 310 307 302 305 304 310 320 317 319 323 326 327 332 334 335 336 338 340 344 346 347 348 352 352 351 349 348 343 342 340 343 341 346 350 353
306 314 313 311 313 313 313 308 306 307 305 297 302 301 304 312 318 320 322 324 328 332 335 335 338 339 339 344 346 349 347 351 352 351 351 346 344 340 340 338 341 346 354 355
305 307 313 315 308 311 308 302 294 293 294 294 300 298 301 313 319 322 323 325 331 334 334 334 335 336 337 340 344 348 348 348 353 350 349 350 346 345 341 340 340 345 351 354
297 297 307 314 308 304 305 301 291 285 289 293 299 296 302 313 317 323 326 330 333 334 335 334 335 336 337 339 343 347 349 348 352 353 350 348 352 350 347 348 350 344 349 354
297 298 312 312 312 307 301 298 301 292 296 291 294 300 306 310 312 317 320 323 331 333 335 335 335 337 337 338 342 345 349 349 351 352 353 351 348 353 348 345 348 350 347 351
300 294 307 311 314 309 304 304 295 296 288 288 294 296 299 304 307 311 313 320 325 333 335 336 336 337 338 339 341 344 350 350 351 352 354 354 353 349 355 350 346 347 351 350
298 298 298 306 306 305 301 299 299 295 293 289 289 295 307 307 309 310 313 318 323 331 335 337 338 338 338 339 340 342 347 351 353 354 353 355 355 354 351 354 350 350 350 352
298 296 295 298 306 311 306 302 301 295 291 293 292 296 311 310 313 314 315 316 321 329 336 337 339 339 338 338 339 341 345 350 353 356 356 355 357 358 354 351 353 350 349 353
297 293 292 295 299 304 304 304 303 299 297 294 292 294 311 311 313 314 314 316 318 324 335 337 338 338 338 338 338 340 342 349 354 356 357 357 357 358 357 355 352 354 352 351
302 294 292 292 296 300 301 304 304 300 297 295 297 298 306 309 311 313 314 316 318 323 331 335 337 338 339 339 338 339 341 346 354 355 357 357 358 358 359 360 357 354 356 354
294 289 297 301 303 304 304 304 304 301 300 298 299 302 306 306 312 316 316 318 321 322 329 332 336 338 339 339 339 340 342 344 348 354 356 357 359 360 360 360 361 360 356 358
293 289 295 299 305 305 304 306 306 304 304 302 303 301 311 314 316 316 317 320 323 324 327 330 332 338 339 341 341 341 342 343 346 346 354 357 359 360 360 361 361 361 361 357
289 291 290 292 301 302 298 305 305 305 307 305 300 304 312 312 316 315 317 317 317 322 322 323 325 334 340 342 344 343 344 345 346 348 349 355 358 358 359 361 361 360 361 362
289 289 291 292 297 290 302 310 311 307 308 308 307 313 314 314 316 317 317 316 318 319 322 320 321 326 329 341 347 346 347 348 346 347 350 351 355 357 358 359 360 360 361 360
294 292 288 289 293 299 305 307 307 303 305 313 313 314 315 318 322 322 324 325 325 328 330 331 331 331 333 331 332 349 347 349 350 349 351 353 356 356 358 357 359 360 360 360
295 296 291 292 291 292 301 305 309 311 301 311 317 318 316 319 313 316 325 329 329 330 331 333 334 334 333 335 336 341 348 348 348 350 353 356 357 358 357 358 359 361 361 360
290 291 289 291 291 297 300 304 313 300 302 309 310 312 313 311 314 316 322 324 329 331 330 332 335 338 337 338 337 333 336 342 349 351 352 355 358 358 359 359 360 361 361 361
290 289 289 290 291 290 304 304 298 307 308 308 308 309 308 309 311 313 315 321 324 326 329 330 330 333 337 341 336 334 335 338 348 353 352 353 354 356 360 359 360 361 361 360
288 290 287 291 293 301 304 303 306 307 306 306 306 307 308 308 308 314 315 316 319 320 326 329 331 331 340 345 342 340 342 352 353 354 353 354 356 357 353 359 359 359 360 359
293 296 290 292 296 298 301 305 306 306 305 306 306 306 307 306 308 311 313 313 313 316 322 328 328 329 339 347 359 352 351 351 353 349 354 356 356 356 354 359 360 360 360 359
292 295 290 292 296 297 300 301 304 304 306 307 306 306 306 306 307 310 311 312 313 312 314 323 323 328 337 341 352 356 358 359 355 349 357 358 357 355 352 319 318 349 329 336
294 291 288 287 293 293 295 300 303 301 302 305 306 306 308 308 307 310 309 310 311 311 313 314 323 326 332 340 344 352 353 356 355 352 355 355 354 356 345 327 320 303 302 300

GFSCGP_sfc_thetae_054.txt.gz
Theta_e
303 298 294 298 300 300 303 302 303 309 315 319 319 318 323 330 330 331 332 334 334 334 338 339 340 341 341 340 343 341 342 345 346 345 343 341 340 342 344 342 348 350 351 354
300 297 301 304 303 302 302 302 303 309 314 312 318 317 323 326 327 330 330 329 333 335 336 337 339 341 341 339 343 342 343 343 345 345 346 343 342 343 344 341 350 352 352 354
300 303 307 306 303 302 302 300 303 304 310 310 318 314 318 323 324 327 331 332 333 331 334 336 338 340 341 339 341 341 344 344 345 346 345 344 345 342 341 340 340 352 354 355
302 308 307 305 304 305 298 306 307 307 303 299 310 304 313 318 319 324 326 330 330 332 331 337 338 339 341 339 342 342 346 346 346 348 345 344 344 342 340 338 339 348 353 352
299 305 305 304 306 308 303 307 306 306 302 297 303 303 310 318 315 319 325 329 329 330 332 332 338 340 341 341 340 343 347 346 346 348 346 344 342 342 340 338 339 340 349 350
301 307 310 308 311 310 309 305 304 304 298 293 301 298 303 312 316 319 323 327 328 325 329 332 337 340 340 341 341 342 345 346 347 348 347 345 342 339 338 337 337 338 344 347
301 302 305 312 307 309 308 298 293 289 291 291 300 296 300 316 320 321 322 326 328 327 327 331 334 335 337 339 341 340 344 346 347 347 347 346 344 341 340 337 336 339 343 346
293 292 301 306 307 305 303 302 291 286 286 292 295 292 299 317 322 325 325 327 328 327 329 331 334 335 337 340 342 342 342 344 347 347 346 346 343 345 342 339 339 337 344 349
286 293 305 307 308 309 303 299 300 289 289 288 292 296 302 307 317 323 324 326 326 327 329 332 335 336 337 340 341 343 342 342 347 347 348 347 347 345 344 342 340 341 343 351
292 287 300 305 309 309 306 302 293 289 287 283 289 291 296 301 303 314 320 324 326 327 330 333 335 336 337 340 342 344 344 343 346 349 348 346 347 351 348 343 341 346 344 347
292 289 294 299 301 302 298 300 297 296 290 289 285 292 300 301 303 304 313 324 326 329 331 335 335 337 337 338 341 344 345 344 345 347 350 349 347 345 350 349 343 344 344 348
294 292 287 294 302 304 308 297 298 294 288 288 290 295 306 306 306 308 308 322 327 332 334 335 335 336 336 336 339 342 345 345 346 348 349 350 350 349 345 348 351 347 345 345
294 291 283 290 292 298 296 304 296 293 291 289 291 294 304 304 307 309 310 314 329 332 334 335 335 334 335 336 337 341 344 346 348 348 348 349 351 351 350 347 348 352 348 346
296 289 287 283 289 295 294 299 299 299 293 292 294 296 301 304 306 308 309 314 325 331 333 334 334 334 335 336 336 339 341 347 348 350 350 348 350 352 354 353 350 348 351 349
291 285 286 289 292 295 297 301 301 296 297 295 297 297 300 303 308 308 310 313 322 329 332 334 334 335 336 335 336 338 340 345 349 350 350 351 352 353 355 355 354 352 349 351
291 284 286 285 297 299 299 303 303 301 299 298 297 298 304 306 312 312 313 315 323 329 332 334 335 336 336 336 336 337 339 343 347 348 350 352 354 354 355 355 356 355 352 350
288 284 283 283 296 300 295 300 303 301 302 301 296 300 306 309 311 311 313 317 317 323 331 334 335 336 337 337 337 336 338 340 346 348 350 352 353 355 355 356 356 357 356 355
289 285 283 284 291 288 298 302 302 304 305 306 309 306 310 316 321 322 322 322 323 324 325 324 327 333 337 339 338 338 339 340 341 346 350 352 354 354 356 356 356 357 358 357
292 288 282 286 288 296 296 299 298 298 300 304 305 313 319 321 322 320 324 326 326 327 328 328 329 330 331 334 339 339 339 340 340 341 342 350 354 354 355 355 356 357 358 358
292 292 285 286 288 287 296 301 306 307 294 304 305 306 314 316 308 310 318 325 325 326 329 334 336 337 335 331 336 341 341 340 340 342 344 346 349 354 355 356 356 358 359 358
286 287 287 288 290 295 296 302 309 294 296 303 304 304 306 305 307 310 316 317 323 325 327 331 334 336 335 337 330 333 341 341 344 345 344 349 349 350 354 356 357 356 357 357
287 286 285 287 289 286 299 300 293 297 303 304 303 303 303 304 310 310 311 312 314 322 323 326 328 336 341 352 341 336 333 333 342 348 347 350 352 352 354 354 355 356 356 356
285 289 287 288 290 298 302 301 304 302 300 301 302 303 303 304 307 309 309 309 310 311 315 322 323 330 337 341 353 350 347 349 347 347 346 348 350 353 355 354 353 354 355 355
292 294 288 287 294 294 297 302 302 300 300 301 302 304 304 302 306 307 307 308 309 310 310 314 321 323 326 334 342 349 352 353 351 346 343 347 348 349 348 356 356 355 356 355
291 292 289 287 290 295 297 299 299 299 301 301 301 302 305 304 306 306 306 307 308 310 310 311 314 321 322 326 335 341 349 349 347 348 349 347 349 346 346 330 331 349 342 343
293 289 287 287 293 293 294 298 300 299 299 301 300 300 303 304 305 305 305 307 308 308 308 308 311 320 322 324 326 336 346 345 343 344 349 350 351 348 334 325 317 303 303 300

GFSCGP_sfc_thetae_057.txt.gz
Theta_e
299 293 292 295 298 298 298 299 301 306 315 317 316 318 326 329 329 328 329 330 330 332 337 339 339 341 341 341 340 338 339 341 344 342 341 338 339 341 343 341 347 346 349 352
296 293 298 299 299 298 297 295 297 304 311 316 316 316 325 329 328 329 329 330 332 332 334 336 338 339 339 338 341 339 339 341 344 345 344 340 339 340 342 341 343 347 348 351
296 299 302 300 297 297 296 296 297 300 307 313 312 312 319 326 330 331 332 333 333 332 332 334 336 338 338 337 339 340 339 340 344 345 342 342 341 340 340 339 338 347 350 352
299 305 302 299 298 299 293 302 302 302 301 297 313 300 313 319 323 324 329 332 333 334 334 335 336 336 338 338 341 341 340 340 343 343 342 341 338 337 337 338 338 345 350 351
297 301 300 299 300 303 299 304 302 302 298 297 304 304 307 317 317 320 323 329 332 334 336 336 336 337 339 340 340 342 341 341 342 343 342 341 337 336 338 337 337 338 348 350
297 303 304 303 306 306 307 302 300 298 296 291 298 300 296 311 315 319 323 325 329 332 335 336 339 339 338 341 340 341 341 341 342 343 343 341 340 337 336 337 335 335 341 348
295 298 302 305 302 306 305 296 288 287 288 291 297 297 301 314 320 321 322 324 327 331 332 333 336 337 338 339 339 340 340 341 343 344 344 342 341 339 339 337 339 335 336 341
285 289 299 303 302 300 301 296 289 283 285 289 296 292 298 312 322 324 325 326 327 329 331 329 333 338 339 339 339 339 340 341 343 343 344 344 343 341 341 340 336 337 338 343
286 288 297 300 304 305 301 298 300 290 286 289 295 294 301 308 315 321 323 324 325 328 330 326 331 335 339 339 339 338 340 342 343 344 345 344 344 343 341 340 340 338 339 344
290 284 293 298 303 304 304 302 294 290 285 283 287 290 296 301 307 315 319 322 324 327 329 329 329 334 337 339 339 340 340 341 343 344 345 345 344 344 344 341 338 338 338 342
291 289 289 296 295 297 298 299 296 297 291 290 283 290 297 301 306 312 317 322 324 326 328 328 330 334 336 338 339 340 339 340 342 344 345 344 345 345 344 342 342 342 341 340
294 290 287 289 299 300 297 298 295 296 289 287 289 295 302 302 304 307 317 321 325 327 328 329 330 333 335 336 339 340 340 339 341 344 345 345 345 346 347 346 342 341 343 343
293 289 282 288 291 295 293 300 302 297 291 289 293 294 301 301 303 303 305 310 323 327 328 328 330 332 334 335 338 339 341 341 341 342 345 345 344 344 343 348 350 345 342 342
296 289 284 282 286 289 288 291 294 296 295 290 294 294 299 302 302 303 305 307 314 326 327 328 330 333 334 335 336 339 341 343 343 343 343 345 346 346 345 344 344 349 350 345
292 285 286 287 288 289 289 290 292 291 295 295 297 293 298 300 302 304 310 309 310 321 326 329 331 333 334 335 335 338 341 343 344 343 343 344 346 348 349 348 346 345 346 350
291 285 287 284 288 289 288 292 295 296 298 295 294 296 300 300 308 312 310 309 313 323 328 331 333 333 333 334 335 336 339 342 344 344 344 345 345 347 349 350 349 348 346 346
288 287 283 279 290 293 292 295 297 300 299 298 294 297 302 312 317 317 317 313 315 325 328 331 333 333 334 335 335 335 337 341 344 344 346 346 347 346 348 350 351 351 349 348
288 287 284 278 286 288 294 300 300 298 298 299 301 304 314 317 317 317 321 321 322 322 329 332 334 334 335 336 336 336 338 339 342 344 345 347 348 349 349 350 351 352 353 351
292 289 281 280 286 294 296 296 295 294 294 299 301 309 317 320 320 315 317 323 324 328 330 326 331 333 333 335 336 335 336 337 341 343 345 347 349 349 351 351 351 353 353 354
291 290 286 285 287 287 293 297 302 302 290 300 300 302 307 313 306 307 312 320 321 327 332 337 335 332 330 331 336 335 335 335 336 342 345 348 350 350 350 352 353 353 355 354
286 286 285 285 287 292 297 298 303 289 290 298 299 299 303 302 304 306 309 309 315 320 324 338 342 345 343 332 336 334 335 335 337 338 340 344 350 351 352 353 354 355 354 355
286 285 286 289 287 287 299 300 292 294 297 298 298 298 299 303 306 306 307 307 309 311 318 324 329 334 342 348 338 336 337 336 342 341 340 342 343 348 352 352 353 354 354 353
285 288 287 285 289 297 299 301 300 299 297 297 297 299 299 301 304 305 305 306 307 308 311 319 320 322 329 339 346 345 345 347 344 343 343 344 346 346 347 349 350 352 352 351
291 294 288 288 294 292 295 299 300 301 300 300 301 300 300 300 304 303 305 305 306 306 308 311 320 319 321 326 336 343 346 345 343 343 345 343 345 346 349 350 350 350 351 351
290 291 288 289 292 295 298 300 301 301 303 303 303 303 302 300 302 303 304 304 305 305 306 309 311 319 318 321 324 333 343 343 341 340 342 343 345 342 344 342 337 349 352 345
293 291 288 288 295 294 295 299 302 301 301 302 302 302 303 302 304 303 303 304 305 305 307 310 311 317 319 319 321 325 335 339 339 338 338 339 342 345 343 334 323 304 303 302

GFSCGP_sfc_thetae_060.txt.gz
Theta_e
298 292 292 294 296 296 297 297 298 303 311 315 314 315 325 327 324 323 324 325 326 329 335 338 340 342 343 342 340 339 339 339 343 342 340 341 342 344 345 345 350 350 352 354
293 291 297 298 296 296 296 294 295 301 308 314 313 314 324 326 326 325 324 324 327 329 332 336 338 340 341 340 339 339 338 338 343 344 344 343 342 343 346 345 348 350 351 354
292 295 300 297 294 293 293 295 294 297 305 316 312 310 319 326 329 329 330 329 328 329 331 334 336 338 340 339 340 337 339 339 343 344 343 342 342 342 343 343 343 348 350 353
297 302 299 296 294 295 287 298 299 298 297 297 311 296 310 320 324 326 328 329 330 331 333 335 336 336 338 339 342 341 339 339 342 344 343 342 340 338 339 341 343 347 350 351
296 298 299 295 296 298 294 299 298 298 296 296 301 301 305 317 318 323 327 329 331 333 334 333 335 337 338 340 339 341 340 340 341 343 344 342 341 339 339 340 342 343 350 351
295 300 299 301 302 301 301 299 296 295 293 289 296 301 296 309 316 321 327 330 332 333 334 335 336 338 338 340 339 341 340 339 341 343 343 342 341 338 339 338 339 340 343 349
294 297 298 301 297 301 300 294 286 285 286 289 296 296 299 307 318 321 323 327 330 335 335 335 335 336 337 338 339 340 340 338 340 342 342 342 341 340 339 339 338 337 339 343
284 287 295 298 297 296 297 294 287 281 283 289 293 291 298 308 316 321 324 326 328 331 335 336 337 337 337 338 339 339 340 339 340 341 342 343 343 341 342 341 341 340 339 342
285 287 296 298 300 298 296 294 298 288 286 286 293 295 302 305 309 314 320 322 325 328 332 334 336 338 339 338 339 339 339 340 341 341 342 343 343 342 342 342 342 342 342 343
288 281 292 296 299 300 295 300 293 289 284 282 288 290 298 301 304 309 315 321 323 327 329 332 335 335 339 340 340 340 340 340 341 342 343 343 344 344 344 342 341 342 341 344
287 286 286 293 292 292 294 294 294 296 292 288 283 289 297 302 307 308 312 321 323 325 328 330 331 334 337 341 341 340 339 340 341 343 343 344 344 345 345 342 342 342 342 341
289 289 284 287 295 298 295 292 294 294 290 290 288 293 302 303 305 309 312 318 324 326 328 330 331 330 334 338 340 340 339 340 341 343 344 344 345 345 344 344 343 343 342 342
291 287 280 284 287 292 290 292 290 292 292 292 292 293 303 302 302 303 305 313 322 326 327 329 330 330 331 336 339 339 339 339 342 343 343 344 344 344 344 344 344 345 345 345
294 286 284 279 283 287 285 289 291 287 288 292 295 296 299 304 301 303 304 306 311 323 326 328 328 330 331 335 337 339 339 340 341 342 343 343 344 344 345 346 346 344 344 344
288 283 283 285 287 288 287 287 289 288 289 287 296 295 299 301 304 305 304 309 310 311 324 327 328 329 332 334 337 339 340 341 341 340 343 343 344 345 345 346 348 350 348 345
290 279 287 284 288 288 287 289 290 291 292 292 295 295 302 305 309 316 317 319 314 310 313 326 328 329 331 334 336 339 340 341 342 340 340 344 345 346 345 345 344 345 348 350
286 284 284 278 286 286 284 289 293 296 296 297 292 298 303 312 314 312 314 319 320 321 313 319 327 330 332 335 336 338 340 342 342 342 342 343 345 346 347 348 347 346 344 345
285 284 286 278 284 281 292 300 299 296 295 296 297 304 311 314 314 313 311 314 320 325 323 325 329 332 334 336 336 338 341 342 342 342 343 344 345 345 347 348 348 349 349 347
290 287 283 278 282 290 296 296 295 292 293 296 295 298 305 314 318 314 309 310 315 325 332 328 332 333 335 336 337 337 338 340 342 342 343 345 346 346 346 346 348 350 351 350
290 289 284 285 281 287 292 296 300 300 288 297 296 295 298 313 302 303 308 311 313 323 337 333 331 332 332 334 336 335 336 338 340 343 345 347 348 348 348 348 348 351 352 352
284 285 281 282 285 291 294 298 302 291 289 297 297 296 297 300 303 307 309 309 312 318 322 337 342 341 334 335 336 334 335 336 340 344 346 348 349 349 351 352 353 352 352 353
285 283 285 285 286 286 296 298 292 295 298 297 297 298 297 301 305 306 307 308 310 311 317 323 331 337 343 338 335 334 335 338 339 343 345 347 349 351 351 351 352 354 353 353
285 287 285 286 286 294 297 297 297 299 298 298 298 300 299 299 302 304 305 306 310 312 315 320 322 328 333 345 346 344 344 343 343 340 341 343 348 350 352 352 352 352 354 353
290 292 286 288 292 295 297 300 302 301 301 302 301 301 302 300 301 302 305 305 307 310 312 317 319 320 321 326 334 341 344 345 347 346 346 347 345 344 347 352 353 353 352 352
291 292 288 289 294 297 298 300 301 302 303 303 303 303 303 302 303 302 304 305 306 308 310 313 314 314 316 320 322 326 334 343 342 342 345 348 349 347 349 349 346 351 354 345
295 292 289 289 295 295 296 300 302 301 301 303 303 304 305 304 302 305 304 306 306 307 309 311 312 313 314 316 317 321 325 332 338 340 342 342 347 350 348 344 335 305 306 303

GFSCGP_sfc_thetae_063.txt.gz
Theta_e
305 299 297 300 302 302 302 302 301 308 312 316 318 319 326 330 331 329 331 332 332 333 339 342 344 346 348 348 349 349 350 352 350 349 348 349 349 353 354 355 358 361 361 362
299 296 301 302 301 300 301 301 302 307 312 317 317 317 323 329 329 331 330 331 331 333 337 340 342 345 346 348 349 349 350 351 351 349 352 352 353 354 356 355 359 360 361 363
300 301 303 300 299 298 299 298 300 303 306 313 315 313 320 329 331 331 332 333 330 333 335 338 340 343 345 347 349 349 351 352 353 354 353 353 354 354 353 354 354 359 361 362
303 307 301 300 298 299 296 302 301 301 302 300 314 304 316 324 327 330 331 331 331 333 336 338 339 341 343 346 349 351 352 352 352 355 354 355 349 347 351 354 355 357 361 360
301 302 301 299 299 301 298 302 300 301 300 301 304 306 311 321 322 327 331 333 333 334 335 336 339 341 344 347 347 349 351 354 355 355 356 352 353 352 353 353 357 359 360 361
300 304 305 305 304 302 303 302 301 300 298 292 301 303 307 314 321 326 332 334 336 336 336 338 341 343 343 346 347 348 351 353 355 354 355 356 356 353 349 351 350 352 354 357
297 299 303 305 303 304 301 298 292 291 291 289 300 300 304 314 322 325 329 334 336 338 338 338 339 341 343 344 346 348 352 351 353 353 354 355 357 357 355 354 350 353 350 352
292 291 299 301 302 300 301 300 293 288 290 292 299 297 303 313 316 326 330 334 337 338 340 340 341 342 344 346 348 349 350 351 353 353 355 357 358 351 351 355 351 349 349 351
292 292 298 300 301 302 301 297 303 296 297 295 297 301 308 313 315 317 321 329 333 337 339 340 341 342 344 346 348 348 350 352 352 352 354 355 356 356 353 357 357 351 356 351
292 284 293 298 301 303 302 306 297 298 290 289 296 298 299 307 311 316 317 322 329 335 337 341 342 344 346 346 348 350 351 352 352 352 353 353 355 356 356 356 356 357 355 355
294 289 288 293 295 298 299 298 301 302 299 293 291 297 309 309 314 314 317 321 326 330 334 338 342 346 346 346 348 348 349 351 351 352 353 354 354 354 354 353 354 356 356 356
295 291 285 287 294 299 298 297 300 296 296 300 298 298 310 314 314 317 318 321 325 330 332 336 339 343 345 347 347 347 348 348 350 352 353 353 355 356 353 354 354 355 355 356
296 289 283 286 293 297 294 297 298 298 300 298 296 298 313 314 313 315 316 319 324 331 333 335 337 341 344 347 348 348 348 347 349 351 350 352 354 353 355 355 356 355 356 356
298 290 286 282 286 289 289 292 295 293 294 297 299 303 309 311 313 316 317 316 317 328 332 335 336 338 343 346 348 349 349 347 348 349 350 352 353 355 355 357 357 355 356 356
295 286 288 289 289 289 288 289 291 291 294 294 300 302 308 313 314 319 320 317 319 319 331 335 335 339 341 343 348 349 350 350 350 350 350 352 354 356 357 357 357 355 356 357
294 286 288 286 289 290 287 290 292 293 294 295 298 300 309 313 322 317 321 324 325 327 325 332 337 340 341 341 345 348 349 349 351 351 351 354 355 356 356 357 357 357 355 355
290 287 286 282 288 289 286 291 293 295 299 298 297 305 312 313 319 316 317 319 321 326 331 331 331 341 342 341 345 346 349 351 350 351 352 354 355 355 356 357 357 358 358 357
288 286 287 283 285 277 292 302 300 298 299 300 302 305 309 318 320 319 318 317 319 323 328 334 337 331 341 342 342 348 349 350 350 350 351 354 355 355 356 356 355 357 355 357
294 289 285 281 281 288 296 298 299 299 296 300 300 303 307 317 323 322 315 316 318 322 329 336 342 330 341 342 347 348 349 349 349 350 351 352 354 355 356 355 356 357 355 354
292 293 287 284 280 283 293 299 302 303 295 300 301 302 305 317 314 312 312 313 318 325 332 342 340 337 339 344 344 348 346 349 349 351 352 354 355 355 355 357 358 359 357 356
284 285 283 283 281 286 294 297 302 292 294 301 302 303 305 306 308 309 311 316 322 328 334 345 342 341 346 348 348 347 349 348 351 351 353 356 357 356 358 358 360 360 358 359
284 283 282 284 280 280 293 296 295 299 301 301 303 304 304 306 307 308 309 313 317 322 328 339 343 342 344 348 348 348 349 353 356 356 354 357 358 356 355 360 359 359 359 359
285 287 287 288 288 295 295 297 304 305 302 302 303 305 305 305 305 308 309 311 311 313 315 322 330 332 337 349 348 346 350 352 355 356 357 357 359 357 360 359 358 356 358 355
289 292 288 289 293 294 296 301 303 305 305 304 305 305 305 303 306 309 311 311 312 311 312 314 318 319 324 330 334 340 351 353 351 353 354 355 355 356 358 356 356 355 355 355
291 293 290 290 293 296 297 300 303 303 305 305 306 306 306 305 305 308 310 313 314 315 314 313 313 314 317 323 327 328 336 353 353 351 350 351 351 354 355 357 355 356 361 350
295 291 288 288 295 297 297 303 305 304 305 305 305 305 307 308 306 307 310 311 312 315 316 313 313 313 315 318 321 325 327 332 344 348 353 349 354 354 353 352 350 308 311 307

GFSCGP_sfc_thetae_066.txt.gz
Theta_e
309 304 302 305 307 307 305 305 304 310 314 320 322 325 329 334 335 336 337 338 337 339 343 344 345 346 345 346 349 350 351 354 352 349 347 349 350 354 356 357 361 364 365 365
305 301 306 308 307 306 305 304 305 309 313 314 322 323 327 333 333 335 337 338 338 338 341 344 345 345 345 346 348 351 352 354 354 348 349 350 354 354 357 358 362 365 365 366
303 305 307 305 304 302 304 303 304 305 310 315 317 319 323 328 334 335 337 340 340 338 339 342 344 345 346 346 347 350 354 355 355 356 351 356 357 357 356 357 359 362 364 364
305 309 305 304 302 304 301 306 305 304 305 304 314 308 319 324 328 332 334 337 339 340 340 342 343 344 346 348 349 351 355 356 355 356 357 362 352 350 351 354 354 357 364 363
305 305 305 303 304 306 302 307 305 304 302 303 308 307 315 323 322 329 332 336 338 340 341 340 343 345 347 349 350 352 355 357 360 359 360 355 356 350 351 353 361 364 365 364
305 311 308 308 309 307 308 305 304 304 302 296 303 306 310 316 322 328 333 335 337 339 341 342 344 347 347 349 350 351 356 361 361 359 357 361 361 359 352 355 353 353 355 358
301 303 308 310 306 309 306 303 297 294 294 294 303 301 308 319 323 327 331 334 337 340 341 342 343 343 346 347 348 350 359 361 362 357 357 356 359 360 359 358 353 357 351 352
295 294 303 308 306 305 305 303 298 293 294 297 303 298 303 316 321 328 330 335 338 340 341 342 344 344 346 348 349 352 358 360 359 359 362 364 363 354 355 359 354 353 351 352
295 294 304 305 308 308 305 300 307 301 303 300 302 304 309 313 317 321 325 330 333 338 341 342 344 345 346 347 352 355 359 362 361 357 364 364 363 362 356 366 363 355 361 354
296 291 299 303 305 307 306 309 300 301 294 294 300 302 302 308 313 317 320 323 330 336 340 343 345 346 348 349 350 352 358 361 361 357 359 358 361 361 363 361 363 363 361 360
296 293 294 297 299 300 303 302 304 304 302 296 296 301 312 311 313 316 319 323 326 333 338 342 345 347 349 350 350 350 353 355 356 358 360 363 359 359 360 358 360 362 363 362
297 294 290 293 300 302 300 303 304 299 299 301 301 303 314 315 316 316 318 323 326 329 333 339 342 346 348 349 350 350 351 352 354 358 363 361 361 362 357 359 359 362 362 363
298 291 288 290 295 298 296 301 304 305 305 302 299 301 315 316 316 319 318 320 325 329 332 335 339 342 347 348 352 350 351 351 353 357 355 358 358 358 361 360 360 361 362 362
298 293 291 287 290 294 292 295 300 301 298 300 302 306 312 313 315 318 321 322 323 325 329 334 337 340 345 350 355 355 351 351 352 354 354 359 361 362 358 363 363 361 362 362
297 290 293 293 293 292 291 291 293 294 299 298 303 305 311 315 317 320 322 325 323 323 328 333 337 339 344 349 357 356 352 357 355 357 356 360 364 364 365 365 364 363 364 362
298 290 292 290 292 292 290 292 293 293 296 299 302 303 312 316 318 321 323 324 326 328 329 331 338 341 342 346 351 356 356 356 359 360 358 362 364 365 365 366 365 365 364 363
294 292 289 286 291 290 287 292 293 295 297 300 298 305 312 313 316 321 325 325 326 328 331 335 336 339 343 346 351 355 358 358 359 361 361 363 365 365 366 366 366 366 366 364
292 292 291 286 289 281 291 298 298 297 298 302 304 307 311 313 318 324 327 326 327 329 332 335 337 340 339 345 347 351 354 359 360 361 361 363 365 364 366 366 366 367 364 364
295 292 287 284 285 289 291 297 299 299 300 303 306 309 312 315 321 323 325 325 327 331 334 337 340 341 345 341 346 352 351 355 356 359 361 363 364 364 364 363 364 365 363 363
294 295 288 287 282 280 290 294 298 299 297 307 308 310 311 315 312 319 323 326 330 334 339 340 344 346 347 346 343 347 350 356 356 358 360 364 364 365 363 365 366 366 363 361
288 288 284 286 284 288 296 296 295 289 298 307 309 311 313 315 317 319 320 322 327 331 339 346 350 348 348 344 345 352 352 355 357 356 357 361 363 366 367 368 367 366 364 364
287 285 286 287 283 282 298 294 290 298 306 306 308 311 312 314 315 313 314 314 317 324 335 341 349 345 345 348 353 356 356 357 362 360 358 362 364 359 359 367 365 366 367 364
285 291 288 290 289 297 298 295 299 303 304 304 306 309 310 309 310 311 311 312 313 317 325 335 340 346 351 352 353 351 361 364 360 360 361 361 363 360 365 364 362 359 363 358
287 291 287 288 294 293 295 298 300 302 303 306 307 307 308 307 309 312 311 311 313 314 315 318 326 330 333 339 346 349 357 359 358 359 359 360 360 359 360 360 360 358 357 357
291 292 289 289 293 296 297 300 302 305 306 306 307 307 308 308 307 309 310 311 314 316 316 316 317 317 320 328 332 338 352 357 356 357 358 359 359 359 360 361 358 359 365 351
294 290 287 288 295 294 297 302 305 304 305 306 306 307 308 307 307 309 310 311 312 316 317 318 319 319 319 321 326 330 333 336 357 353 353 354 354 357 357 357 357 311 315 309

GFSCGP_sfc_thetae_069.txt.gz
Theta_e
314 309 305 309 312 310 309 308 306 312 317 317 317 323 328 335 336 337 338 339 338 340 343 345 345 346 345 345 345 348 353 363 355 351 350 351 349 353 360 355 362 365 362 362
310 304 310 311 311 309 308 307 307 310 315 315 318 318 327 333 334 337 338 339 339 341 342 343 344 345 344 345 347 353 356 363 357 352 354 354 355 352 354 355 363 363 363 364
307 309 311 310 308 306 307 306 306 307 311 315 314 317 323 329 335 337 339 341 342 339 341 342 343 344 345 344 348 354 359 362 360 359 355 356 358 360 352 359 356 361 362 363
308 311 309 308 306 308 304 309 308 307 306 304 314 305 320 322 330 332 335 338 340 341 342 343 344 344 345 345 347 356 359 362 360 364 354 360 351 348 350 354 354 358 363 362
306 307 306 306 307 309 305 310 308 307 305 306 309 306 314 325 322 329 333 336 340 342 341 342 344 346 347 347 346 349 360 363 362 361 361 355 357 350 351 351 366 371 370 363
306 313 311 308 311 310 311 307 308 308 305 298 304 306 309 316 324 327 333 335 339 341 343 343 346 348 348 348 348 348 359 363 364 363 361 364 360 360 349 353 354 353 356 358
302 304 309 312 307 310 308 305 298 297 297 296 305 302 309 317 323 327 331 334 338 341 343 343 343 345 347 348 350 351 358 362 363 363 359 362 366 365 366 363 353 355 349 351
297 296 303 309 307 306 306 305 300 294 296 298 305 300 305 316 322 326 331 335 338 339 342 344 345 345 348 350 354 356 359 361 364 363 363 362 365 353 354 362 353 350 348 351
297 297 306 307 309 309 306 303 308 303 306 301 304 306 311 313 315 321 326 332 334 338 340 343 345 346 347 351 355 357 360 363 365 362 364 366 364 359 354 364 367 357 362 354
300 295 304 305 308 309 307 311 302 302 296 296 303 305 304 309 311 317 323 328 331 338 340 341 344 346 348 349 352 358 360 364 365 363 364 364 365 365 362 365 368 364 368 366
300 297 298 302 302 301 303 303 305 306 303 298 298 303 314 313 313 314 320 327 330 335 338 341 343 346 348 350 350 352 357 363 362 363 365 364 363 363 362 363 367 368 370 372
301 297 294 297 302 305 304 304 305 301 300 303 303 304 317 317 317 317 318 322 326 331 336 340 342 346 347 349 350 351 352 354 360 362 365 364 366 364 362 359 365 369 370 372
301 296 290 293 298 301 300 303 304 305 306 303 299 302 318 318 318 319 318 321 325 328 332 337 340 345 347 348 353 352 352 352 355 361 360 363 365 364 362 365 366 367 369 370
300 297 294 291 294 298 296 299 303 303 300 301 302 306 312 315 316 318 321 323 323 327 330 333 337 341 347 351 356 358 353 353 354 356 356 361 364 365 364 367 368 368 371 370
300 292 295 296 297 297 296 297 299 300 304 300 304 306 312 315 317 319 322 325 324 325 327 331 333 336 345 354 358 359 356 359 356 358 358 360 365 367 368 366 368 368 370 370
300 293 295 293 297 296 293 295 296 297 299 300 302 304 314 315 318 320 321 325 325 328 329 330 333 336 340 345 357 360 359 360 360 360 359 362 366 367 367 366 367 369 369 370
295 294 292 289 293 294 290 294 295 297 299 299 297 304 312 312 314 317 321 327 328 329 330 334 336 339 342 343 354 357 360 361 362 363 363 364 367 367 368 367 367 368 369 370
295 294 293 289 291 283 295 300 299 298 300 301 302 304 308 311 315 318 322 326 329 331 333 335 337 338 340 343 345 355 357 361 363 362 366 365 368 367 369 369 368 369 369 369
299 295 290 286 287 291 294 297 298 296 298 306 304 305 306 311 314 315 321 323 330 332 335 338 340 340 343 343 344 354 356 361 361 363 365 366 367 368 370 368 368 370 369 369
297 297 292 289 285 282 293 300 302 302 293 306 307 306 306 310 305 312 322 330 331 335 339 340 344 346 345 346 346 349 355 361 360 364 364 367 369 369 369 370 371 371 371 369
291 291 289 289 287 290 298 301 301 291 294 304 309 311 310 310 314 321 325 327 329 332 338 344 347 351 352 350 349 351 353 355 363 362 365 369 369 370 372 373 373 372 369 366
290 288 288 290 286 284 302 300 293 301 301 301 310 312 315 316 318 319 320 322 325 328 337 343 348 354 356 354 359 357 357 361 369 366 366 368 370 366 365 372 372 373 371 370
287 292 290 291 291 301 302 301 304 306 299 299 304 311 312 311 313 314 317 320 322 323 327 336 340 342 344 354 356 355 369 367 370 367 367 368 369 368 369 369 370 365 370 360
291 292 289 292 294 294 297 301 303 304 301 302 306 308 309 310 311 312 314 316 317 321 322 324 329 330 329 334 341 354 361 368 365 365 367 367 367 366 369 364 364 360 358 358
290 292 288 289 292 293 296 299 300 300 302 303 308 308 309 310 308 310 311 312 316 318 320 322 323 322 322 329 331 337 336 353 362 363 361 364 361 362 363 363 361 360 363 352
295 290 287 287 293 291 294 298 302 305 305 306 307 306 308 308 308 310 311 313 316 318 320 320 322 322 321 323 324 327 330 334 354 357 358 357 358 359 358 358 356 314 322 313

GFSCGP_sfc_thetae_072.txt.gz
Theta_e
316 310 306 309 310 311 308 307 305 308 314 315 317 321 323 324 324 328 335 335 337 338 342 344 345 346 344 344 348 353 354 358 356 356 354 355 355 359 360 356 366 369 362 367
309 306 312 312 312 310 309 306 306 310 312 313 314 317 323 325 325 327 328 335 336 338 341 343 344 346 344 344 347 350 354 358 355 359 358 359 361 356 356 358 365 367 367 368
306 308 312 310 309 307 308 306 306 306 310 312 312 312 321 324 328 332 330 339 336 339 339 342 342 344 345 344 347 349 355 358 356 359 357 362 363 361 356 362 362 363 368 367
309 313 310 308 306 308 303 309 308 307 306 301 311 301 319 326 328 329 332 336 336 338 341 342 341 344 344 346 348 351 355 359 356 360 355 359 352 352 356 359 358 362 369 368
305 306 307 306 307 310 306 311 308 307 305 304 305 303 308 322 322 322 326 334 336 337 341 341 342 344 345 347 347 352 354 359 355 356 360 355 355 354 357 356 364 363 370 371
306 311 310 308 310 310 311 308 307 307 305 298 303 303 306 312 324 322 323 330 336 337 339 343 345 346 346 347 347 352 353 356 357 355 357 358 353 360 357 356 357 360 360 365
301 303 308 311 307 309 309 304 296 295 296 295 304 302 306 314 325 327 324 328 336 340 340 341 343 344 345 346 346 348 353 353 356 355 353 360 355 357 364 362 356 354 355 355
296 296 302 307 307 305 305 304 298 292 294 297 305 300 305 313 317 331 327 331 331 337 342 341 344 345 346 347 348 347 353 353 354 357 352 356 362 354 357 365 355 357 351 356
296 296 305 307 307 308 305 302 307 300 303 299 302 306 310 314 314 317 328 327 329 333 342 342 344 346 348 348 349 349 351 354 356 355 356 352 359 360 354 365 368 358 364 362
299 293 302 305 308 307 305 307 300 302 294 294 300 304 304 310 313 315 318 327 331 333 337 343 344 346 349 350 352 353 354 354 357 355 358 355 354 357 360 356 366 363 367 365
300 297 296 302 301 301 302 302 303 304 302 296 295 301 314 315 315 315 316 321 331 331 338 341 344 347 349 351 351 353 354 355 357 359 357 357 354 355 354 356 356 361 363 374
302 298 293 296 303 306 305 303 303 300 299 302 302 302 316 318 317 316 317 319 327 331 336 335 336 346 348 349 351 352 353 357 359 360 359 357 360 357 354 351 356 364 362 367
301 296 291 293 297 302 299 301 303 303 303 301 298 301 316 318 318 318 317 320 325 334 332 328 328 332 346 348 350 352 353 353 359 361 360 359 358 359 358 352 357 359 362 367
302 296 293 290 295 298 297 298 301 300 298 299 302 305 310 314 316 320 321 322 323 330 331 334 334 340 345 349 350 352 352 354 355 359 359 359 359 358 358 360 354 361 362 361
299 292 294 296 297 298 297 297 298 298 301 298 301 305 310 311 314 320 322 324 327 329 330 332 335 342 345 350 352 353 354 353 355 356 358 358 361 361 361 360 359 354 362 363
301 292 295 292 296 296 295 297 297 298 300 302 303 303 312 313 316 318 321 322 329 331 333 335 339 339 345 348 352 353 354 354 356 355 356 359 361 361 361 360 360 360 359 362
297 295 292 288 294 294 290 296 297 298 300 300 297 304 309 308 313 315 319 316 322 329 332 335 336 339 344 349 353 355 356 357 356 356 357 359 360 360 360 361 361 361 360 361
295 294 292 289 291 282 295 301 301 298 299 300 301 302 304 306 310 314 319 316 320 328 331 333 335 338 340 341 348 358 358 357 359 357 358 358 359 359 361 361 360 361 361 361
298 296 290 285 286 291 294 298 298 297 297 302 301 304 307 308 307 310 315 320 321 326 331 334 335 337 345 346 345 350 358 357 356 359 358 359 359 359 361 360 361 361 361 361
297 297 294 289 283 282 293 300 303 302 292 303 307 307 309 312 305 306 320 326 329 332 334 336 338 339 341 347 347 345 353 359 356 356 359 363 361 362 361 362 362 362 362 361
292 293 289 288 286 289 298 299 302 289 293 306 308 308 309 309 313 321 323 325 327 328 331 336 341 343 348 356 355 351 348 355 360 359 363 361 366 363 364 365 365 363 363 363
289 289 289 290 287 284 302 300 294 301 305 305 305 307 306 308 314 318 321 322 325 326 327 333 340 343 345 344 344 355 350 359 365 364 360 365 366 364 365 365 366 366 364 363
288 290 286 291 292 301 302 300 303 303 302 303 304 305 307 306 311 315 317 320 321 324 326 326 329 335 335 337 343 347 358 363 365 366 362 365 366 365 365 364 365 364 365 362
293 294 289 290 295 296 298 301 302 302 302 304 305 305 305 305 310 312 314 316 319 320 322 324 326 327 327 330 332 337 339 343 364 365 361 365 365 362 364 365 365 364 362 362
290 292 289 289 294 293 296 296 297 297 300 302 305 304 304 308 309 311 313 315 317 318 320 322 321 321 321 324 327 331 334 339 367 364 362 363 363 361 363 362 363 363 364 359
294 290 287 286 292 291 291 295 298 299 302 307 305 303 308 308 308 311 313 315 316 317 319 319 320 319 320 321 323 328 331 334 342 363 362 360 360 361 361 359 355 315 326 318

GFSCGP_sfc_thetae_075.txt.gz
Theta_e
312 303 300 303 305 305 305 304 301 303 307 306 311 322 328 331 329 331 329 328 334 335 338 340 339 338 337 343 342 342 342 348 351 348 344 344 344 344 349 353 357 356 357 355
305 302 308 311 309 307 304 302 302 305 308 302 305 318 324 322 323 325 327 330 333 335 336 338 338 337 338 339 343 342 345 347 350 348 347 345 346 347 349 353 356 357 354 356
302 305 312 309 307 304 303 300 302 302 306 306 302 313 316 321 325 328 333 334 332 334 334 336 337 337 337 338 341 344 347 347 348 346 347 348 350 345 344 348 354 355 356 357
303 310 309 305 304 305 296 306 306 304 300 293 301 291 312 317 319 326 329 330 331 327 336 337 336 336 335 338 341 346 349 347 346 348 343 343 343 341 346 349 351 351 356 357
300 304 305 304 305 306 301 307 304 303 298 294 299 292 298 319 316 320 326 326 328 328 335 336 337 338 337 340 340 344 349 347 345 347 343 344 342 344 345 348 352 350 354 357
300 306 303 303 307 307 308 303 302 299 295 289 295 293 296 315 318 321 326 323 330 329 333 338 338 339 339 341 340 341 349 345 346 345 348 343 341 343 345 346 349 350 353 356
296 299 303 305 300 304 302 295 288 287 288 289 295 294 297 304 325 326 325 321 324 328 332 337 336 337 339 339 341 340 345 347 345 344 344 349 342 343 347 345 352 349 349 348
288 289 297 302 298 298 299 295 289 284 285 290 296 291 298 307 320 327 327 324 326 332 333 337 337 337 339 339 341 342 342 346 346 343 343 347 345 344 347 351 347 349 350 349
290 291 301 303 303 301 297 295 298 291 293 291 294 298 305 307 307 324 323 324 326 332 336 338 338 338 339 340 340 344 343 344 347 346 342 344 351 342 345 348 351 349 346 350
293 287 296 300 301 301 298 300 291 291 285 286 291 294 296 302 304 311 323 323 329 333 334 337 335 339 340 341 341 342 346 344 347 348 345 344 348 350 347 348 352 351 347 349
292 289 291 296 292 293 295 293 293 292 291 289 287 292 302 305 308 309 312 324 328 329 330 333 335 338 342 342 343 342 347 346 347 347 349 343 343 349 349 346 347 352 350 356
296 290 286 291 299 300 297 294 295 289 289 292 292 294 310 308 313 314 310 326 329 327 328 329 336 340 339 343 343 343 346 348 348 348 350 349 343 347 349 347 344 349 350 352
295 289 283 287 291 294 294 296 296 293 291 289 290 294 310 311 311 313 315 318 328 329 331 331 332 334 334 341 344 344 345 348 350 350 348 350 349 343 346 346 345 344 352 351
298 288 286 283 288 292 291 294 296 291 287 290 293 296 303 306 308 310 315 317 320 332 332 332 333 336 338 335 343 345 345 349 350 351 350 349 349 350 344 345 344 348 353 355
294 286 289 291 293 293 292 293 294 292 291 286 293 296 303 305 307 310 316 317 317 327 329 327 328 330 335 338 334 335 347 348 351 352 352 351 351 351 352 349 347 343 351 353
295 288 290 289 293 293 291 294 295 295 295 293 294 296 306 305 308 308 313 317 315 315 327 330 331 325 334 337 338 334 334 348 349 353 353 354 353 352 351 352 352 345 347 352
292 289 286 282 291 291 287 291 293 295 297 295 290 294 302 301 303 305 306 314 313 314 316 326 330 333 337 333 333 331 332 346 349 349 353 354 354 354 353 353 352 351 345 349
290 289 290 283 288 279 290 297 297 296 297 299 297 299 306 308 311 311 311 306 309 322 325 328 328 331 336 339 343 343 343 347 348 348 350 353 354 353 354 354 353 352 351 346
293 291 284 282 283 287 290 295 296 293 293 302 302 304 307 310 311 310 314 318 315 319 322 326 330 331 332 338 340 340 340 342 346 348 349 353 354 353 354 353 353 353 353 353
295 293 289 286 281 279 291 297 301 298 287 302 302 303 304 307 301 305 312 320 312 312 314 325 330 336 339 336 340 344 343 341 343 350 351 353 353 354 354 353 354 354 354 354
288 289 286 286 283 287 296 299 301 287 288 300 301 300 301 300 302 308 313 317 321 323 324 324 326 332 330 331 333 338 341 344 347 352 353 354 354 353 355 355 355 355 354 354
287 285 286 286 283 279 298 298 291 294 297 298 299 300 300 302 304 309 311 312 318 320 322 323 323 326 328 327 327 326 329 333 338 355 352 353 355 355 356 356 356 355 355 353
285 289 286 287 288 295 295 294 296 297 295 296 297 300 301 301 302 306 308 311 314 318 319 320 321 321 322 322 323 323 326 329 331 335 353 354 356 355 356 356 356 355 356 354
291 294 288 288 292 293 293 295 295 295 295 297 298 298 300 300 302 305 308 311 314 314 317 319 318 317 317 319 320 322 324 327 329 335 355 353 354 356 356 358 358 357 356 355
291 292 289 289 292 292 295 295 295 296 297 297 299 298 300 301 301 305 307 311 314 314 315 317 315 315 315 318 318 320 321 324 325 329 355 354 356 353 357 358 358 359 359 355
293 290 287 284 293 292 292 296 296 295 295 296 297 301 304 303 304 307 308 313 314 311 312 314 314 312 314 313 314 317 319 321 324 328 345 352 356 355 356 355 348 315 325 322

GFSCGP_sfc_thetae_078.txt.gz
Theta_e
306 301 298 303 304 303 301 299 299 304 308 302 307 322 323 326 329 329 330 330 330 333 337 335 336 339 342 341 339 340 344 341 345 341 341 342 342 344 348 350 353 352 351 353
303 299 306 308 307 304 302 299 298 302 307 302 318 321 325 325 322 327 324 330 331 332 335 336 334 336 340 339 339 339 344 343 344 342 341 343 342 343 349 351 353 354 352 351
300 304 311 309 305 303 300 297 298 299 304 302 318 318 322 325 325 326 328 331 332 332 333 334 333 333 340 338 339 339 344 345 345 344 344 344 343 344 344 347 350 353 353 353
302 309 307 305 303 303 295 304 303 302 297 291 298 291 315 322 321 326 326 330 331 334 335 335 333 332 338 339 340 341 344 345 346 344 343 341 342 337 341 345 350 352 354 353
295 301 303 303 303 305 301 305 301 300 294 292 294 290 293 317 314 318 325 331 331 334 336 335 334 334 336 339 340 344 342 345 347 344 342 342 339 339 343 344 347 348 350 352
297 302 300 300 304 303 306 301 298 294 292 286 290 291 294 311 315 319 325 330 331 331 332 332 337 335 335 338 341 344 342 343 346 344 339 340 339 340 341 343 346 345 348 351
294 296 298 301 295 300 299 292 286 286 285 285 290 291 293 315 319 322 323 328 330 333 331 332 332 334 334 335 338 344 343 341 342 344 341 340 341 339 341 343 347 345 347 349
285 286 295 300 294 291 292 291 287 282 283 286 292 288 295 306 316 325 326 328 326 325 331 331 334 336 334 336 336 341 343 341 341 342 344 342 341 340 343 345 347 348 348 349
286 288 299 300 299 296 293 290 294 288 287 286 290 295 302 305 304 321 324 322 322 324 329 331 335 337 336 336 336 337 343 342 342 341 341 344 345 339 342 346 346 348 348 348
289 285 292 298 298 298 292 295 289 287 283 282 288 290 293 299 306 312 323 324 322 324 330 333 336 337 338 338 338 338 339 343 343 342 340 341 344 345 339 344 346 346 347 346
290 286 289 294 290 290 291 288 287 287 287 284 283 288 297 301 306 307 311 316 326 325 330 335 337 338 339 339 339 339 338 340 344 344 341 340 341 346 341 342 344 349 345 346
292 286 283 287 295 297 293 290 287 283 284 287 288 290 306 307 307 310 312 315 319 329 331 336 338 338 339 338 339 339 341 339 343 345 344 341 340 343 346 345 342 348 347 351
292 285 281 285 287 293 291 292 288 288 284 284 285 288 304 305 308 312 313 318 322 328 333 336 338 337 340 340 339 339 342 342 343 345 345 344 339 340 344 347 345 341 348 348
296 284 283 279 283 289 288 291 291 287 281 284 285 291 298 302 306 310 313 313 326 328 330 328 328 330 333 335 334 337 340 345 345 345 345 345 344 340 340 346 344 344 343 346
291 284 286 288 291 292 291 291 292 288 287 284 288 289 296 298 303 306 313 313 317 321 327 330 331 332 331 330 335 336 341 344 346 345 344 345 347 346 340 340 345 343 343 346
291 285 287 285 291 290 289 291 292 292 292 291 292 291 298 302 307 310 309 311 317 321 325 331 333 333 333 333 337 336 337 344 347 346 346 345 347 348 346 341 341 342 343 347
287 286 282 277 288 287 283 288 290 292 294 293 289 291 303 304 307 308 310 313 319 321 323 325 329 331 333 336 337 338 335 337 344 347 347 348 346 347 348 348 343 342 340 341
285 285 283 279 282 275 286 294 294 293 298 300 300 301 303 303 307 310 310 310 316 321 319 322 330 334 338 338 338 340 342 343 344 345 349 350 350 348 348 348 349 347 346 340
288 286 281 278 278 284 289 292 294 290 293 298 296 298 300 304 307 307 309 312 317 318 317 326 335 332 333 334 340 342 341 342 342 342 347 352 352 351 350 348 348 350 349 346
290 289 284 281 279 277 288 294 300 298 288 296 297 297 297 301 295 300 306 311 315 321 321 323 329 330 329 329 334 335 336 337 337 339 342 348 353 352 351 351 351 351 351 350
282 284 279 285 283 285 292 294 297 286 288 296 297 296 296 294 298 302 306 310 313 318 320 322 324 324 324 325 327 328 329 327 330 334 340 344 351 353 353 353 353 352 352 351
285 282 283 284 284 280 294 292 288 291 292 294 295 295 295 297 299 301 304 308 311 314 318 320 319 320 320 320 321 321 324 326 327 330 332 338 351 353 354 353 353 353 352 350
285 284 282 284 285 293 294 291 295 293 292 293 293 295 296 296 296 298 301 306 309 313 316 318 317 318 318 319 319 317 320 322 324 326 330 337 351 353 353 352 352 351 352 350
288 293 287 287 289 291 293 295 296 296 294 295 295 295 295 295 296 297 300 303 308 313 314 316 314 313 314 314 315 316 318 319 320 322 326 330 348 350 351 353 354 352 351 351
289 289 288 286 290 291 293 294 295 296 296 295 296 296 296 296 297 299 300 303 308 311 310 313 312 310 311 311 311 314 315 316 317 321 324 325 350 349 351 352 353 353 354 350
292 288 285 281 289 288 290 294 297 296 296 297 296 296 298 300 302 303 301 305 308 306 308 308 309 309 309 309 310 312 312 314 314 318 324 322 328 351 354 352 353 316 324 321

GFSCGP_sfc_thetae_081.txt.gz
Theta_e
303 298 296 301 303 303 301 298 296 301 305 302 313 320 323 328 330 330 329 330 331 331 332 335 335 341 341 341 342 343 342 340 343 340 340 341 338 342 347 346 350 352 347 349
301 297 304 307 306 303 300 298 297 301 304 300 314 318 322 323 328 329 329 330 331 331 331 332 333 339 339 340 341 343 341 340 343 340 340 342 341 342 347 348 350 352 351 350
299 304 310 307 304 302 298 296 297 298 302 313 317 314 318 323 325 324 328 329 332 332 331 330 331 338 339 339 339 342 342 340 344 340 340 342 340 344 343 346 348 349 350 349
302 308 306 303 302 302 293 303 303 301 295 291 299 288 313 320 320 324 323 327 328 332 334 330 330 336 337 339 340 342 343 341 342 341 339 340 339 336 341 344 348 350 350 351
297 297 302 301 302 304 300 304 301 299 293 290 293 290 295 319 318 320 323 327 329 332 334 332 330 334 338 339 339 339 342 342 343 342 341 339 339 337 340 342 345 347 348 351
295 300 299 299 305 305 306 299 295 291 290 286 290 290 290 310 317 320 323 326 329 331 334 335 334 332 337 339 339 339 340 342 343 342 340 339 338 339 339 340 342 344 346 348
292 294 296 299 293 297 296 290 285 285 284 284 288 289 293 307 318 322 322 325 328 333 332 335 332 331 333 336 338 340 339 341 343 341 339 339 339 338 339 340 342 343 344 347
284 285 293 298 293 290 289 290 286 282 282 285 288 288 294 301 312 321 324 325 327 332 333 334 333 333 332 335 337 340 339 340 343 342 340 338 338 339 340 341 343 345 345 349
285 286 296 298 298 293 290 287 291 286 285 286 288 292 299 307 309 316 319 322 325 330 333 334 334 334 333 334 337 339 339 339 341 343 342 339 338 338 338 342 343 346 345 348
288 284 290 296 297 296 291 292 286 285 282 281 286 288 290 300 304 308 310 318 322 324 326 329 334 335 334 335 336 339 340 339 340 342 343 342 339 338 338 340 345 345 345 345
288 286 287 291 289 288 289 287 286 284 285 282 282 287 297 301 304 306 308 313 317 316 324 327 332 336 336 335 336 336 340 340 340 340 342 342 342 342 337 339 342 345 345 344
290 284 282 286 292 295 293 287 285 282 281 283 284 287 302 303 306 308 312 320 325 325 321 326 331 334 336 335 335 335 337 340 340 341 340 339 340 342 342 339 340 342 345 344
291 283 280 282 286 291 288 291 286 284 281 280 280 286 299 300 304 309 313 317 321 327 326 328 332 334 336 335 335 336 336 338 341 341 340 339 338 338 341 343 341 341 344 345
295 283 282 279 282 287 286 290 289 285 280 282 284 287 293 296 299 304 308 319 322 324 328 330 329 330 331 334 335 336 337 338 339 342 341 339 338 338 339 340 344 341 342 344
289 282 284 286 289 289 289 289 290 285 286 283 287 288 292 295 301 307 311 312 319 326 327 328 329 330 332 333 331 335 336 341 340 341 342 341 341 339 339 339 341 345 343 343
288 283 284 283 289 288 286 288 289 290 290 289 289 289 300 304 307 306 307 309 314 318 319 326 332 333 333 333 334 335 335 336 343 341 342 343 343 342 338 338 339 341 343 343
285 283 280 277 285 285 280 287 289 290 292 291 287 292 301 300 302 304 305 308 313 316 318 326 331 330 331 335 336 335 335 336 341 343 343 343 344 343 343 339 337 338 340 341
284 283 281 278 280 274 282 292 293 294 295 295 295 296 297 298 301 305 303 306 310 317 319 327 327 327 327 331 338 339 337 338 341 344 344 345 344 344 345 344 339 337 339 339
285 284 279 277 277 282 287 291 291 289 291 295 294 295 297 298 302 306 303 304 309 315 318 324 326 326 324 324 330 333 335 338 341 342 343 345 346 343 344 344 344 343 340 339
288 286 282 279 276 276 285 292 295 294 285 295 295 294 295 296 291 297 301 303 306 311 318 321 324 323 320 321 324 326 327 329 327 330 333 338 346 349 345 345 345 347 346 344
279 280 279 279 277 283 292 293 294 284 283 292 293 294 293 291 294 297 300 301 304 308 316 321 321 320 320 318 319 318 322 321 324 327 330 332 336 343 351 348 347 347 348 348
284 278 279 280 281 279 294 292 287 288 289 291 292 293 293 294 295 297 298 298 300 303 310 318 318 318 318 318 316 315 316 320 321 323 325 328 332 339 347 351 349 349 348 347
284 282 278 281 280 289 292 290 293 295 293 293 293 294 294 294 295 295 295 297 299 301 305 316 315 316 316 315 313 312 313 316 317 319 321 324 329 332 340 349 350 348 348 348
285 291 286 285 285 288 290 293 295 295 295 296 296 295 296 294 295 295 296 297 298 301 304 313 313 311 313 313 312 311 312 314 315 315 319 323 324 324 337 350 351 350 349 348
285 290 285 287 287 288 291 293 293 296 297 297 298 297 296 296 296 298 298 298 299 301 305 311 310 308 310 311 311 312 310 311 311 311 315 321 324 324 330 349 350 351 353 348
288 286 285 282 287 287 288 292 296 297 297 298 297 297 298 298 297 299 300 303 302 301 306 307 306 307 308 307 308 311 307 307 307 309 313 316 320 324 330 344 349 315 317 316

GFSCGP_sfc_thetae_084.txt.gz
Theta_e
301 296 293 298 302 302 300 298 297 300 303 301 303 315 320 328 329 329 330 330 331 331 334 336 338 339 340 341 340 341 341 342 343 341 341 341 340 343 348 349 351 351 351 350
299 293 301 305 305 302 299 297 296 303 304 300 303 308 321 325 327 329 330 329 330 332 331 333 334 337 338 339 340 341 341 341 343 343 342 345 342 345 349 351 353 354 351 351
297 302 307 306 302 301 297 295 296 299 302 313 312 304 314 322 325 326 331 331 331 332 328 331 332 335 338 338 339 341 342 342 345 343 342 342 344 345 347 349 350 352 353 353
301 306 306 302 302 302 292 302 302 300 294 290 299 287 303 316 319 323 324 327 328 331 330 331 331 335 337 339 341 342 343 342 345 342 342 341 339 339 343 347 350 352 354 353
300 299 302 299 301 303 299 303 301 299 292 290 292 289 291 314 315 319 324 325 328 329 332 330 331 336 338 340 340 342 343 341 344 342 342 341 340 341 344 347 349 350 352 354
294 298 299 301 304 304 304 297 293 290 289 285 290 289 290 309 315 320 324 327 328 329 332 333 331 336 338 340 340 341 342 341 342 343 340 340 341 339 341 343 345 347 350 352
291 292 295 297 292 295 295 290 284 284 284 284 286 289 291 299 305 320 323 325 328 330 330 333 330 331 336 337 339 340 340 341 342 342 341 340 341 341 341 342 344 345 347 349
284 285 292 297 291 290 289 289 285 281 281 285 288 287 296 305 309 314 323 324 327 328 331 333 335 331 334 337 338 339 338 340 341 342 341 341 340 342 342 343 344 346 347 350
285 285 295 297 296 292 289 286 288 285 282 284 287 292 298 306 308 309 312 320 322 326 331 332 336 335 332 336 337 339 338 340 341 342 342 340 339 340 341 343 346 347 348 350
286 283 289 294 295 295 290 290 286 285 282 281 285 287 290 299 302 306 310 311 315 319 329 333 335 335 334 334 338 339 340 339 341 343 343 341 339 340 341 343 344 347 349 349
287 285 287 290 288 286 288 286 285 284 284 282 282 287 294 295 300 304 308 316 320 324 322 327 334 336 336 334 337 338 339 339 340 342 343 343 340 339 339 341 345 347 349 349
290 284 281 283 291 293 289 286 284 283 282 282 284 288 296 296 299 305 307 312 321 327 328 323 328 335 336 334 335 336 338 339 340 341 343 343 343 342 339 339 341 346 348 348
290 283 279 281 286 289 288 289 283 283 281 281 282 286 297 299 302 308 308 311 324 326 329 329 328 330 334 334 334 335 338 339 340 341 341 342 343 342 342 340 340 343 345 347
294 283 282 279 282 286 286 289 288 283 281 281 283 287 291 300 303 305 307 310 316 317 325 329 329 331 331 335 335 335 336 341 341 341 340 340 340 341 343 344 342 341 343 345
289 284 284 285 288 289 288 288 289 285 285 283 286 288 291 300 303 304 305 308 313 315 322 331 331 332 334 334 333 338 337 338 341 341 340 339 340 341 341 342 344 344 343 344
287 284 285 284 289 287 285 287 288 289 289 288 288 289 299 302 303 302 301 303 308 315 320 328 328 328 331 335 336 336 338 339 339 341 341 342 341 341 340 340 341 344 344 344
284 282 279 276 284 284 281 286 288 289 294 292 285 291 296 296 297 301 299 301 305 309 317 323 325 324 323 328 337 336 337 339 341 339 341 343 343 342 341 340 340 341 343 344
284 281 280 278 278 273 281 292 294 292 295 294 294 295 296 296 297 299 302 300 302 304 308 318 323 323 322 325 329 333 339 338 340 342 342 343 344 343 344 343 339 339 341 342
284 282 278 277 276 280 288 289 289 288 290 293 292 293 295 295 298 303 301 300 300 302 305 311 321 324 322 322 326 328 328 329 329 329 334 341 345 344 344 343 343 341 340 340
286 284 281 279 277 276 285 292 294 293 284 291 291 290 292 293 289 298 300 299 300 302 303 304 311 322 321 320 322 324 323 323 322 324 327 331 333 339 344 345 345 345 342 341
278 280 278 279 276 282 291 292 294 283 284 291 292 291 291 289 292 295 298 298 300 301 302 303 306 317 319 319 320 319 319 318 321 323 325 328 331 333 338 347 347 347 346 346
279 276 278 282 282 278 293 291 285 288 290 291 292 293 293 293 294 295 296 297 298 299 300 302 302 308 319 318 315 315 315 318 319 321 324 326 327 331 335 340 349 347 346 345
278 281 277 280 280 288 291 289 292 293 292 293 294 295 295 294 294 294 295 296 297 299 300 301 302 306 317 317 314 311 314 316 318 319 320 324 326 329 330 331 337 348 348 346
283 288 286 282 284 288 290 293 293 294 295 296 296 296 296 295 296 295 296 296 297 300 300 302 302 303 311 316 313 313 313 315 315 315 316 320 323 325 328 331 336 345 350 347
284 290 285 282 286 288 290 292 293 295 298 297 298 298 297 297 296 297 297 298 299 301 303 303 302 303 310 313 311 313 312 311 310 311 313 316 319 322 325 329 333 340 352 348
287 285 282 282 287 288 289 293 295 296 297 298 298 298 298 298 297 298 297 299 300 301 304 304 303 306 310 309 309 310 311 310 308 308 310 311 313 317 322 327 331 321 317 313

GFSCGP_sfc_thetae_087.txt.gz
Theta_e
305 303 301 309 310 309 308 307 306 308 317 312 310 312 322 331 334 333 334 333 334 336 340 343 345 345 344 345 348 349 349 354 354 352 350 351 351 354 356 359 361 358 361 360
302 300 306 310 310 308 308 306 305 307 308 307 308 314 325 330 332 334 334 334 335 336 338 342 344 344 344 345 346 349 350 353 354 353 354 355 354 354 357 360 361 360 360 360
300 303 308 309 308 307 307 306 304 305 307 320 313 312 321 327 331 334 335 336 337 337 337 339 341 343 344 345 346 347 351 353 355 356 355 355 355 355 355 357 358 361 362 359
305 309 307 308 307 309 305 308 307 305 305 301 307 300 310 323 327 330 333 335 335 337 339 340 340 341 343 345 347 349 352 353 354 357 355 355 351 348 352 356 358 361 363 362
304 307 307 307 308 310 307 309 308 306 304 302 301 301 304 320 320 327 332 335 336 338 339 339 340 342 343 345 346 348 352 353 354 355 357 354 354 353 354 356 360 362 363 363
301 305 308 310 310 311 309 304 302 302 302 297 301 301 301 310 313 315 328 334 336 337 339 339 341 342 343 345 346 347 350 354 354 355 355 356 356 355 352 354 355 356 358 361
298 298 301 302 303 306 307 303 295 294 294 295 298 299 305 311 314 318 317 330 336 338 338 339 338 339 342 343 345 346 352 353 353 353 354 354 356 357 357 357 355 357 356 357
294 291 298 301 299 301 305 304 297 291 292 295 298 298 304 312 317 322 325 330 333 337 339 339 341 340 341 344 345 347 350 353 351 352 356 357 357 353 353 357 354 354 355 357
294 293 299 300 301 300 298 298 300 296 295 296 298 300 307 310 313 318 320 325 326 331 336 339 340 341 340 343 347 348 351 353 353 351 356 356 355 355 354 359 359 355 360 358
295 293 296 298 300 301 300 299 297 299 292 292 295 298 299 303 306 314 317 321 328 331 334 334 339 341 341 343 346 347 351 351 354 352 353 352 353 354 355 356 357 358 359 360
297 296 295 298 295 293 298 297 295 299 296 294 292 295 300 303 308 314 318 321 327 332 334 336 336 341 343 342 344 346 347 349 349 350 354 355 352 351 353 351 354 357 360 361
297 295 291 292 296 298 297 294 295 297 294 295 298 295 304 308 312 314 315 319 323 331 336 337 333 335 342 343 342 344 345 346 348 352 354 352 353 352 350 351 352 355 357 361
297 292 289 290 295 297 295 295 295 293 296 295 295 294 305 311 312 314 315 317 324 328 332 337 339 339 339 343 343 343 344 345 347 349 349 352 351 351 350 351 352 353 356 358
299 293 291 290 291 295 292 293 294 294 294 293 295 295 300 307 309 311 313 316 322 324 326 329 329 333 340 342 344 343 344 346 348 348 347 350 352 354 351 354 353 352 353 356
298 292 293 293 293 293 292 292 293 292 294 293 295 295 301 306 307 308 312 315 317 313 319 324 324 324 327 334 343 343 343 347 347 348 347 348 353 353 354 355 355 352 353 354
296 291 292 289 291 291 289 292 292 292 293 293 294 294 303 306 307 306 308 312 309 308 309 316 324 323 321 323 330 343 344 344 348 348 347 350 350 351 352 353 354 354 353 353
293 292 290 286 290 289 286 291 291 293 297 296 292 297 302 302 303 303 304 306 304 303 305 307 313 323 323 321 324 332 345 346 346 347 349 349 351 349 350 349 351 352 353 354
293 292 291 287 288 281 291 297 297 294 297 298 299 298 300 300 302 304 304 304 304 304 303 306 309 311 324 324 321 326 334 340 344 346 347 348 350 349 350 351 349 352 351 352
294 294 288 286 285 287 290 292 293 294 294 297 296 297 297 299 302 305 306 304 303 305 305 305 308 309 314 325 324 322 325 329 332 336 340 340 346 349 350 349 350 350 349 350
294 295 293 288 284 282 291 295 297 297 290 296 296 296 296 298 296 304 304 303 303 304 305 305 306 308 309 318 325 321 322 324 325 327 330 332 334 336 344 351 352 352 350 349
290 292 289 289 287 290 296 296 298 288 291 296 296 296 296 295 297 300 302 302 304 303 304 306 306 307 309 311 323 322 320 319 322 327 330 331 332 334 336 342 346 350 351 350
289 288 288 289 286 283 298 294 291 294 296 296 297 297 297 298 299 300 301 301 302 303 303 303 304 306 309 312 316 321 319 321 321 322 329 333 333 337 340 342 345 347 348 347
288 292 290 292 291 296 298 296 298 297 296 297 297 298 299 298 299 300 300 302 302 303 304 305 305 306 309 311 315 319 322 321 319 318 320 325 332 334 337 338 341 344 344 346
292 294 292 291 295 296 298 299 299 299 298 298 299 299 299 298 299 299 299 301 302 303 303 305 306 307 309 311 314 320 322 321 318 314 315 318 323 327 331 333 338 339 342 344
295 295 293 291 294 295 297 299 299 299 300 300 301 301 300 299 299 298 298 299 301 303 304 305 305 307 310 312 311 318 321 319 315 314 312 315 318 321 325 329 331 337 342 335
295 294 292 294 299 298 298 300 301 300 300 302 301 301 301 301 300 299 298 300 301 303 304 304 305 306 310 313 313 317 319 317 315 313 313 311 312 317 321 324 326 316 313 313

GFSCGP_sfc_thetae_090.txt.gz
Theta_e
310 305 303 308 313 314 315 316 312 318 324 321 323 320 329 335 337 335 336 336 335 334 339 344 346 346 343 345 348 352 353 357 356 354 352 353 353 362 358 360 363 360 360 361
306 303 308 312 314 313 313 313 313 313 314 313 313 314 322 331 334 338 338 338 336 337 338 343 346 347 346 345 347 351 353 357 359 356 357 355 356 359 359 361 364 363 360 362
304 306 310 311 314 310 312 312 311 311 312 317 315 314 321 328 333 336 339 340 340 339 337 342 345 347 348 347 346 349 354 356 359 360 359 361 360 361 359 362 359 362 362 360
306 310 308 309 311 312 308 313 313 310 309 307 315 306 316 326 328 333 337 339 340 340 341 341 344 346 347 349 348 350 354 357 359 362 360 361 353 350 352 358 358 361 365 364
305 306 307 308 311 314 310 315 312 312 310 308 309 306 313 320 323 329 334 339 340 341 342 341 343 346 348 349 350 349 354 358 359 361 362 358 359 352 355 355 366 368 368 365
309 312 312 313 315 315 314 312 311 311 310 301 307 306 308 314 316 319 325 338 341 341 343 344 345 346 347 350 350 351 353 359 360 360 362 362 360 357 352 356 355 369 360 361
305 308 309 311 312 315 313 308 300 299 299 299 309 306 310 316 321 324 320 330 340 343 342 344 345 345 347 349 350 351 354 357 360 359 360 361 362 361 360 362 355 366 362 355
300 296 305 306 310 309 310 308 301 295 296 300 307 302 309 319 325 327 331 333 336 341 343 344 345 346 347 348 350 352 354 356 359 359 360 362 363 358 357 357 353 354 353 357
300 297 303 304 306 307 309 306 310 302 305 302 303 309 313 317 321 326 329 332 333 336 341 343 346 347 347 348 351 353 354 357 359 358 360 361 363 362 358 360 360 355 360 358
303 297 302 303 305 306 308 312 302 303 297 296 301 304 305 311 317 322 324 328 334 338 338 339 343 347 349 349 350 353 355 356 358 358 358 358 361 362 362 360 360 359 358 361
304 303 299 303 301 301 303 304 305 306 304 299 297 301 308 312 319 320 323 328 334 334 340 341 338 342 348 350 349 350 353 355 356 358 358 359 358 360 361 359 358 360 361 362
303 303 298 299 302 303 303 304 306 301 301 303 303 299 312 315 320 322 323 330 327 330 331 336 343 343 343 346 348 348 350 352 354 357 358 358 360 360 358 359 357 359 359 362
303 301 295 296 300 302 301 302 304 305 306 303 299 298 314 317 320 321 322 326 324 324 327 329 331 333 342 345 350 349 349 350 353 356 355 357 358 358 358 358 359 359 359 360
305 302 298 295 298 302 298 299 301 303 301 302 303 303 308 311 314 318 321 324 323 323 320 325 327 326 329 335 338 350 349 350 351 353 354 356 357 359 358 359 360 359 360 359
303 298 300 299 298 299 298 298 298 300 301 300 303 304 308 310 312 315 319 321 319 319 320 320 322 325 325 324 330 338 350 350 352 352 352 354 358 359 359 360 359 359 360 359
302 297 299 295 296 297 295 297 297 297 298 300 302 302 309 311 312 311 314 316 315 315 316 318 321 321 326 325 325 326 334 349 352 352 350 355 357 358 359 360 359 359 359 359
299 299 296 293 295 294 291 297 297 297 300 300 298 304 306 306 306 308 310 312 312 313 313 314 317 318 321 327 328 324 327 336 348 351 352 352 355 355 357 358 359 358 359 359
298 298 297 295 293 286 297 301 300 298 301 303 303 303 304 305 307 310 311 310 310 311 312 314 314 315 317 321 328 329 327 327 332 341 348 351 352 353 356 355 356 357 357 358
302 298 294 291 291 293 294 297 298 297 299 302 303 303 304 306 308 310 311 310 310 311 312 313 314 314 317 317 319 329 329 328 328 326 331 337 350 352 354 352 354 356 356 355
298 300 297 293 289 286 297 299 302 302 295 302 303 302 302 303 300 308 309 309 309 310 311 311 312 314 315 317 317 319 326 327 327 326 326 331 335 340 348 353 357 357 357 355
295 296 293 293 291 295 301 300 303 291 296 302 301 301 301 301 303 306 307 308 309 310 310 312 312 312 315 317 318 318 321 324 327 328 328 327 335 336 342 346 345 351 358 360
295 294 294 295 292 289 304 300 296 301 302 301 302 302 302 302 304 305 306 307 308 309 310 311 311 312 315 316 316 317 319 325 328 328 327 328 327 331 338 345 348 351 351 354
293 298 299 297 298 304 304 302 304 302 301 302 303 303 303 302 303 305 305 306 307 308 309 310 310 311 314 316 318 316 321 325 326 326 326 326 327 328 334 339 342 343 347 348
298 300 298 296 299 302 303 303 303 303 302 303 304 303 302 302 304 304 305 305 305 306 307 309 310 310 311 315 317 319 320 323 324 322 323 323 322 322 326 330 333 335 338 339
302 300 299 298 300 300 303 304 304 304 304 303 304 304 303 304 304 304 304 302 304 303 306 308 306 306 309 313 315 318 321 321 323 322 319 322 319 318 320 324 327 329 336 332
301 300 298 298 303 302 303 306 306 305 304 304 304 303 304 304 303 304 302 303 303 304 303 304 303 304 305 309 313 318 320 321 321 321 320 318 319 318 317 318 321 315 311 310

GFSCGP_sfc_thetae_093.txt.gz
Theta_e
312 307 305 309 312 316 316 318 316 319 326 323 324 325 334 337 336 336 336 334 334 337 340 339 339 340 342 345 350 351 352 359 356 354 350 351 352 361 364 361 364 363 361 362
309 305 311 312 313 312 314 315 316 319 325 323 323 325 330 336 336 334 337 336 336 337 337 338 340 341 341 344 348 352 354 359 358 354 357 354 356 356 357 358 362 362 361 363
306 309 313 310 311 311 314 315 315 317 317 320 317 318 323 329 334 338 340 340 337 334 333 337 340 342 342 344 346 351 356 359 361 363 361 359 362 358 356 363 358 360 362 361
309 312 310 309 311 314 310 317 317 315 313 310 318 308 320 325 327 333 338 340 336 336 336 338 340 342 344 344 346 350 355 359 361 363 364 362 356 350 354 357 359 360 362 361
306 308 308 307 311 314 310 315 315 315 312 313 313 309 314 325 324 329 334 338 337 337 339 338 340 343 345 346 343 348 355 359 364 365 365 359 359 353 356 358 360 360 368 364
310 313 312 311 314 316 317 314 314 314 312 304 310 310 312 315 322 324 333 337 340 339 340 340 343 344 345 346 347 346 354 361 363 362 363 364 360 360 359 356 356 356 359 360
309 309 312 315 312 316 315 311 302 301 302 302 311 308 314 320 323 324 325 335 339 341 340 340 341 343 346 344 347 349 358 361 362 360 361 362 363 361 359 360 356 357 354 355
303 300 309 314 314 311 312 311 303 297 298 302 310 306 312 323 327 330 331 334 338 340 341 341 344 344 346 347 350 350 361 362 360 359 365 368 367 359 356 359 357 353 352 356
303 302 309 311 316 313 311 308 313 306 307 303 308 313 318 323 326 329 331 335 337 337 342 342 343 346 347 348 353 352 360 366 363 361 366 367 368 366 361 364 364 358 363 356
307 300 307 307 310 312 310 315 306 307 300 298 304 307 308 317 321 326 330 334 334 338 340 341 342 346 348 349 351 354 356 362 361 362 362 361 363 365 365 364 362 363 363 362
309 305 303 306 305 305 308 307 310 309 307 301 300 304 317 320 322 325 327 330 332 334 336 341 344 345 348 351 350 351 354 357 359 361 364 365 363 362 365 362 362 363 363 366
308 306 301 302 307 309 309 309 310 304 303 306 304 303 320 322 323 328 325 323 326 329 332 336 340 344 345 346 347 350 351 353 356 360 363 361 363 364 361 362 362 364 365 367
307 303 299 299 303 307 305 307 309 310 309 305 302 303 320 323 323 326 326 327 324 326 328 332 334 335 338 343 347 346 349 350 354 357 358 360 361 361 362 364 365 365 367 367
309 303 302 296 301 305 302 304 306 307 303 305 305 307 315 319 320 323 324 325 326 327 328 327 329 332 334 337 340 341 344 349 351 354 355 361 361 363 361 365 368 366 368 368
307 301 302 302 302 304 304 304 303 303 306 303 307 309 313 317 318 321 323 323 322 323 324 325 326 329 333 333 333 335 340 345 353 351 355 358 363 365 365 367 368 365 367 366
307 302 303 300 300 300 299 302 301 302 303 306 309 307 316 316 316 317 318 318 318 320 321 321 323 324 326 332 333 329 333 337 349 348 349 356 357 365 364 364 365 368 367 368
304 303 301 296 301 299 295 301 302 302 304 305 305 310 313 312 311 313 315 315 315 317 318 320 321 321 323 324 330 332 329 335 339 341 338 340 357 356 359 363 363 365 366 365
302 303 302 297 298 289 300 305 304 302 304 307 309 310 312 311 311 314 315 314 314 316 316 317 318 320 322 323 322 327 332 332 331 332 333 336 339 346 353 357 358 361 362 364
305 303 298 295 294 297 299 301 301 301 302 307 308 307 308 309 311 312 313 313 313 314 316 317 318 318 321 322 323 324 326 331 330 330 330 331 337 340 341 349 354 355 358 360
303 305 299 297 292 290 300 303 306 305 298 307 307 307 306 306 301 309 311 311 312 313 314 315 316 317 319 320 322 322 323 324 328 329 331 331 331 335 341 343 345 354 361 359
297 299 296 297 295 299 304 304 305 293 299 307 307 306 305 305 307 309 310 311 312 313 313 315 315 315 317 320 321 320 322 323 325 328 329 332 334 333 334 341 348 351 354 358
298 297 296 298 295 292 306 303 298 306 308 306 306 306 306 306 307 308 309 309 310 311 312 313 313 314 316 318 319 320 321 324 327 329 328 329 331 331 330 337 342 346 350 351
297 302 301 300 299 309 308 307 310 309 307 305 306 305 305 305 305 306 307 308 309 310 311 312 312 314 316 317 319 318 322 325 324 326 329 328 329 329 330 330 333 335 345 343
302 305 302 300 304 305 306 307 306 306 307 306 306 305 305 305 306 306 307 308 308 309 309 311 312 311 312 314 315 317 319 322 324 323 326 329 326 326 327 326 327 327 331 335
304 305 302 301 303 305 306 305 306 306 307 306 306 306 306 306 305 305 306 306 307 308 309 308 307 308 310 313 314 315 319 320 321 322 322 325 325 324 324 325 324 325 329 324
304 303 301 300 305 305 305 308 309 307 306 307 306 305 307 307 305 306 305 307 307 305 305 305 306 307 309 310 311 314 315 317 319 320 321 321 322 322 321 320 320 312 309 306

GFSCGP_sfc_thetae_096.txt.gz
Theta_e
313 306 304 307 312 315 316 315 317 319 323 324 317 316 327 334 333 332 332 330 331 332 336 338 339 342 342 349 351 356 359 362 360 359 357 362 357 362 361 352 359 365 367 365
309 304 309 311 312 311 313 312 316 319 322 323 318 318 327 333 334 334 332 332 334 335 335 338 339 340 341 348 352 356 361 361 363 359 365 364 355 358 360 352 359 368 363 367
306 308 311 310 309 308 310 310 317 314 318 324 323 317 312 331 334 336 336 337 336 336 335 335 337 338 340 347 350 355 361 360 362 366 368 353 351 350 356 359 363 364 366 364
307 312 310 309 307 310 306 315 315 318 315 309 319 308 322 328 327 326 333 336 337 338 339 335 336 337 339 345 350 355 360 360 361 367 365 363 353 347 353 358 363 363 362 365
305 308 308 307 308 312 310 316 316 317 315 311 312 311 317 323 322 317 326 336 337 337 334 336 336 339 341 345 346 354 358 361 363 366 368 360 360 355 350 358 350 364 370 369
309 313 311 310 312 316 316 313 313 315 312 304 310 309 313 319 318 322 325 337 337 338 335 337 340 343 344 344 344 352 356 359 365 363 365 364 352 347 351 356 353 359 362 365
308 308 311 313 309 314 313 310 302 302 302 301 311 309 315 319 321 326 330 335 333 333 336 339 341 342 342 341 342 350 355 357 362 362 362 365 361 361 346 351 350 360 357 355
302 301 309 312 310 309 310 310 302 297 298 301 310 306 313 324 326 326 332 334 338 331 333 339 342 345 344 345 343 348 355 357 359 361 362 365 367 362 358 355 361 359 359 355
303 303 312 312 314 313 310 307 313 305 306 302 307 314 319 323 324 328 335 337 335 339 340 334 340 345 345 346 347 349 354 358 359 360 363 365 366 366 363 366 368 361 365 353
308 300 309 310 313 314 312 314 305 307 298 297 305 308 310 317 324 330 331 333 336 338 341 339 337 338 340 343 345 354 356 358 360 360 362 363 365 366 367 372 366 365 363 353
308 305 304 308 306 306 308 307 309 309 306 300 300 304 319 321 327 327 327 328 331 334 336 339 336 335 334 347 349 352 357 361 361 362 363 362 363 365 367 365 366 368 365 362
309 305 300 303 308 310 309 309 309 303 303 306 304 306 318 323 327 326 325 327 328 330 334 336 338 339 342 345 345 346 347 353 360 362 364 363 364 364 364 364 365 366 366 365
309 304 299 300 304 307 305 308 309 309 309 303 301 304 322 324 324 326 324 326 327 328 329 332 334 336 339 340 340 341 345 349 348 357 361 362 362 363 363 365 366 367 366 366
311 304 301 295 300 305 302 305 308 307 302 304 303 307 316 318 318 322 324 325 326 326 327 329 330 335 335 336 337 338 339 348 352 349 351 358 361 362 363 365 366 367 368 365
306 299 302 304 304 304 304 303 305 304 306 304 307 310 313 318 318 320 322 323 322 322 322 323 323 327 332 335 335 336 341 340 347 346 346 349 347 361 363 366 367 366 366 366
307 301 303 301 302 302 301 304 305 305 305 308 309 308 315 318 319 318 320 320 320 320 320 321 322 324 325 327 332 334 335 337 339 340 338 344 349 351 360 364 366 367 368 366
304 302 301 296 301 299 296 301 302 303 306 310 306 310 315 315 315 315 316 317 316 317 319 320 321 322 325 323 326 330 335 335 334 333 334 336 344 347 348 356 360 364 364 366
304 304 302 297 299 291 300 307 306 304 305 311 313 313 313 313 315 316 317 315 315 316 316 317 318 319 322 323 323 328 330 336 334 333 332 332 334 340 343 345 350 356 359 359
305 303 298 295 295 299 301 302 302 301 303 311 311 312 312 312 314 311 313 314 313 314 315 316 317 318 321 321 324 327 329 329 332 331 331 331 333 331 338 342 344 347 351 354
304 304 300 297 293 290 300 304 307 305 298 309 311 310 309 309 305 308 313 313 313 313 314 314 315 316 318 320 321 323 325 328 327 329 331 334 334 332 331 335 339 346 350 353
297 298 296 296 295 299 304 305 306 294 299 310 310 310 308 306 309 312 312 312 313 313 313 314 315 315 318 320 321 321 323 323 326 328 332 332 334 335 338 339 340 343 342 347
298 296 295 297 294 292 307 304 298 307 310 309 308 308 308 309 309 310 310 310 311 311 312 313 313 314 316 319 321 321 321 325 327 328 327 332 334 331 329 335 335 337 340 342
298 301 300 300 301 309 308 309 311 310 308 307 307 307 308 306 307 308 308 309 309 310 310 312 313 314 316 317 317 314 319 321 323 324 327 327 332 333 332 332 330 332 336 340
303 305 302 303 306 307 307 310 310 311 308 308 308 307 306 305 306 307 308 309 308 309 309 310 310 310 311 314 315 317 319 320 321 321 324 326 326 329 331 328 327 325 325 328
304 304 301 302 305 306 307 307 307 307 309 307 307 307 307 306 306 306 306 307 308 308 309 309 308 308 309 311 312 313 314 316 314 317 320 323 323 325 328 329 326 326 330 322
305 302 302 299 306 306 306 308 308 306 306 307 307 306 307 307 306 306 306 308 307 307 308 307 307 306 307 308 309 312 311 314 311 311 315 317 318 321 323 324 325 316 308 307

GFSCGP_sfc_thetae_099.txt.gz
Theta_e
308 299 295 300 303 305 308 307 308 318 326 323 321 320 327 332 330 328 327 325 326 327 331 336 339 340 343 345 341 348 346 350 346 347 347 348 347 344 347 351 352 353 354 354
302 297 305 306 307 306 306 305 313 320 323 321 318 321 328 332 330 329 327 326 326 329 330 333 336 339 341 342 343 348 349 349 346 346 350 350 351 349 350 351 352 354 355 355
299 304 309 306 304 303 303 300 311 314 319 322 318 315 317 326 332 330 329 330 330 330 330 331 333 335 341 342 345 350 348 348 351 348 348 348 344 342 347 343 349 355 356 355
302 308 307 304 303 303 296 307 310 316 311 309 322 304 311 321 327 329 328 330 330 332 334 332 331 333 340 342 346 351 350 348 349 354 347 342 338 333 343 348 350 355 357 354
300 303 303 303 304 306 302 308 316 314 310 309 311 307 308 318 320 326 331 331 332 332 334 331 331 333 342 344 345 350 351 348 347 353 351 345 344 346 348 348 349 350 354 354
304 309 305 304 308 308 309 306 313 313 307 301 306 307 308 314 320 321 328 333 335 335 334 333 332 334 340 343 345 348 351 349 349 351 351 348 343 343 344 344 341 347 349 352
302 304 306 308 301 305 306 300 293 296 298 297 304 306 309 320 322 322 323 325 331 336 335 333 331 333 337 339 343 346 349 349 350 351 351 352 345 344 344 343 343 345 347 350
295 294 303 307 302 299 301 299 294 291 293 297 306 305 309 320 326 326 327 327 332 331 335 333 335 336 336 338 342 345 347 348 348 352 352 354 351 345 345 346 346 348 350 350
298 297 308 308 308 305 301 299 303 296 297 294 304 309 317 320 320 327 323 328 331 333 335 337 334 337 339 339 339 344 346 347 349 352 352 353 353 349 344 342 348 349 352 354
301 294 304 308 308 307 305 307 297 296 291 289 301 303 305 316 323 328 329 331 334 336 328 331 337 338 338 345 345 344 348 348 350 351 354 353 354 354 354 352 352 350 349 350
300 298 300 303 299 299 302 300 301 298 298 292 295 303 318 320 322 323 326 329 331 327 327 330 336 338 338 342 341 345 345 346 351 351 353 354 354 354 352 355 353 354 348 346
303 297 293 298 303 305 303 302 300 294 293 302 301 300 321 323 322 322 323 325 328 332 334 336 339 340 338 339 338 341 344 347 347 346 350 353 355 355 354 354 355 354 349 348
302 296 292 294 296 299 297 301 298 298 299 300 296 298 323 322 321 323 322 324 325 328 330 332 333 335 335 337 338 341 340 346 345 347 347 347 353 355 354 353 356 353 354 352
308 298 295 291 293 298 296 300 301 296 295 299 302 308 316 318 319 321 320 320 321 322 324 327 329 330 331 334 336 339 342 346 344 347 344 343 347 348 353 355 356 358 357 355
299 295 295 297 301 300 299 300 301 296 302 300 301 307 312 315 316 317 318 318 317 317 317 317 320 322 327 330 332 335 338 340 341 341 341 347 348 346 346 351 355 357 357 356
301 296 296 296 302 300 297 300 301 301 308 306 309 308 318 318 317 316 316 316 315 315 316 317 317 317 317 318 324 329 330 332 333 333 336 343 344 343 344 346 350 351 353 355
299 299 296 289 298 297 292 297 299 307 312 311 303 308 316 314 314 313 312 313 312 312 313 313 314 316 315 317 319 320 327 328 327 328 332 336 341 341 342 346 347 349 350 350
296 298 295 290 293 285 295 302 303 303 309 311 311 311 314 313 313 312 312 310 310 311 311 311 311 313 314 317 319 322 322 326 326 326 326 328 331 335 340 340 342 343 345 345
298 295 291 288 287 293 300 300 299 301 305 312 310 311 311 311 309 306 310 310 309 309 309 309 310 313 314 314 317 319 320 322 321 322 326 327 328 328 332 334 336 341 342 346
299 299 294 293 287 285 294 302 305 305 296 311 310 308 308 308 300 304 307 309 309 309 309 309 310 312 312 312 314 315 317 319 318 319 321 325 325 325 328 330 334 338 340 341
292 293 291 291 290 296 300 302 304 292 297 307 308 306 306 301 303 305 308 307 308 308 308 309 310 309 312 313 314 313 312 312 315 318 320 321 325 325 323 325 326 327 329 337
294 291 290 291 288 288 305 301 297 302 303 304 305 306 305 305 306 306 306 305 306 306 307 309 309 309 309 310 310 308 308 312 314 315 316 319 320 323 326 323 323 322 324 327
291 296 294 296 295 302 306 304 305 305 303 303 303 305 306 305 304 304 303 304 305 305 305 307 306 306 307 308 309 307 309 311 312 313 315 316 319 321 324 322 319 319 319 318
299 302 296 297 303 304 305 307 306 306 304 305 304 303 303 302 304 303 304 303 303 304 304 304 304 303 304 305 307 307 308 309 308 308 310 314 314 315 317 322 322 318 316 316
300 301 297 297 302 304 307 305 304 307 306 305 305 303 302 303 302 302 302 301 303 303 303 303 301 301 301 303 304 305 306 306 307 306 307 309 310 311 312 315 317 318 318 315
302 299 295 294 302 302 302 304 305 305 304 304 303 303 304 304 302 302 302 302 302 302 302 301 301 300 301 301 302 304 305 304 303 302 304 305 306 308 309 310 311 311 308 306

GFSCGP_sfc_thetae_102.txt.gz
Theta_e
306 297 294 298 299 301 300 300 315 321 326 321 319 317 322 327 330 331 326 323 325 331 333 336 341 344 344 343 341 342 344 341 343 345 344 341 340 340 342 344 349 351 351 352
299 295 301 304 303 302 300 300 314 319 324 321 321 320 327 328 329 328 325 322 325 328 332 334 338 340 340 339 343 343 345 342 342 345 346 346 346 345 345 347 349 351 352 351
296 301 306 304 301 300 298 297 312 313 319 321 319 315 320 325 329 328 327 325 327 327 330 332 336 338 339 341 343 344 345 342 341 347 346 342 341 344 344 343 345 351 352 352
300 305 305 302 301 300 292 302 314 316 312 308 317 300 312 318 323 326 327 326 325 326 331 333 334 336 338 341 345 346 345 344 346 346 342 340 337 334 342 342 346 351 353 352
298 301 301 300 302 303 299 305 311 315 309 310 312 305 306 318 320 324 328 328 329 329 330 331 333 337 339 344 346 346 345 344 346 350 344 340 337 340 345 348 346 348 351 350
301 306 302 301 305 305 306 311 311 309 305 298 306 307 308 313 320 324 328 328 331 332 331 332 334 339 339 343 347 345 344 342 343 349 348 343 342 342 344 344 342 343 347 350
300 301 304 305 299 301 302 296 290 294 298 296 307 306 307 319 325 327 329 331 333 333 335 330 331 337 338 339 344 348 344 341 344 347 347 346 342 342 344 342 340 342 344 346
292 292 300 305 301 297 297 297 291 289 291 294 307 302 309 320 323 326 329 329 332 333 337 334 334 336 338 340 342 347 346 342 345 348 346 349 344 342 343 344 342 343 345 346
292 294 305 305 305 302 296 294 299 294 293 296 302 307 314 322 321 323 322 329 332 332 335 335 337 340 342 342 341 343 347 345 345 349 348 349 347 343 343 343 344 343 347 349
297 292 299 305 304 303 300 302 298 294 289 288 299 301 303 313 322 326 323 327 330 328 333 336 337 338 340 340 341 343 346 345 344 348 350 350 350 347 344 342 342 347 348 350
296 295 296 300 297 297 300 298 297 296 293 291 293 298 319 320 324 325 328 329 327 327 329 332 334 340 339 341 340 342 340 347 346 346 349 350 351 352 350 350 349 347 347 348
299 294 290 295 301 303 302 299 296 293 291 299 297 303 322 321 323 324 325 326 329 330 332 335 333 334 340 337 338 339 340 342 345 346 347 346 347 352 350 350 352 351 346 345
298 292 290 293 295 299 295 297 294 295 297 294 294 300 322 322 322 324 324 326 328 328 328 330 332 333 335 337 336 338 340 340 345 344 343 341 341 346 347 350 351 351 348 345
306 291 292 290 290 295 293 297 296 293 291 295 299 307 315 318 318 321 322 322 323 326 326 326 327 329 331 335 339 337 340 345 343 344 342 340 340 344 343 346 347 349 351 347
299 291 292 294 298 297 296 297 298 294 298 295 305 308 315 318 316 316 317 317 316 317 319 320 320 324 328 330 333 335 336 337 343 340 341 341 343 345 341 341 344 349 350 352
297 292 294 293 298 297 295 298 302 305 309 307 308 307 316 316 315 313 313 313 313 314 315 314 316 318 319 325 329 330 330 331 335 334 337 345 344 341 340 341 341 345 348 351
295 293 293 290 295 294 290 295 299 307 309 310 304 310 315 313 312 311 312 312 312 311 310 311 313 313 317 317 323 326 327 328 327 328 331 335 340 341 343 342 343 344 343 343
292 292 291 290 290 284 293 299 304 309 310 312 311 313 313 312 311 312 311 309 308 308 308 307 309 312 313 315 318 321 322 322 324 325 326 329 329 332 336 337 339 341 344 344
294 290 288 286 286 292 298 299 300 303 303 313 309 308 307 308 307 306 311 309 306 306 306 306 311 310 310 312 316 317 316 317 318 318 319 324 325 326 330 331 331 336 339 340
293 292 290 287 285 286 295 301 305 304 297 310 309 306 305 306 299 302 307 307 306 307 308 309 310 311 311 311 312 310 310 312 312 314 316 318 320 322 322 324 328 330 330 335
289 290 287 286 285 291 299 302 305 292 293 308 311 307 305 300 302 305 308 306 307 307 308 309 308 307 307 308 308 306 308 308 311 314 315 316 318 318 321 320 321 319 320 325
290 287 288 289 286 284 304 302 295 298 299 304 305 303 302 303 304 303 303 304 306 306 307 307 306 305 306 307 306 305 306 308 309 310 311 313 315 317 320 319 320 317 317 316
288 293 291 293 292 298 302 300 301 300 299 301 303 304 304 303 302 302 302 302 303 303 303 304 302 302 303 304 304 303 305 306 306 306 307 309 312 312 313 314 316 317 316 313
294 297 293 294 298 299 301 302 304 303 301 302 302 302 303 301 302 301 301 301 301 302 301 301 301 300 299 301 303 303 303 305 304 303 304 306 306 307 308 311 312 311 311 312
295 295 293 293 297 300 302 302 303 303 303 302 302 302 300 301 301 300 299 300 300 300 300 300 298 298 298 299 300 302 302 302 300 300 301 301 302 302 305 307 307 309 309 305
296 294 290 290 297 296 298 301 305 303 302 302 301 301 301 302 299 300 300 299 299 299 299 298 298 298 298 299 299 300 300 300 298 297 298 299 299 301 302 303 304 305 304 304

GFSCGP_sfc_thetae_105.txt.gz
Theta_e
302 297 294 298 299 299 299 299 315 320 323 319 317 319 322 327 329 330 331 321 328 330 336 338 340 344 344 343 339 342 342 340 344 344 341 339 335 338 339 341 347 349 348 351
297 294 300 303 302 300 299 307 313 319 324 321 316 318 323 326 327 329 330 321 327 329 333 337 340 342 341 340 339 341 342 339 342 343 343 343 342 342 342 343 347 348 349 348
296 299 304 302 300 299 294 297 312 313 318 322 319 315 319 324 328 330 333 323 329 329 331 335 338 340 340 338 340 341 342 339 340 345 344 342 343 343 342 342 344 348 350 349
298 304 303 299 299 299 290 300 314 315 310 304 317 301 312 321 324 328 328 323 327 329 331 334 337 338 337 339 342 342 342 339 341 345 342 341 339 338 341 341 343 347 351 350
297 299 300 298 300 301 298 303 311 315 309 308 312 303 304 320 319 323 327 324 326 330 331 332 336 337 337 342 342 344 342 340 343 343 342 339 336 337 341 343 342 345 348 349
300 303 301 300 303 303 306 311 310 307 304 297 308 305 305 312 318 322 327 327 326 330 331 333 337 338 337 344 342 344 342 340 345 346 342 339 337 339 343 343 342 344 346 348
298 300 302 303 296 299 299 300 293 294 295 295 303 304 304 317 322 325 326 327 328 329 331 332 334 336 337 342 342 342 341 338 341 345 346 342 340 340 342 342 342 342 343 344
290 290 299 301 299 295 295 297 290 288 291 294 304 298 305 319 324 327 331 331 333 333 332 332 334 336 337 341 343 342 340 337 340 343 345 345 342 341 342 343 341 341 344 345
289 292 303 303 302 301 295 293 297 292 291 296 300 304 313 320 319 325 327 330 332 332 334 334 335 336 340 341 340 345 343 339 341 343 344 345 343 341 340 343 342 340 343 346
293 290 297 303 302 304 297 300 294 291 287 287 297 298 302 314 318 319 324 325 328 332 334 335 338 338 339 341 341 341 344 341 342 344 345 346 347 344 342 342 341 343 343 346
295 293 295 298 294 296 299 297 294 293 291 291 292 298 318 318 324 324 325 326 328 331 332 334 337 338 338 340 340 339 337 343 342 344 345 346 347 347 345 343 342 342 345 345
297 291 289 293 299 300 298 297 295 291 291 294 296 301 322 323 325 325 325 327 328 327 328 331 334 338 338 337 338 338 339 340 341 343 343 343 344 344 345 345 346 350 345 346
296 291 289 291 293 298 294 294 292 293 295 293 294 301 322 323 322 325 325 326 328 330 332 331 331 333 334 335 335 334 337 339 341 342 339 338 341 341 342 344 346 347 346 343
303 290 290 288 290 293 291 295 294 291 290 294 298 309 316 318 317 319 321 324 325 325 326 328 329 331 334 333 333 334 338 340 341 341 338 338 339 339 338 340 343 347 348 344
297 292 292 295 296 296 295 297 296 291 295 294 306 309 315 318 318 316 318 320 320 320 320 322 323 327 329 331 333 334 335 340 341 339 337 339 339 341 341 340 339 342 345 348
297 291 293 294 299 296 294 296 303 305 308 306 310 310 319 319 314 313 314 313 313 314 315 316 319 322 324 326 327 328 328 332 340 339 339 341 343 341 339 339 339 339 342 343
296 293 291 289 294 295 290 294 296 306 308 311 307 312 315 312 312 311 312 312 311 312 312 313 315 316 318 322 324 323 324 328 329 329 329 331 340 340 341 341 338 338 342 343
292 293 291 288 292 285 293 301 311 308 309 310 311 313 312 311 310 310 311 308 309 309 309 310 312 314 316 319 319 320 320 320 321 322 324 327 328 331 334 335 337 339 341 339
293 291 287 285 287 293 298 297 297 300 306 313 311 312 310 309 309 307 309 308 305 307 308 308 309 310 312 311 312 312 312 314 315 315 317 320 323 325 326 325 328 328 330 335
293 291 289 287 284 284 297 303 304 308 300 310 310 308 307 308 300 301 307 308 307 309 310 310 310 310 308 307 309 309 308 309 309 312 314 316 318 320 321 322 324 326 326 327
287 287 285 286 284 290 298 302 305 292 293 309 309 308 307 304 304 304 307 307 307 308 307 307 307 305 305 306 307 305 305 305 307 309 311 313 314 316 317 317 319 318 319 318
288 284 285 285 284 285 301 300 295 298 301 309 308 308 304 305 306 305 308 307 307 305 305 305 303 303 303 304 305 303 303 305 305 306 307 308 309 311 312 314 313 316 314 314
287 291 289 290 289 297 299 297 298 299 301 305 306 305 305 304 303 303 302 303 304 305 304 304 302 301 301 302 302 300 301 303 303 303 302 303 305 306 308 308 308 310 310 310
292 295 292 293 296 297 299 300 300 301 301 305 307 306 306 304 303 302 301 301 301 301 301 300 299 299 298 299 301 300 300 300 299 299 299 300 300 302 304 306 307 306 305 305
293 293 291 291 296 298 299 299 300 300 302 304 307 307 306 304 302 301 300 300 300 299 298 298 297 297 296 298 299 300 299 299 297 297 297 297 298 298 299 300 302 304 303 302
294 292 289 289 295 295 297 299 302 300 300 301 302 301 303 302 300 301 300 300 299 298 297 296 296 296 296 297 297 298 298 297 295 295 295 296 296 296 297 297 298 302 302 301

GFSCGP_sfc_thetae_108.txt.gz
Theta_e
299 298 295 295 298 299 298 311 314 320 322 320 317 316 322 327 328 328 325 324 328 330 334 338 340 343 343 342 342 343 341 342 345 344 341 341 337 341 342 346 350 351 351 352
297 295 301 303 300 299 304 312 313 319 323 317 316 317 323 326 327 329 329 320 326 329 333 336 339 342 342 341 341 342 341 341 345 346 345 344 342 343 344 346 350 352 352 352
297 300 303 301 298 298 294 307 311 312 319 319 317 314 319 325 328 330 332 324 328 330 331 334 337 340 340 340 339 342 341 341 344 346 345 344 345 345 344 345 348 350 353 352
298 303 301 299 298 298 290 301 317 315 308 303 315 301 314 320 322 326 328 323 326 329 333 334 336 338 339 340 341 343 342 340 342 346 345 344 343 340 343 344 347 350 353 353
297 299 299 297 299 300 297 302 316 314 308 305 311 302 306 320 318 322 326 325 327 330 332 334 336 339 340 341 341 341 342 339 342 345 345 344 342 342 344 346 346 349 352 353
299 302 300 300 302 302 309 311 309 306 304 297 305 304 304 313 317 321 325 328 327 329 332 335 338 340 340 341 341 342 341 340 343 344 343 342 340 340 343 344 343 347 351 352
296 298 300 301 295 297 300 299 294 293 294 294 300 303 303 315 322 324 324 326 326 330 331 333 336 337 337 340 341 342 340 339 343 344 342 342 341 341 343 345 344 345 347 350
289 289 297 300 298 294 296 298 294 288 290 294 302 299 304 319 322 326 327 329 325 328 331 332 336 336 336 341 342 342 340 339 342 345 346 345 343 342 344 346 346 345 348 349
288 291 300 300 299 300 294 294 298 293 289 294 298 304 312 320 322 325 327 329 327 328 331 333 336 338 338 341 342 341 339 339 340 343 345 346 343 344 344 346 347 344 347 349
293 288 295 300 302 302 296 299 292 290 286 287 296 298 302 314 317 324 325 328 329 330 331 333 335 338 341 341 343 345 343 341 342 343 345 347 344 345 344 345 345 345 346 348
293 292 294 296 293 296 297 294 293 293 291 291 291 297 317 317 318 322 326 329 330 331 332 332 334 337 340 341 340 340 341 343 344 345 346 348 349 346 344 345 345 345 345 348
296 290 289 294 297 297 296 295 294 291 292 293 295 298 323 323 326 324 325 328 329 331 334 336 336 337 339 339 339 337 339 342 341 341 345 346 347 348 349 349 348 348 348 348
296 290 287 290 292 295 293 293 292 293 296 294 294 298 322 323 323 326 324 326 327 328 330 332 335 337 337 337 337 337 338 340 344 341 339 341 342 343 345 346 348 350 350 350
303 291 289 287 288 292 291 295 293 291 290 292 296 306 317 318 320 323 325 326 327 328 328 329 331 334 334 334 334 336 338 341 341 342 339 340 341 341 341 342 343 345 349 350
297 291 292 293 294 295 294 296 299 291 293 295 299 307 314 318 319 321 323 324 324 323 323 326 328 330 333 334 335 336 338 340 340 340 338 339 341 343 342 341 341 343 345 348
298 294 293 294 297 296 293 300 297 306 304 305 308 309 319 320 318 319 320 320 318 318 319 320 323 326 326 327 326 328 330 334 341 338 335 338 344 342 341 341 341 341 342 346
295 294 292 288 294 296 292 297 295 304 308 309 304 310 317 313 315 314 313 314 314 314 316 317 318 320 320 320 321 320 323 325 325 326 328 329 334 340 342 343 340 340 343 345
292 293 291 288 290 284 295 305 309 307 309 310 312 316 315 312 310 311 311 310 310 312 313 315 316 317 317 317 317 318 319 320 320 321 323 324 327 328 329 330 330 333 338 340
293 291 288 288 288 292 296 299 300 301 305 313 314 314 310 310 309 306 310 311 309 308 309 313 316 314 313 313 316 314 313 314 315 316 318 320 323 324 325 325 325 325 328 332
292 291 289 287 286 285 295 301 304 303 297 312 311 308 308 310 303 304 308 310 309 310 312 311 310 309 309 309 310 309 308 309 310 312 314 316 318 319 319 322 323 324 326 327
287 287 285 285 284 289 297 301 303 291 292 309 310 309 309 307 307 306 308 309 310 308 307 308 307 307 307 308 307 305 306 306 308 310 311 311 312 314 315 316 318 318 318 320
287 284 284 284 284 284 299 299 295 297 302 310 310 310 309 306 307 308 309 307 305 305 305 305 304 303 304 306 306 304 303 305 307 307 307 308 308 310 311 312 313 313 313 313
286 290 288 289 288 295 298 298 299 299 301 309 308 307 306 306 306 308 306 305 305 304 303 304 303 302 303 303 304 302 303 304 303 303 303 304 306 306 307 309 310 308 308 309
291 294 291 293 295 297 299 300 301 302 303 307 307 307 308 306 306 306 306 305 302 302 302 302 301 300 300 303 302 302 302 302 301 301 301 301 302 302 302 304 306 305 304 305
292 292 291 291 295 298 300 300 300 303 306 307 307 308 307 307 306 306 303 302 301 301 300 300 300 300 299 301 301 301 301 301 299 298 299 298 299 299 299 301 302 304 304 302
294 292 290 290 295 295 296 300 303 302 304 306 306 306 308 308 304 304 302 302 301 300 299 298 298 299 299 299 300 300 300 299 298 297 297 297 297 297 297 297 298 300 300 299

GFSCGP_sfc_thetae_111.txt.gz
Theta_e
307 306 306 310 310 306 306 312 317 321 325 323 319 317 323 328 330 330 331 332 334 336 340 343 344 346 348 350 351 353 352 355 354 353 351 350 349 353 354 359 360 360 358 359
304 301 310 310 305 306 321 318 317 321 323 321 319 319 324 327 328 330 331 332 334 336 338 341 343 346 347 349 351 353 353 354 356 355 355 354 351 353 354 357 360 359 359 361
302 305 311 307 304 304 308 312 317 317 320 322 321 317 321 327 329 331 332 332 334 336 336 340 342 345 347 349 351 352 354 355 356 357 356 355 355 354 349 351 356 358 360 360
306 307 308 304 304 306 302 309 320 317 314 309 317 304 314 322 324 327 329 331 330 335 338 340 342 344 346 348 351 353 355 355 356 358 356 355 357 353 353 351 356 357 361 360
304 304 304 303 305 306 304 309 320 317 314 313 312 308 312 321 320 324 329 331 331 334 337 339 341 344 346 349 349 351 354 354 356 358 359 361 358 361 353 353 357 359 361 361
305 308 308 307 307 308 313 318 318 316 314 301 309 309 310 316 318 324 328 331 333 333 336 339 343 345 345 349 349 350 353 353 355 357 357 357 357 355 352 353 357 362 363 364
304 304 306 307 304 307 311 309 302 302 302 300 310 310 311 321 324 326 327 330 332 335 335 338 341 343 345 345 348 349 352 353 354 354 355 356 356 356 356 359 353 355 356 360
299 296 304 306 305 302 312 308 301 294 296 301 311 306 312 324 327 330 331 331 332 334 335 338 341 343 342 345 344 349 350 352 353 353 355 356 357 354 354 357 355 353 356 366
298 297 305 306 307 307 302 300 309 304 304 304 309 312 318 325 324 328 329 330 331 332 335 337 341 342 344 346 346 349 350 351 352 353 357 356 357 355 354 355 358 356 358 359
302 297 304 306 307 306 305 308 299 302 298 297 305 307 312 318 321 325 327 328 331 334 335 338 341 341 343 346 345 351 351 352 352 353 356 357 358 357 357 356 356 355 356 357
304 301 302 304 303 302 303 302 303 304 303 300 300 307 320 321 324 326 329 330 333 333 335 339 339 340 342 345 345 347 351 352 351 352 354 355 356 357 357 356 357 356 357 358
304 302 299 301 304 305 307 305 307 300 301 307 307 309 325 327 328 329 329 332 333 334 336 338 338 342 344 342 342 346 350 351 353 354 355 355 358 358 357 357 358 357 355 357
304 300 297 298 301 303 302 302 306 309 310 307 303 307 325 328 328 330 327 330 332 334 335 337 337 338 341 340 340 339 346 349 351 353 354 355 355 357 357 358 359 360 360 360
308 299 299 297 299 302 300 302 303 305 303 306 307 311 319 322 325 325 327 329 330 332 333 335 338 339 340 339 337 339 339 342 344 346 347 350 351 352 353 356 357 358 361 361
304 298 300 300 301 303 304 303 303 301 304 303 308 313 318 323 325 326 327 328 328 327 329 332 334 335 336 337 339 338 340 343 345 345 345 346 350 350 350 350 352 352 355 357
306 300 301 299 301 300 303 306 308 308 306 311 313 314 325 326 326 324 325 325 323 324 327 329 331 331 331 331 332 334 335 341 345 342 341 342 347 346 348 347 348 348 350 354
303 303 300 296 300 299 298 305 308 309 312 313 310 317 324 321 322 321 321 321 319 321 322 322 321 321 322 324 326 325 326 330 331 333 339 339 336 345 348 348 348 346 349 352
302 300 301 297 300 292 300 311 311 312 313 316 317 320 322 320 318 320 322 318 318 318 319 319 318 318 318 319 320 322 322 322 324 326 331 331 329 330 334 338 340 343 346 347
301 300 295 293 294 298 300 306 306 306 309 317 318 318 315 313 314 313 319 320 318 319 320 318 317 317 317 316 317 316 317 320 322 321 326 328 329 329 329 330 329 331 335 337
302 301 299 295 293 291 301 304 307 306 301 316 319 315 312 313 311 312 314 315 317 321 317 314 314 314 313 313 314 313 315 316 317 321 322 323 324 327 326 327 328 332 335 335
297 297 294 295 294 297 302 305 307 297 301 317 320 318 315 316 319 316 316 315 319 321 317 313 314 314 315 316 316 315 314 314 317 319 319 320 322 321 322 321 323 325 325 327
297 295 295 294 293 291 305 305 301 306 309 315 318 319 318 316 314 315 316 315 316 314 314 315 314 313 314 315 315 313 312 314 316 317 317 317 318 318 319 321 319 320 320 321
297 301 301 299 299 305 306 306 308 308 307 312 319 319 316 314 313 315 313 312 312 314 313 313 312 311 311 313 313 311 311 313 313 314 313 313 314 315 316 316 315 315 315 316
300 302 302 302 304 305 306 307 309 310 310 312 318 316 316 314 314 313 313 310 308 309 309 311 311 310 309 310 310 310 310 311 311 310 309 310 310 311 312 312 312 311 311 313
302 302 301 301 305 306 306 307 308 311 312 313 315 315 314 313 312 313 312 311 309 308 310 309 309 309 308 309 309 309 309 310 308 307 306 306 307 307 308 308 308 309 306 305
304 303 301 299 305 307 306 308 309 309 311 313 314 312 314 314 312 310 308 306 307 309 309 309 309 309 308 308 308 307 308 308 307 305 304 303 304 304 304 305 303 298 299 297

GFSCGP_sfc_thetae_114.txt.gz
Theta_e
308 306 305 315 319 313 313 312 319 323 326 324 322 320 325 328 328 328 329 333 335 337 343 345 345 346 349 351 354 355 356 359 358 357 351 351 350 353 355 357 361 363 360 362
306 303 310 318 319 310 315 313 320 325 329 324 323 322 328 328 326 331 331 332 335 336 338 344 345 347 349 352 354 355 357 360 362 359 360 356 354 354 355 358 361 361 361 363
304 306 313 315 313 309 319 316 319 318 324 326 323 320 324 326 329 332 333 336 335 335 338 342 345 346 348 351 354 356 358 360 362 360 364 357 362 357 354 355 356 359 362 361
306 311 310 314 313 312 310 315 320 322 319 312 325 305 321 324 326 330 331 333 335 336 338 342 344 346 347 350 354 357 359 360 359 364 359 361 357 354 352 352 355 357 361 360
305 308 310 311 313 313 310 316 319 320 318 317 316 307 314 325 321 324 329 332 333 335 336 339 343 346 348 351 352 355 359 361 361 361 362 355 354 352 354 354 360 362 364 362
309 315 315 313 315 313 312 315 316 316 316 305 313 313 313 320 323 328 330 331 333 335 335 339 342 345 348 351 352 353 357 360 361 361 360 359 357 354 357 359 358 355 356 356
307 309 312 314 311 313 314 313 304 303 304 304 312 310 315 323 326 329 330 331 335 335 334 337 340 343 348 349 351 352 356 358 360 359 359 359 357 358 356 357 352 353 357 355
301 299 309 311 310 308 310 311 304 298 302 305 314 307 314 324 329 332 334 333 337 337 336 337 342 345 345 349 352 352 356 357 358 358 359 362 362 355 354 357 362 354 357 354
301 302 310 311 312 310 309 307 314 307 310 306 310 315 321 326 327 330 332 333 332 336 336 338 342 345 349 350 352 353 356 358 358 357 360 360 361 360 363 359 359 357 361 356
306 300 307 309 311 311 309 315 307 308 301 300 307 309 314 321 325 329 330 332 331 335 336 340 342 346 349 345 353 353 357 358 358 357 359 356 359 360 362 364 362 362 363 363
309 305 304 308 305 305 306 305 308 309 307 303 302 308 326 326 328 329 332 331 333 335 336 340 344 348 351 351 351 353 355 356 355 355 357 356 357 358 361 360 362 363 365 365
310 306 303 303 309 311 309 307 308 303 304 307 308 312 328 330 331 331 334 334 336 339 338 341 346 347 349 350 349 348 352 354 356 357 358 359 358 359 357 358 360 362 362 364
310 305 300 302 306 309 307 308 309 309 309 307 303 309 330 332 332 334 332 334 336 337 341 342 342 340 342 346 348 347 348 351 354 357 356 358 356 357 357 359 358 360 362 362
311 307 304 298 303 307 305 306 309 308 305 306 308 314 324 328 329 329 331 333 335 338 340 338 339 339 343 345 343 345 348 351 353 356 356 358 358 358 357 359 361 362 364 361
310 304 306 305 307 307 306 306 307 306 308 305 308 310 321 328 330 329 331 333 334 334 336 338 337 339 341 340 340 340 343 343 345 348 350 353 356 358 360 360 361 361 361 360
310 303 306 303 304 307 306 307 307 308 308 309 310 315 328 332 332 331 330 329 329 333 334 335 338 340 342 342 339 339 340 341 343 344 345 348 353 353 354 355 356 358 359 360
306 305 304 300 304 304 303 308 310 311 314 315 308 321 329 327 327 327 325 326 326 326 327 325 325 325 329 335 339 337 337 343 345 343 344 346 349 347 350 351 353 352 354 356
306 305 305 302 303 295 306 312 311 313 316 318 319 322 327 326 325 327 326 325 323 324 324 324 323 323 322 324 327 330 331 333 336 340 341 345 345 337 336 345 349 352 352 354
311 305 299 298 298 301 304 309 308 307 312 318 321 324 324 325 325 320 324 327 326 326 323 321 319 319 320 320 323 324 325 326 328 329 334 339 338 331 332 334 338 343 348 348
306 309 303 299 296 293 304 308 310 311 306 321 323 323 322 324 319 317 324 324 323 322 320 319 320 317 315 315 317 317 319 322 324 328 333 336 337 337 336 335 338 341 342 342
302 303 299 300 298 302 307 308 311 301 304 315 323 323 323 321 325 324 321 320 320 320 318 319 318 316 315 315 316 315 316 316 320 325 327 329 332 333 334 335 338 339 337 337
301 299 300 300 297 294 310 309 306 311 315 316 322 324 322 320 323 325 324 326 323 318 315 316 317 315 317 318 318 318 318 321 322 324 324 325 328 329 329 330 330 332 333 331
301 305 304 303 303 310 311 311 314 316 316 316 320 324 325 322 322 323 322 323 323 324 323 323 319 318 321 321 322 320 320 321 322 322 323 323 325 326 328 327 327 326 327 326
306 309 308 305 308 309 310 313 314 316 317 320 321 324 325 322 322 321 321 321 321 320 319 319 318 317 316 318 318 319 318 319 319 319 319 320 320 321 323 322 323 324 325 323
308 308 304 305 310 311 311 312 314 315 317 319 322 322 323 322 322 321 320 319 318 318 317 318 316 316 316 316 316 316 316 317 316 315 315 316 315 317 316 313 311 313 306 305
308 305 303 303 311 310 312 313 313 313 315 317 318 319 322 323 321 321 319 317 314 316 316 316 315 315 315 315 314 314 315 315 314 313 312 311 312 312 313 310 307 297 298 296

GFSCGP_sfc_thetae_117.txt.gz
Theta_e
311 307 306 313 321 319 317 315 318 323 327 321 319 320 323 327 326 326 328 330 332 334 338 340 344 345 346 349 352 355 356 359 365 354 351 352 353 357 355 353 359 360 359 360
307 304 311 315 321 320 316 314 319 323 325 319 320 322 326 321 323 332 327 328 331 333 337 339 342 343 345 347 352 355 358 359 358 355 357 363 357 361 357 358 358 359 358 361
306 308 311 312 317 316 315 314 318 319 322 322 321 319 322 323 321 325 331 332 332 334 337 337 341 343 345 347 349 353 358 360 361 364 360 358 359 359 355 356 356 362 359 358
307 312 309 310 314 317 311 322 321 320 320 312 323 310 320 324 320 324 327 329 331 336 334 341 340 341 346 348 351 353 358 360 361 363 362 360 355 349 354 355 357 358 364 362
305 308 308 309 314 318 312 317 317 317 318 313 317 311 320 325 316 319 324 330 332 334 337 338 341 343 343 348 350 352 356 360 363 365 362 355 357 353 352 355 362 367 362 366
309 314 313 312 317 319 317 314 318 318 316 308 312 312 318 315 317 322 330 332 334 336 334 338 342 343 344 347 349 351 355 359 361 361 359 359 358 357 355 357 354 352 356 356
306 310 313 316 312 318 315 311 305 304 304 304 316 312 315 326 328 329 327 331 333 333 334 336 338 339 347 345 347 350 355 358 359 358 359 359 359 360 357 359 355 354 350 352
300 301 310 315 313 311 313 312 307 301 303 307 315 308 316 329 333 334 333 335 332 333 336 336 339 344 344 347 346 349 355 357 358 357 359 361 361 355 354 358 362 352 351 353
302 303 312 313 315 314 312 309 318 309 312 304 311 319 325 328 329 332 333 333 332 334 333 335 339 343 343 347 349 349 356 358 357 357 363 360 360 359 356 361 361 357 362 356
308 302 310 311 313 313 311 316 308 311 303 301 308 308 314 322 325 329 330 334 335 338 338 335 339 340 348 348 349 351 356 357 357 357 359 358 359 359 359 360 359 363 366 363
310 307 306 310 307 307 307 307 311 311 310 302 303 306 327 326 328 328 331 335 336 336 336 340 339 347 345 351 353 353 355 357 356 355 357 357 356 357 359 357 358 361 364 366
310 307 303 305 311 312 311 308 311 306 307 309 305 309 329 331 331 332 332 336 338 339 338 339 342 343 349 352 352 349 357 356 356 355 359 357 357 357 355 355 359 361 362 371
311 305 301 303 307 310 307 309 309 310 310 307 304 310 326 333 332 334 334 334 335 337 339 339 342 347 350 353 354 354 354 353 356 360 357 358 357 357 356 356 359 361 362 363
314 308 304 300 304 308 305 307 309 308 304 306 308 319 327 330 332 335 336 337 336 339 341 343 344 351 350 350 352 350 349 352 355 354 359 360 359 359 357 357 359 359 362 362
312 305 308 308 310 310 307 306 308 307 309 305 307 311 325 330 333 333 336 337 337 338 342 342 341 344 346 344 348 348 349 345 343 347 353 357 360 362 361 360 361 360 361 360
314 305 309 303 307 309 306 307 308 308 309 310 310 312 327 335 336 333 332 334 335 336 337 341 344 338 341 342 343 344 344 344 343 342 346 353 356 357 358 360 360 361 362 361
308 307 307 301 307 307 302 307 308 309 311 311 310 318 326 331 331 330 330 330 333 332 333 338 339 341 342 344 345 343 344 345 339 344 346 349 350 352 355 355 357 356 357 360
307 307 306 305 306 296 309 313 315 314 316 318 319 325 329 331 330 331 333 330 326 327 326 327 327 328 335 341 340 340 342 345 344 345 345 346 348 347 348 351 352 353 357 355
312 307 301 299 294 303 308 310 311 311 313 319 321 328 330 330 330 327 331 331 332 330 325 323 323 322 323 324 330 335 336 340 342 339 343 344 346 345 343 335 335 339 347 345
309 310 305 304 297 295 308 312 313 314 308 318 324 324 324 325 320 322 328 329 328 328 324 320 319 320 320 320 323 324 325 328 329 333 338 341 340 338 336 332 337 343 344 341
304 304 301 300 298 301 309 309 314 302 308 317 324 325 326 322 326 329 329 328 329 328 325 323 321 317 317 319 319 317 319 318 324 328 332 338 340 340 340 341 341 340 339 339
303 302 300 301 299 294 312 311 308 313 318 318 323 325 325 326 327 327 327 328 327 326 323 323 321 320 322 321 319 317 316 319 322 325 328 331 332 332 334 338 339 342 340 337
302 308 307 306 306 313 315 315 317 318 319 319 320 324 328 325 324 324 322 324 325 324 323 323 322 320 321 321 322 318 321 323 323 322 323 328 329 332 332 332 334 332 335 333
308 311 307 307 310 311 313 316 317 318 319 321 323 324 327 325 324 324 324 325 324 323 321 320 319 318 318 322 322 321 323 325 324 324 324 323 326 327 328 328 329 329 327 327
310 310 307 308 313 313 313 315 315 316 318 320 324 324 324 326 323 322 323 324 323 324 323 322 321 319 319 320 320 320 320 322 321 320 320 320 319 322 320 312 306 316 305 301
310 306 304 306 313 313 315 316 315 314 315 318 320 322 325 323 322 323 322 323 323 322 321 320 320 319 318 319 318 319 320 320 319 317 316 316 316 318 316 314 308 298 297 295

GFSCGP_sfc_thetae_120.txt.gz
Theta_e
312 307 304 310 316 318 317 317 317 320 324 320 319 319 321 330 326 324 327 327 329 330 335 337 340 346 346 349 351 355 352 359 360 357 346 356 359 365 357 360 364 368 364 362
307 303 309 313 314 317 317 319 316 321 324 320 318 318 323 326 327 327 326 328 329 331 332 337 340 344 348 351 347 355 357 361 360 358 361 351 363 359 362 363 364 365 364 364
304 307 310 310 311 313 317 316 318 317 319 319 317 314 320 324 323 327 331 332 331 332 330 338 338 339 344 352 352 355 358 362 360 349 351 354 360 352 360 355 360 364 364 364
306 311 309 307 308 312 313 323 322 319 314 308 319 306 316 319 319 323 328 331 328 333 333 336 337 339 342 347 356 359 360 361 360 364 357 350 348 348 354 358 361 357 362 364
304 306 307 306 308 314 315 324 322 320 316 314 314 311 316 320 316 318 323 330 331 331 333 337 338 342 341 347 348 359 361 360 362 365 363 358 363 356 346 360 358 367 369 363
307 311 311 310 312 316 319 319 319 316 312 302 312 313 315 318 322 321 324 330 333 331 335 334 339 343 344 346 348 352 359 360 363 360 361 363 361 353 357 354 357 357 361 363
304 306 312 314 309 314 316 311 303 303 302 302 314 312 315 325 327 324 325 329 332 333 336 334 335 341 342 346 349 351 358 358 360 360 361 361 364 355 360 359 359 353 352 355
299 298 309 312 311 309 314 312 305 300 300 304 314 307 314 329 330 327 328 331 333 334 332 336 335 344 342 346 350 350 357 357 358 360 361 363 361 359 361 364 363 363 352 355
302 301 312 313 314 314 312 307 314 309 311 306 310 313 325 328 325 324 327 331 332 333 332 336 342 341 339 346 347 354 357 357 358 358 361 362 367 362 354 365 357 365 363 360
307 302 309 311 313 314 312 315 307 309 302 299 306 310 312 320 322 326 329 331 333 334 336 336 340 343 341 343 345 355 359 357 358 358 359 359 361 362 363 366 368 364 362 371
309 307 306 310 308 306 307 306 309 311 309 302 301 305 323 319 320 329 331 332 334 333 338 342 342 345 341 342 346 355 358 358 357 359 358 359 358 360 362 362 364 367 367 365
311 307 302 306 311 312 310 307 308 303 304 308 307 308 320 319 326 328 331 335 334 337 339 343 341 341 342 347 344 355 354 356 356 356 358 359 360 360 358 360 361 366 369 364
311 305 300 302 307 310 306 308 308 308 309 307 303 309 321 322 327 332 330 336 336 342 340 337 338 340 338 336 340 348 349 340 353 358 357 358 359 358 360 359 363 362 366 364
315 307 304 298 303 308 304 306 308 306 303 305 306 314 322 323 330 332 333 337 340 340 336 335 332 344 340 342 345 349 349 349 350 356 348 352 359 364 362 365 365 365 364 367
310 304 307 307 308 309 308 306 306 306 306 304 309 315 321 320 328 333 335 337 337 338 340 339 338 342 336 334 342 349 352 351 349 347 353 349 350 355 364 360 366 365 365 363
313 305 308 305 309 309 307 309 307 307 308 307 309 315 317 318 322 330 335 336 335 337 338 343 345 345 339 341 345 346 345 347 350 346 348 348 349 352 356 358 359 362 363 366
310 309 307 302 307 305 302 309 311 309 310 310 309 321 318 315 315 321 330 336 337 338 341 342 343 341 342 341 346 346 346 346 345 343 345 345 345 346 348 357 360 357 358 359
308 309 306 302 305 294 307 315 314 313 317 318 323 325 320 320 327 330 333 327 328 329 330 330 334 338 343 344 345 347 346 345 344 343 344 346 344 343 344 351 353 354 357 355
310 308 303 301 300 303 306 311 309 307 313 316 322 318 323 329 328 326 332 331 329 324 323 323 324 326 328 332 337 340 342 345 344 343 344 345 346 343 341 339 342 344 346 341
309 312 305 304 297 293 305 312 315 313 305 317 317 321 322 326 317 320 328 329 327 327 322 320 321 322 324 325 331 331 328 331 333 337 341 344 345 342 340 340 341 342 339 334
302 305 301 298 299 302 308 312 313 301 306 318 324 326 320 321 324 327 329 328 327 324 319 319 319 319 319 324 322 320 322 322 327 330 334 338 343 343 341 339 340 336 335 333
299 298 301 301 296 296 312 312 307 313 319 318 322 326 326 327 327 328 327 325 325 322 321 320 318 317 319 321 320 319 317 323 326 326 329 331 337 339 338 340 341 339 336 334
297 298 303 307 305 314 315 315 317 319 319 319 320 326 326 325 324 324 323 324 323 322 322 323 322 323 323 322 321 317 319 321 321 321 321 326 331 336 337 338 336 334 339 333
307 311 307 309 311 312 314 316 317 318 318 320 322 326 327 325 326 324 323 323 320 321 321 321 321 319 320 322 322 322 324 324 324 320 319 321 323 324 319 326 323 317 310 315
310 311 305 310 313 314 314 316 316 317 318 319 321 323 326 327 325 324 323 322 321 321 320 319 317 317 318 320 321 321 323 325 323 321 322 322 320 322 310 302 302 304 296 297
309 306 304 306 316 314 315 317 315 314 315 317 319 320 325 327 325 325 324 326 325 322 323 322 321 318 318 319 320 321 325 325 324 322 321 321 319 321 317 312 303 297 296 296

GFSCGP_sfc_thetae_123.txt.gz
Theta_e
306 300 297 301 305 308 316 316 316 320 324 320 318 319 321 325 327 322 322 324 324 326 330 336 340 342 343 345 347 346 345 348 350 346 341 343 343 350 349 350 352 354 348 339
299 298 304 308 309 308 317 316 315 320 323 320 318 317 323 325 324 326 322 323 324 327 329 333 339 342 342 342 346 347 348 348 347 346 345 346 349 348 352 350 353 352 351 352
297 302 308 305 304 306 316 315 314 314 319 319 316 313 317 322 324 326 325 328 325 327 327 333 338 340 341 341 344 348 346 346 346 344 348 346 348 344 345 348 346 351 352 350
300 305 305 303 302 304 309 321 319 317 312 305 316 303 313 318 319 321 322 328 328 327 329 333 337 340 342 341 343 348 348 348 345 342 343 341 340 338 345 346 348 348 351 352
298 301 301 301 303 306 315 317 320 317 312 310 310 307 312 318 315 319 321 327 328 329 332 332 334 342 345 344 346 350 348 348 349 346 345 342 342 343 346 348 352 352 350 349
302 307 303 303 308 311 322 318 317 315 310 301 308 308 309 311 316 320 320 324 329 330 331 334 334 339 345 348 350 351 349 348 350 348 347 345 344 345 343 346 349 348 349 349
301 301 304 307 302 310 319 309 298 296 299 297 308 305 309 318 321 322 319 322 329 331 330 332 333 334 338 345 350 352 351 349 351 348 348 347 346 344 344 345 344 346 347 347
292 291 300 308 303 300 305 309 300 293 296 302 310 305 309 323 328 327 323 324 329 330 330 332 335 335 339 340 350 351 349 350 350 351 350 350 348 345 346 346 348 349 348 347
296 296 304 309 309 306 302 302 310 302 307 301 306 312 322 326 326 326 325 325 328 330 330 332 335 335 339 341 345 349 349 347 349 352 350 349 350 348 348 349 349 351 351 353
300 294 304 307 309 308 303 307 298 297 297 296 304 307 309 318 319 321 321 323 327 329 329 333 333 334 339 344 345 350 350 349 350 350 350 350 350 349 350 351 350 348 351 351
303 299 299 305 300 300 301 298 299 298 299 296 296 303 320 319 323 320 323 325 325 328 331 332 334 339 338 342 347 350 349 349 349 350 350 349 351 350 351 351 350 351 352 354
305 298 294 298 308 308 303 300 299 294 293 298 301 302 324 323 318 324 324 326 328 332 332 336 336 337 338 338 348 349 349 349 349 350 350 349 350 352 349 350 350 352 351 353
304 298 292 295 300 304 299 301 297 297 295 292 297 302 320 324 320 323 322 325 329 335 336 337 336 336 339 342 342 343 344 344 346 347 350 349 349 350 349 348 351 352 351 351
311 297 295 294 297 303 301 304 301 296 290 292 296 305 313 316 318 321 323 328 330 333 333 334 331 332 336 336 338 340 340 343 341 345 346 345 343 345 347 350 349 351 351 351
305 296 299 304 304 305 303 304 306 297 297 293 305 310 315 320 318 317 318 322 330 330 330 335 327 329 333 334 336 344 340 339 343 344 344 342 341 342 347 347 349 350 351 351
306 298 304 301 307 307 304 308 309 309 314 311 313 310 318 322 320 316 320 322 324 331 332 337 336 334 334 335 334 343 343 340 343 341 343 343 342 339 345 347 346 347 348 349
302 303 299 295 305 304 300 304 308 309 317 316 310 309 315 314 314 312 318 318 328 331 335 336 333 333 333 333 338 342 342 342 340 340 343 343 339 338 343 347 347 348 344 344
300 303 300 295 300 290 305 311 311 310 313 316 316 315 316 319 319 320 326 326 325 326 326 328 336 338 340 341 342 340 341 339 340 339 340 340 340 339 343 344 343 341 343 341
307 301 297 294 294 301 305 308 306 302 307 317 317 317 326 326 324 323 328 326 323 322 321 323 326 329 332 336 338 339 339 340 339 338 339 341 341 337 337 337 339 340 338 337
306 305 299 296 290 289 303 310 313 310 300 317 318 318 321 320 312 319 325 325 322 322 321 321 323 326 325 328 333 330 328 328 329 337 338 340 340 338 336 337 338 337 334 331
298 299 294 297 295 301 309 311 313 299 302 320 315 314 317 316 321 323 324 321 320 319 318 320 320 321 322 324 326 325 323 323 327 331 335 336 336 335 335 336 334 330 330 327
296 295 296 298 294 293 312 311 306 310 314 318 316 318 318 323 324 322 321 320 318 317 317 318 318 318 321 322 322 319 319 324 325 326 328 330 333 335 337 335 333 331 328 324
294 300 298 301 301 310 312 311 313 316 314 316 320 324 324 323 321 322 321 320 320 319 318 319 317 317 319 319 319 318 320 322 323 323 322 324 326 321 324 328 333 333 331 326
305 307 299 305 308 309 311 313 313 314 314 316 322 326 324 321 321 322 321 320 319 319 318 318 317 317 317 317 319 319 320 321 319 318 320 322 315 308 305 308 306 304 303 309
305 306 301 304 309 310 312 312 313 314 316 316 320 324 323 322 320 319 318 317 317 318 315 315 314 314 314 314 315 316 319 321 319 319 319 319 317 307 300 298 300 296 294 296
305 302 300 302 310 309 309 311 313 312 312 314 318 324 326 322 320 321 321 319 318 314 314 313 313 313 314 314 313 314 317 318 317 315 318 315 317 312 310 303 298 298 296 296